GFSNW_sfc_temp_000.txt.gz
Temp
54 55 55 54 54 53 56 51 47 58 57 49 40 42 49 51 52 55 52 51 49 46 45 43 43 43 46 51 49 43 44 37 31 38 45 46 43 40 39 27 29 28 25 31
54 54 54 53 53 53 54 50 50 56 57 38 32 47 50 51 51 51 50 48 49 49 43 40 44 46 49 50 48 43 44 35 28 36 41 43 40 41 40 35 31 31 23 31
54 54 50 51 54 53 52 50 42 47 48 45 47 45 45 47 53 51 50 49 50 47 44 45 41 43 48 50 48 49 48 38 35 28 35 38 35 39 40 37 31 31 32 38
54 51 50 52 53 52 54 47 43 46 38 41 45 46 47 46 46 51 51 48 48 45 38 39 38 43 46 48 49 45 44 35 36 38 40 39 39 38 38 34 36 33 38 35
52 50 50 51 53 53 51 47 46 45 43 47 46 41 44 47 47 49 46 46 46 46 41 42 38 42 41 42 44 40 41 32 32 32 36 36 33 37 37 37 36 36 37 36
52 50 49 50 52 54 50 46 47 49 38 40 38 38 46 48 49 49 50 49 45 39 46 48 47 48 47 44 41 39 38 30 29 26 32 31 28 34 35 36 39 38 34 41
53 49 49 52 52 52 51 48 47 41 34 32 40 46 47 47 47 47 49 49 42 49 51 49 46 44 41 41 41 43 32 28 28 24 32 23 39 43 44 39 41 43 40 40
53 50 50 52 52 52 51 48 49 41 33 36 41 46 46 46 47 45 47 48 48 49 45 35 31 31 32 32 38 36 37 32 29 29 29 32 40 42 37 36 36 42 38 41
52 52 52 52 52 52 52 49 47 45 37 39 48 45 45 37 35 37 42 47 48 45 31 30 23 24 30 32 35 37 36 30 27 28 26 24 36 40 43 41 30 40 43 45
51 52 52 51 51 52 53 50 49 48 38 45 47 41 42 43 38 38 36 42 40 41 30 28 23 27 33 28 24 24 27 29 31 31 27 29 39 42 45 31 33 43 43 44
51 51 52 51 51 52 53 50 51 49 39 44 49 50 46 43 41 36 41 40 36 36 33 29 29 20 29 29 33 30 31 25 22 26 25 23 41 42 36 42 43 45 45 42
50 51 51 51 51 51 52 50 51 50 46 47 48 50 51 51 51 45 39 42 40 37 33 33 29 26 29 31 30 35 31 36 33 35 31 41 46 46 48 48 43 41 39 41
50 50 50 51 52 52 52 49 48 46 37 44 46 47 52 55 54 54 42 35 45 40 41 33 32 28 31 32 33 30 39 42 35 37 41 43 47 49 47 44 42 41 41 40
49 49 50 50 51 51 52 49 47 46 40 34 41 49 49 53 53 51 52 49 46 43 38 34 33 33 41 34 39 36 40 42 38 37 44 44 44 41 42 42 42 42 42 42
49 50 50 49 51 51 50 49 49 50 47 36 37 45 49 50 51 49 48 48 45 40 37 34 35 35 36 34 35 35 41 39 34 37 44 42 44 44 45 42 42 43 42 40
49 49 50 50 50 51 49 45 47 49 51 39 35 42 41 45 47 47 45 46 44 42 40 35 39 44 39 33 35 41 46 48 48 44 49 47 44 44 44 42 42 42 41 40
48 49 49 49 50 52 49 44 46 49 48 36 35 35 36 41 43 41 42 43 41 41 40 37 37 38 42 33 36 43 45 45 47 48 45 39 40 40 44 44 44 42 41 40
48 49 49 49 49 49 47 47 49 50 44 39 34 35 34 41 35 34 39 35 38 41 40 37 35 37 35 34 40 42 44 45 42 40 40 39 43 44 43 41 39 37 35 35
49 49 49 48 46 42 44 48 48 47 44 37 33 34 33 41 37 35 33 36 33 37 33 34 36 33 34 38 37 38 39 38 38 38 39 40 38 37 38 37 36 34 33 32
48 47 43 36 39 47 48 45 40 39 37 37 33 36 34 41 34 33 34 33 32 32 33 36 32 33 40 39 38 37 37 38 39 35 36 35 34 34 34 35 35 34 32 32
43 38 35 42 47 43 38 34 34 35 33 34 34 34 35 39 34 33 33 32 32 23 25 31 28 27 33 35 35 36 37 38 38 37 37 38 38 36 34 33 34 32 31 31
44 43 44 42 40 35 35 32 32 32 30 33 32 34 36 34 39 33 32 29 29 24 28 27 20 27 33 34 34 35 36 36 37 38 37 37 36 35 33 32 32 31 30 25
43 39 35 37 33 31 30 26 29 29 32 33 33 32 33 34 34 31 29 24 22 24 22 20 23 31 33 33 35 36 35 34 32 34 34 34 33 32 28 29 30 28 28 30
34 31 31 30 28 30 30 30 24 28 33 33 33 31 31 29 28 27 20 22 22 22 15 16 23 31 33 33 33 33 34 29 28 32 32 29 28 28 28 25 26 24 26 29
31 29 25 28 28 30 32 32 33 33 34 33 32 30 28 26 22 25 20 21 19 21 17 17 25 32 33 33 34 33 29 26 27 32 28 26 26 25 27 29 27 25 24 25
30 26 21 27 30 29 31 32 32 34 33 31 28 21 20 18 18 15 18 16 14 17 15 21 26 32 33 33 31 31 31 30 31 31 29 29 25 25 29 29 27 26 25 25
23 20 29 22 21 24 25 32 32 35 32 27 23 16 18 19 11 13 19 14 17 18 21 24 29 32 33 32 31 29 29 30 29 30 29 29 28 25 23 24 30 28 27 25

GFSNW_sfc_temp_003.txt.gz
Temp
54 54 54 52 53 53 56 52 50 58 58 50 43 45 52 52 54 56 54 53 51 49 48 47 47 46 50 52 54 49 49 43 39 45 50 52 50 47 45 38 34 37 34 38
54 54 51 51 54 53 55 52 52 57 58 41 37 50 51 53 53 51 52 51 52 51 47 43 48 49 52 51 53 50 50 41 36 41 47 50 47 47 44 41 38 36 31 39
54 51 51 52 53 53 53 51 44 49 49 48 48 47 48 49 53 52 51 51 52 49 46 47 46 47 52 52 52 48 50 42 40 37 41 45 40 43 44 43 36 38 39 43
52 50 50 50 53 52 54 49 45 48 41 45 48 49 50 48 48 53 53 51 50 48 41 44 44 48 50 51 50 49 48 40 41 42 44 43 42 42 42 40 42 36 42 43
50 50 50 51 52 52 51 49 48 46 44 48 48 43 48 48 49 51 49 48 49 50 45 47 44 48 47 47 50 47 45 39 38 35 39 39 35 41 41 41 42 41 42 41
50 50 50 51 52 53 52 47 49 50 39 42 42 42 49 50 51 50 53 51 48 44 50 52 54 52 49 50 48 43 42 37 34 32 35 35 33 40 41 43 45 45 39 48
52 50 50 52 52 52 52 49 49 44 37 36 42 48 50 49 50 49 51 52 45 52 54 53 49 46 45 46 44 46 34 34 33 32 34 28 45 48 48 45 46 47 46 47
53 52 51 51 52 52 52 49 50 44 34 38 43 47 47 49 49 47 50 50 50 53 48 39 35 36 36 36 39 40 41 35 32 30 32 36 43 47 44 42 44 47 46 48
52 52 51 51 51 52 52 50 48 47 38 41 49 47 48 41 41 42 45 50 49 48 37 35 32 33 34 38 39 39 38 35 35 31 28 27 40 47 49 48 37 48 49 48
51 51 51 51 51 52 54 51 50 50 40 47 50 45 45 46 43 42 41 46 43 46 35 32 33 35 37 34 29 29 31 31 31 32 30 35 44 46 48 34 36 44 48 48
51 51 51 51 51 51 54 51 51 51 42 47 51 52 47 46 45 40 44 43 40 38 34 33 33 32 36 35 38 35 36 32 29 29 28 26 46 46 39 44 44 46 46 44
50 50 50 51 51 51 53 52 51 50 48 50 50 53 55 55 53 46 42 46 42 41 36 34 33 32 29 33 33 40 34 39 36 36 37 46 48 48 49 46 44 42 41 41
50 50 50 50 51 52 52 50 49 47 39 45 49 50 54 56 56 56 45 40 47 43 45 38 35 34 35 32 32 34 41 44 38 38 45 47 49 48 46 44 44 43 44 42
49 49 49 50 51 51 52 50 48 47 40 34 43 50 51 55 56 55 54 49 46 44 41 35 34 33 42 35 41 39 44 43 39 38 46 46 46 46 48 43 44 43 44 45
50 49 49 49 51 51 50 50 50 50 49 37 38 47 50 51 53 52 51 50 45 42 38 34 35 38 38 36 35 35 43 42 38 38 46 44 44 45 45 43 43 44 44 43
49 49 49 50 50 50 50 46 49 50 51 39 36 44 43 47 50 50 48 48 46 44 41 36 40 45 41 33 33 43 47 50 50 45 47 43 43 45 46 44 45 45 45 45
49 49 49 49 49 52 49 45 48 49 49 37 35 36 40 43 44 42 43 44 44 44 42 37 38 40 42 33 34 45 47 48 48 47 44 40 42 41 45 46 46 45 45 45
48 49 49 49 49 50 48 49 49 49 45 40 34 35 35 43 36 36 40 38 40 42 41 38 37 38 37 34 42 43 44 46 42 41 43 43 44 44 44 45 44 41 41 41
49 48 49 49 47 43 45 48 49 48 45 37 34 34 34 41 37 36 36 37 34 39 34 35 37 35 34 37 38 39 40 41 39 41 41 42 41 42 42 41 41 39 40 40
49 47 44 36 40 47 48 45 41 38 38 38 34 37 35 42 35 34 35 34 33 33 34 37 32 33 39 39 40 40 40 41 41 38 38 39 39 39 39 39 40 39 38 38
43 38 36 42 47 43 39 34 35 35 33 35 35 34 35 39 35 33 33 32 32 29 31 32 31 31 35 38 38 39 40 41 41 42 41 40 38 37 37 37 37 36 35 34
44 43 44 42 41 36 34 32 32 33 32 33 33 34 36 34 39 33 32 30 30 23 31 30 27 32 36 38 39 39 39 40 40 41 39 38 38 38 36 35 35 34 33 31
44 40 35 38 33 32 31 29 30 31 33 33 33 32 34 34 35 32 30 26 26 28 26 25 29 35 36 37 38 38 39 38 36 38 38 37 37 36 32 31 32 30 31 32
35 34 31 31 30 31 27 27 28 31 33 33 33 31 32 30 29 28 26 25 25 23 20 22 29 34 36 36 36 38 38 30 30 34 35 32 30 30 30 27 28 27 28 31
32 32 27 29 29 32 33 33 33 33 34 33 32 31 32 26 25 25 23 23 21 23 23 26 30 34 35 36 37 37 32 28 29 35 32 29 28 28 29 31 30 30 27 27
31 27 26 28 28 29 32 32 32 34 32 31 31 25 26 24 24 22 19 20 19 24 24 28 31 34 34 35 34 34 34 32 33 33 32 31 28 27 31 30 29 28 27 27
25 22 26 25 25 29 31 32 33 35 32 27 26 24 24 23 19 19 22 19 24 25 27 29 31 34 35 35 33 30 31 32 32 33 32 31 31 27 26 27 33 32 31 30

GFSNW_sfc_temp_006.txt.gz
Temp
54 53 51 53 53 54 64 68 64 69 69 65 64 61 62 56 62 65 63 63 60 58 56 55 54 53 57 60 61 55 57 53 49 52 57 59 58 54 53 45 40 45 42 45
53 50 51 52 53 54 72 70 68 71 69 55 53 60 59 61 62 60 61 59 61 61 56 51 55 56 58 60 60 57 58 51 46 49 53 57 54 55 54 50 47 41 36 47
51 50 50 51 53 53 71 69 57 66 69 65 63 60 58 57 62 60 62 59 62 59 56 58 53 54 57 58 59 48 55 53 48 45 49 53 49 52 54 51 41 44 45 50
50 50 51 52 53 53 69 68 60 60 55 58 63 62 60 58 56 61 62 60 60 58 51 53 52 56 56 57 53 57 57 47 50 52 53 53 51 50 52 50 49 42 47 51
50 50 51 52 52 53 68 65 62 62 59 60 62 53 59 59 57 60 58 58 59 61 55 56 52 56 56 55 57 56 55 46 44 43 49 51 47 51 52 51 52 51 51 50
50 50 51 52 52 56 69 62 63 68 48 56 58 57 60 60 61 58 63 62 60 53 60 63 61 61 60 58 55 51 50 46 41 37 44 43 37 46 51 52 53 52 45 54
51 50 52 52 52 56 69 65 67 60 50 55 59 59 61 60 60 58 60 63 56 59 63 62 61 58 56 56 53 54 40 43 38 35 36 31 48 57 56 52 54 57 56 55
53 52 52 51 52 52 66 63 66 59 38 57 55 59 59 59 60 58 59 58 58 64 61 51 40 45 38 42 49 49 51 44 35 32 36 44 49 53 51 49 49 55 53 54
52 51 51 51 51 52 65 61 61 63 44 52 61 59 61 56 55 55 53 57 60 60 51 45 36 41 43 45 46 46 46 44 41 35 30 30 48 53 56 55 43 53 51 47
52 52 51 51 51 52 65 61 59 66 54 59 60 59 58 60 58 56 55 55 51 57 42 37 39 42 46 43 36 36 36 35 34 35 32 41 54 54 55 36 41 50 46 45
52 52 51 51 51 52 62 59 59 63 55 59 60 60 58 58 62 53 54 54 51 46 38 36 40 36 45 44 48 44 42 38 34 35 30 29 54 53 40 50 49 45 46 48
51 51 51 51 51 51 56 64 59 59 62 59 59 61 62 63 67 61 55 56 55 56 45 40 38 34 34 40 38 51 42 47 45 43 45 57 59 54 55 50 47 50 47 50
50 51 51 51 52 52 56 63 60 62 52 57 60 59 62 65 65 68 57 54 58 55 56 49 41 35 45 34 39 41 52 54 45 44 51 55 56 58 54 51 47 47 47 50
49 50 50 50 52 52 54 60 59 59 51 37 53 58 59 62 64 65 65 60 56 56 55 39 37 38 52 39 49 47 53 53 48 45 52 54 55 52 49 48 46 46 51 51
48 49 49 50 51 51 58 60 59 60 60 45 51 56 57 60 62 63 63 61 57 50 42 36 39 46 46 44 42 43 55 51 42 38 49 49 47 47 49 46 47 51 49 50
49 49 50 50 51 51 62 58 60 60 61 49 42 55 53 56 60 59 59 60 56 55 47 41 47 54 50 35 36 48 56 58 54 48 49 49 48 47 51 50 50 51 51 52
49 49 49 50 50 59 57 56 56 53 60 45 42 45 50 51 54 53 56 54 55 51 48 43 46 49 49 36 35 51 52 52 51 50 47 45 49 48 50 50 51 52 53 53
48 49 49 49 49 51 53 56 52 55 52 47 39 38 43 50 43 40 46 43 47 47 47 41 43 45 43 36 49 49 49 46 47 47 50 50 50 50 51 53 52 49 49 50
49 48 49 50 48 45 48 49 51 54 54 43 36 36 36 48 41 41 41 45 38 44 37 38 41 37 35 43 45 43 44 45 44 49 50 50 48 49 50 49 49 47 46 47
49 49 45 37 42 48 49 47 45 42 41 42 37 46 40 48 38 37 38 39 37 35 36 40 33 34 42 44 45 45 46 48 48 44 42 45 45 46 46 46 46 46 45 43
44 39 36 43 47 45 42 36 36 36 34 37 36 36 36 41 38 36 36 33 34 33 36 35 35 37 42 45 46 47 49 50 49 49 48 48 47 45 44 43 43 42 41 40
44 44 45 43 41 36 35 33 32 33 34 34 34 35 38 35 41 36 33 33 33 31 40 32 32 43 44 45 45 47 48 48 47 48 47 47 45 45 43 42 41 40 38 34
45 40 34 36 34 32 32 31 32 32 35 35 35 33 36 36 37 33 35 31 31 37 30 32 40 43 45 46 46 46 48 46 42 46 47 46 45 43 39 36 37 34 36 37
37 34 32 33 32 34 35 36 36 35 36 36 35 33 35 33 31 33 31 31 34 28 26 30 39 43 45 45 44 45 44 38 38 42 43 38 36 36 35 33 33 32 33 35
35 36 31 32 32 35 34 35 36 35 37 37 34 33 38 32 30 31 29 26 27 31 31 38 42 43 43 42 42 43 40 35 36 42 38 34 34 34 35 36 35 35 33 32
36 33 31 32 32 32 33 33 33 36 34 35 37 33 31 29 31 27 28 28 28 33 36 40 42 41 40 41 41 41 42 39 40 40 39 38 34 33 37 36 34 33 33 32
33 31 33 32 33 34 34 36 35 37 35 32 34 30 29 29 28 27 31 29 34 37 39 41 40 40 41 42 41 36 37 38 39 40 39 38 37 34 33 33 38 36 35 33

GFSNW_sfc_temp_009.txt.gz
Temp
53 51 51 53 54 55 59 74 68 76 77 69 71 64 67 60 68 71 68 69 67 64 63 60 60 59 62 66 66 60 62 59 51 58 63 65 63 59 58 47 45 49 45 47
51 51 51 52 53 54 81 75 72 77 75 59 59 66 64 68 67 67 67 64 67 68 63 56 61 61 63 64 64 60 63 56 49 54 58 62 58 60 59 55 50 44 39 47
51 51 51 52 53 54 72 75 61 71 74 74 68 64 64 61 68 66 68 66 68 65 61 64 59 59 61 63 64 51 57 58 52 47 53 59 54 57 60 56 45 46 48 53
51 51 51 53 53 54 72 77 67 69 60 64 69 69 67 63 61 67 70 64 65 63 56 59 58 62 60 62 52 61 61 50 55 56 59 59 57 56 57 55 55 46 50 54
51 51 52 53 53 53 77 72 68 71 68 69 67 59 64 64 64 66 63 63 66 66 58 61 57 61 61 59 61 60 60 49 49 47 57 57 52 56 58 58 57 56 56 54
51 51 53 52 52 55 78 75 74 73 55 66 63 63 65 66 66 63 70 68 65 59 64 67 67 66 65 63 60 55 54 50 46 40 49 46 38 51 56 57 59 56 48 56
51 53 52 52 52 54 77 74 77 64 56 62 65 66 67 66 66 63 68 70 61 64 71 69 66 64 62 62 59 61 49 48 42 36 38 32 53 63 61 57 58 61 61 61
53 52 52 52 52 53 75 73 74 64 43 65 64 66 67 65 66 64 64 63 67 71 66 55 45 46 39 46 56 56 58 49 38 34 39 47 53 55 54 51 51 61 57 57
53 52 52 52 52 53 72 68 69 71 48 56 69 66 66 61 59 59 58 63 68 67 56 48 37 43 49 48 50 54 52 50 45 37 32 32 50 59 61 59 44 57 55 53
52 52 52 52 52 53 68 69 66 73 59 67 69 63 63 69 65 61 60 60 57 64 45 40 40 46 53 46 39 36 38 38 37 37 34 43 57 58 60 40 43 55 53 50
52 52 52 51 52 52 63 68 67 68 62 63 66 68 65 65 67 55 61 58 57 54 39 40 44 38 49 48 54 47 43 38 34 38 33 32 59 57 44 54 57 54 50 49
52 52 52 52 52 52 54 72 69 69 69 64 66 66 68 68 72 68 62 62 60 60 52 45 44 37 38 43 42 59 46 51 47 47 47 60 59 56 59 58 53 51 47 48
51 52 54 52 52 52 55 72 70 72 58 64 65 64 66 72 71 74 61 62 67 63 66 52 44 35 48 36 44 50 57 63 50 48 55 58 57 59 57 55 51 49 48 53
50 51 51 52 52 52 53 70 68 69 58 40 59 66 65 67 70 71 71 68 65 65 62 43 39 39 58 43 52 52 56 58 53 51 57 58 60 54 54 52 52 51 56 55
49 49 49 50 53 53 64 69 68 68 64 48 54 62 63 66 67 67 68 66 62 58 45 38 41 53 53 50 46 48 58 55 48 45 56 52 52 54 54 53 52 55 54 54
48 50 50 51 51 52 68 63 68 68 67 53 45 60 59 63 65 64 64 65 64 62 53 43 55 62 54 37 40 55 60 62 63 56 57 53 50 51 54 55 54 55 54 55
49 49 50 50 50 62 60 60 60 55 68 50 44 50 55 58 61 62 61 61 60 58 52 47 49 53 54 41 40 55 59 60 58 56 52 43 48 49 55 54 55 54 56 56
48 49 49 49 49 51 57 62 55 58 63 55 43 42 46 56 49 45 55 50 50 53 54 45 45 53 46 39 52 58 59 55 51 50 50 47 50 55 55 56 56 53 53 53
48 49 49 52 51 50 56 50 54 63 59 48 37 37 37 54 46 45 45 48 39 49 39 42 46 40 38 48 53 54 53 51 46 49 53 54 52 52 53 53 52 50 50 50
48 49 46 39 44 48 50 55 50 46 48 50 39 50 40 53 41 38 39 40 38 35 38 41 34 35 48 53 53 55 53 54 53 49 47 49 48 50 50 50 51 50 48 46
45 40 37 44 48 47 44 38 38 40 36 40 43 43 41 49 40 37 39 36 35 34 36 36 36 38 48 52 50 52 53 54 54 54 53 52 50 49 48 48 47 45 45 43
44 44 46 44 41 37 38 34 34 35 36 36 35 38 44 39 43 36 33 33 34 33 44 34 33 46 50 50 50 51 53 53 52 52 51 51 50 50 47 45 44 44 41 36
45 38 34 35 33 31 32 30 33 33 34 34 34 33 35 36 38 33 34 32 33 41 32 34 43 50 50 51 51 51 52 50 46 50 51 50 49 47 42 40 41 36 40 41
36 33 32 33 32 33 34 35 35 36 36 35 34 33 34 34 34 34 32 33 37 30 29 32 46 47 50 51 50 50 48 39 42 45 46 44 40 39 37 35 35 34 35 38
35 36 31 32 34 34 34 35 36 36 39 37 38 37 40 34 32 34 32 29 29 33 35 41 47 48 48 46 45 46 43 36 39 46 43 36 36 36 38 39 38 39 34 34
38 34 32 34 34 33 33 33 33 38 38 39 40 35 33 32 33 30 30 30 31 36 40 45 46 44 44 44 45 45 45 44 44 44 44 42 37 34 39 40 36 34 34 33
35 32 36 35 35 34 33 36 36 40 37 33 35 31 30 32 31 30 37 32 37 40 42 46 45 44 45 46 45 38 41 43 43 43 43 43 41 38 36 34 41 42 39 34

GFSNW_sfc_temp_012.txt.gz
Temp
52 51 52 53 54 55 61 73 63 75 77 66 68 64 68 60 69 72 70 71 69 66 65 62 62 60 62 68 68 61 62 59 49 58 65 67 64 59 59 44 44 46 43 45
51 51 52 53 53 53 74 70 69 76 75 58 60 67 68 71 69 70 69 66 69 70 64 57 62 60 64 66 64 58 61 56 46 52 58 63 59 61 60 56 47 41 37 44
51 51 52 53 53 54 69 73 60 69 71 73 67 64 63 62 71 68 71 68 69 66 62 66 60 58 62 64 62 53 57 59 52 45 52 59 54 58 60 57 42 43 45 50
51 51 52 53 53 54 69 73 66 70 59 63 68 69 68 63 61 70 71 66 67 64 57 60 59 62 60 63 54 61 61 51 54 55 57 58 56 56 57 54 54 44 49 53
50 51 53 53 53 51 71 68 68 71 69 69 68 60 65 65 67 66 65 64 67 67 59 61 58 62 62 60 62 61 61 48 48 46 57 55 50 54 55 56 57 56 55 53
51 53 53 53 53 56 75 75 76 73 58 67 64 63 66 67 68 66 72 70 66 57 63 66 66 66 66 64 60 57 54 48 44 39 47 45 38 49 55 57 59 56 47 56
55 53 53 52 52 53 72 74 76 63 57 64 65 68 70 68 66 64 70 71 60 65 71 68 66 64 62 64 61 62 48 46 41 36 38 33 54 61 61 56 59 61 60 59
54 53 52 52 52 53 73 74 72 63 41 64 67 67 68 68 67 66 63 65 69 71 67 53 45 44 40 48 58 58 59 47 36 34 37 45 51 56 53 50 49 59 56 55
53 53 52 52 52 53 72 67 68 70 50 59 70 67 67 61 61 59 59 66 71 68 54 45 38 41 50 46 49 56 54 50 43 35 32 31 49 59 61 59 41 56 54 52
53 53 52 52 52 53 64 67 67 68 60 69 68 65 63 68 63 58 59 59 57 66 45 37 40 45 55 44 39 36 37 39 36 36 34 40 56 59 60 40 41 54 53 51
53 53 52 52 52 53 61 67 69 66 60 64 69 70 68 68 66 54 61 58 58 52 39 39 44 39 46 47 53 42 38 36 34 37 33 32 60 57 44 52 56 55 53 50
53 54 52 52 52 52 54 69 70 70 66 63 68 67 68 67 67 67 63 62 59 58 49 46 45 36 38 41 42 60 46 49 45 45 43 58 61 56 57 54 51 49 50 49
52 53 53 52 52 53 55 70 69 71 60 63 64 63 68 72 70 72 59 61 67 63 65 50 43 34 46 35 43 49 58 62 48 48 55 58 59 59 57 56 53 53 53 53
51 52 53 52 52 53 53 68 68 68 57 39 58 68 66 69 72 72 71 68 66 65 58 41 38 37 56 43 49 49 54 58 53 51 57 59 57 56 54 53 53 53 55 56
49 49 49 50 53 53 61 69 68 68 62 46 55 64 66 68 69 69 69 66 62 56 44 37 39 51 51 48 46 46 56 53 47 44 56 53 53 53 53 52 51 53 54 53
49 50 50 51 50 51 66 61 67 68 67 52 43 61 61 64 66 66 65 65 63 61 50 43 52 60 52 38 40 54 60 62 62 55 59 56 53 53 54 53 53 55 54 54
48 49 50 50 50 62 58 57 57 54 64 50 43 48 57 59 63 62 62 62 59 59 55 48 48 52 54 38 38 54 59 61 62 58 54 48 50 46 53 55 55 54 56 55
49 49 49 50 49 52 57 60 56 56 62 55 43 43 46 58 50 46 55 48 51 51 52 46 46 52 43 38 51 56 59 60 55 53 53 51 51 52 55 56 55 52 52 51
49 49 49 55 54 54 58 50 52 64 58 48 37 37 37 56 44 43 45 48 38 50 38 42 45 41 37 47 52 55 58 53 51 52 51 51 51 53 53 53 52 49 48 48
48 50 46 40 44 49 50 57 53 50 53 50 39 50 41 52 41 38 39 39 38 35 39 42 35 37 50 55 57 57 55 55 52 48 47 50 49 50 50 50 50 49 46 44
46 40 37 44 48 50 46 41 42 42 37 42 43 46 41 49 39 37 39 35 36 34 36 37 35 35 46 53 54 54 55 55 54 54 54 53 51 49 48 47 44 41 41 40
44 44 45 44 41 36 37 35 35 35 39 38 35 39 45 41 48 40 35 34 33 32 40 33 33 44 52 52 50 52 53 54 53 54 52 51 50 50 45 43 41 40 37 34
44 39 35 36 32 32 32 31 32 33 34 35 35 34 36 37 39 33 33 32 32 37 33 33 40 48 50 51 51 51 51 46 47 51 51 49 47 44 39 37 38 35 37 38
36 33 32 32 32 33 33 33 33 34 34 34 34 33 34 33 33 32 32 33 35 31 30 32 42 47 50 51 50 50 45 37 40 42 43 40 38 37 35 33 33 32 34 36
36 35 31 32 33 34 33 33 34 34 36 35 34 34 36 33 32 33 32 30 29 32 32 36 42 44 45 43 46 42 39 34 36 43 39 34 34 35 36 37 36 37 33 32
39 35 33 34 33 33 32 32 33 37 35 37 37 33 32 32 33 31 31 30 29 33 37 41 42 41 41 41 42 42 43 41 41 41 40 38 35 33 38 38 35 34 33 32
33 34 36 35 34 33 33 35 35 40 35 33 34 32 29 33 31 30 33 31 35 38 40 40 41 40 41 43 42 36 38 40 41 41 40 40 38 35 35 34 38 38 36 33

GFSNW_sfc_temp_015.txt.gz
Temp
50 51 52 53 54 55 59 57 50 63 64 52 51 49 61 58 64 66 65 63 63 59 59 56 55 52 56 61 59 54 54 48 36 50 58 60 56 52 51 32 35 32 30 35
51 51 52 53 53 54 59 55 55 64 62 42 41 58 63 64 63 63 62 61 62 63 56 50 54 53 58 59 55 50 52 46 33 42 50 56 52 55 54 46 36 34 24 32
50 51 51 53 53 55 59 56 46 54 55 57 55 59 57 57 65 63 65 63 62 59 55 58 51 52 57 57 56 51 52 51 42 33 43 49 45 51 52 45 30 33 34 43
50 51 53 53 53 55 62 57 52 55 44 50 54 58 59 57 55 62 63 59 60 57 47 52 50 53 54 56 53 54 52 41 45 48 50 51 49 48 49 46 45 35 40 45
50 52 53 52 52 53 59 56 56 57 54 57 55 52 57 57 60 60 58 56 60 58 51 51 49 54 52 51 54 52 52 36 37 37 48 47 43 46 47 48 49 48 48 46
51 54 53 52 52 53 58 61 61 57 50 53 49 51 57 59 59 59 63 60 53 47 54 55 55 55 55 55 52 48 45 37 32 30 40 37 30 41 48 50 51 48 37 46
54 53 52 52 52 52 59 58 58 49 42 49 54 61 61 59 60 56 58 58 51 57 60 56 53 52 53 55 53 54 40 36 31 25 29 22 45 54 52 49 50 51 50 48
53 52 52 52 52 53 59 58 58 48 36 52 57 59 59 59 56 54 55 58 60 60 55 40 38 35 37 43 52 50 49 35 27 27 26 36 46 50 46 43 42 49 46 47
52 52 52 52 52 53 60 56 57 54 42 46 63 57 57 48 47 48 52 59 59 57 39 34 30 29 38 37 44 47 46 39 31 25 20 18 39 51 55 51 31 49 48 44
52 52 52 52 52 53 57 57 59 57 46 55 57 52 52 56 51 45 50 50 49 52 35 34 30 32 45 34 32 28 29 30 25 31 19 31 46 54 54 33 34 46 46 44
53 52 52 52 52 52 57 57 59 57 48 53 58 58 56 56 51 41 49 45 44 36 35 31 32 29 34 36 42 35 31 27 29 33 28 23 52 51 39 43 46 47 45 44
54 52 52 52 52 52 53 56 61 61 55 53 58 58 59 59 58 53 52 49 49 46 37 35 35 33 35 33 30 47 35 38 33 36 33 46 52 49 50 49 46 44 45 47
52 53 51 51 52 52 53 57 57 58 48 51 53 53 60 64 61 62 50 48 56 52 50 41 40 31 38 29 33 37 47 51 36 39 47 50 52 50 51 49 46 47 49 50
51 52 50 49 51 52 53 56 57 54 47 36 47 62 57 63 63 63 61 58 56 53 45 38 37 32 45 34 39 36 44 49 46 40 48 49 49 48 48 48 50 51 51 52
48 49 49 50 49 51 54 57 57 57 52 39 41 56 60 63 61 60 60 56 52 45 39 35 34 35 39 34 35 33 48 45 37 35 47 46 44 47 50 50 49 51 52 50
49 50 50 50 50 50 55 51 55 55 56 44 36 51 53 57 58 57 56 55 52 49 40 35 42 51 41 34 32 46 53 55 54 46 50 48 47 49 52 48 50 53 51 49
49 50 50 50 50 53 50 49 51 50 53 41 37 41 48 52 54 49 50 52 48 48 42 39 37 40 45 34 34 46 52 55 51 50 48 43 47 45 51 51 51 51 51 47
48 49 49 51 49 49 51 52 52 50 51 45 37 39 38 51 39 39 45 39 43 46 43 40 37 39 36 34 43 49 54 54 49 47 48 47 47 50 50 52 49 46 43 43
49 49 50 53 50 46 50 50 49 55 50 39 34 34 34 46 40 39 38 42 35 42 35 37 40 35 35 41 45 48 50 47 45 47 48 48 47 48 48 46 44 42 40 40
49 50 47 39 43 48 49 51 43 41 40 43 36 41 36 43 36 35 36 34 34 33 35 39 33 35 41 46 49 49 48 49 50 44 43 45 44 43 43 42 42 41 39 38
46 40 37 43 48 47 42 37 38 39 35 39 39 38 37 42 35 34 35 33 34 32 32 34 32 32 39 46 46 49 50 50 50 50 48 48 45 42 41 39 37 36 35 35
44 43 45 43 40 36 36 34 34 35 35 35 35 36 39 37 42 34 34 34 33 29 36 32 30 34 43 45 45 48 49 50 49 49 47 46 44 41 38 37 36 35 34 28
43 39 35 37 32 32 32 31 32 32 33 34 34 33 34 36 37 33 33 32 31 34 32 29 30 43 44 45 43 43 44 41 42 44 43 42 41 40 36 33 34 29 32 33
35 33 31 32 31 31 31 31 32 33 33 33 33 32 33 32 33 32 31 31 32 29 26 23 34 41 42 43 43 42 39 36 37 38 39 37 34 32 30 28 28 24 29 32
34 34 30 30 32 32 32 32 32 33 35 34 33 33 34 32 31 31 30 28 27 28 28 31 34 37 39 38 39 36 35 32 34 37 35 30 29 30 32 32 31 32 27 30
35 34 31 32 32 32 32 32 32 35 33 34 34 32 32 30 30 28 29 28 27 30 32 33 35 36 36 37 37 37 37 36 36 36 36 34 29 27 34 33 30 29 30 29
33 32 34 33 33 32 32 33 33 37 34 32 32 30 27 30 28 28 31 29 31 32 32 32 36 36 36 37 37 34 35 36 35 35 35 35 34 29 29 30 34 33 32 29

GFSNW_sfc_temp_018.txt.gz
Temp
50 51 53 53 54 54 57 53 48 60 61 50 45 46 57 58 61 64 61 59 57 56 54 51 49 49 52 56 54 50 51 44 35 46 55 56 52 48 46 31 35 30 28 33
50 50 52 53 53 54 55 52 52 60 59 39 37 52 59 61 59 59 59 57 59 58 53 46 50 50 54 55 53 48 50 43 32 40 47 52 49 51 49 42 34 34 24 31
50 51 52 53 53 55 56 53 44 50 52 51 51 51 53 54 60 59 61 59 60 56 52 53 48 48 54 55 53 50 51 45 40 34 40 45 42 46 47 42 29 32 32 40
50 51 53 53 53 54 57 53 48 52 42 47 50 54 56 53 53 59 60 57 57 54 45 48 46 50 51 54 52 52 49 39 42 44 46 46 44 44 44 43 41 34 39 40
50 53 53 52 52 55 56 53 53 51 48 54 52 49 53 54 56 56 54 53 55 54 48 50 46 50 48 48 50 48 48 35 37 37 44 43 40 43 43 44 45 44 44 39
52 53 52 52 52 55 59 56 56 54 45 48 47 48 54 55 57 56 59 54 49 45 50 51 50 51 52 52 49 44 42 35 31 30 36 36 30 41 44 46 46 45 37 42
53 52 52 51 52 54 61 58 55 48 41 46 50 56 58 55 55 52 55 55 49 54 57 53 52 50 50 51 49 50 37 33 28 25 27 21 42 50 50 46 45 45 44 44
52 52 51 51 52 52 57 56 55 47 35 47 53 55 52 53 52 51 52 53 55 56 51 38 37 34 37 40 46 45 45 32 26 23 25 34 43 47 45 43 41 46 44 44
51 51 51 51 52 53 55 53 55 51 41 44 55 52 53 46 44 45 49 56 56 50 35 32 29 28 35 35 41 45 42 35 29 27 20 19 37 48 52 49 32 46 45 43
51 51 51 51 52 53 56 54 56 54 45 51 53 49 50 51 46 43 46 48 47 48 28 30 26 31 41 32 31 28 28 26 24 17 17 29 42 50 51 32 35 45 44 43
51 51 51 51 52 52 57 54 56 55 46 50 54 55 53 51 48 41 47 45 42 35 32 29 32 26 34 34 39 34 31 27 25 26 17 24 47 48 39 42 43 45 43 43
51 50 50 50 51 52 55 54 57 57 52 52 55 56 56 55 56 50 47 48 45 43 35 34 36 28 33 31 30 43 36 37 32 35 34 45 48 48 48 47 44 43 43 44
51 49 48 49 50 52 55 54 54 53 44 49 51 52 58 62 58 59 48 44 53 48 46 38 33 30 34 30 32 35 44 47 35 38 46 46 49 47 48 46 44 45 46 45
49 48 48 49 49 50 54 53 53 50 44 35 45 58 55 62 61 61 58 55 51 47 43 36 34 30 41 31 37 34 41 46 43 37 45 44 46 45 45 45 46 48 51 50
49 49 50 50 50 50 54 53 52 53 50 39 39 53 57 59 59 57 56 53 50 43 37 34 34 32 36 34 32 32 45 44 37 37 46 46 44 45 47 46 47 51 50 48
49 50 50 50 50 51 54 48 53 51 52 42 36 46 49 53 56 55 54 52 49 45 39 35 38 46 38 34 34 42 48 52 51 46 49 48 46 46 49 47 50 51 49 46
48 50 50 49 49 51 50 48 50 50 51 40 36 36 46 49 50 46 47 47 46 45 38 36 35 37 42 34 33 44 49 52 50 48 47 43 44 43 49 52 50 46 45 43
49 50 50 50 49 51 50 50 50 50 47 42 35 33 37 48 37 37 43 38 42 42 41 39 36 37 35 35 41 46 51 52 47 46 45 45 46 49 50 49 46 43 40 40
49 49 51 50 48 44 49 48 48 52 48 38 33 34 34 43 39 37 36 40 34 39 36 36 39 35 35 41 44 46 47 46 44 44 46 48 48 48 45 44 42 40 38 38
49 49 44 42 43 48 48 47 42 40 41 40 34 38 35 41 34 34 34 34 34 34 35 39 33 35 41 42 45 47 47 46 46 43 42 44 41 42 41 41 41 40 38 37
46 41 37 43 48 45 41 37 37 38 35 38 38 37 36 39 35 34 34 33 33 32 31 33 28 32 36 43 44 45 46 48 47 48 46 44 42 41 39 38 36 36 35 35
44 44 45 44 41 37 37 34 34 34 34 35 35 35 39 36 39 35 34 32 33 29 35 32 29 35 41 40 42 44 46 45 43 43 42 42 42 41 37 36 35 35 33 27
44 40 35 38 33 33 33 33 32 32 33 34 34 34 34 36 37 33 33 32 31 34 32 30 32 41 42 41 41 40 41 40 40 42 41 41 40 39 36 33 34 28 31 33
35 34 31 32 30 30 30 31 32 32 32 33 33 32 33 32 33 32 31 31 32 29 26 23 33 37 39 41 40 41 39 34 37 37 37 37 34 33 30 28 27 23 27 31
34 32 29 28 31 32 32 32 32 33 34 33 33 33 34 32 31 31 30 28 26 28 27 31 33 35 37 36 37 35 34 32 34 35 34 30 29 28 31 30 30 31 26 25
34 33 31 32 32 32 32 32 32 35 33 34 33 32 31 29 29 28 28 27 25 29 32 32 34 35 35 35 36 35 36 36 36 35 35 34 28 25 32 32 29 26 25 26
33 31 33 33 32 32 32 33 33 36 33 31 31 23 25 29 27 27 30 28 31 33 33 33 34 35 35 36 36 33 35 35 35 35 34 34 33 27 27 29 34 32 32 28

GFSNW_sfc_temp_021.txt.gz
Temp
50 50 52 53 54 54 56 51 46 58 58 48 42 44 53 56 57 62 59 57 55 52 51 48 47 47 49 53 52 48 48 42 34 43 52 53 49 45 43 30 34 28 27 32
50 50 53 53 53 56 54 49 50 58 57 38 36 49 56 57 56 57 56 54 55 55 49 45 47 48 52 52 51 47 48 41 32 39 46 49 45 47 43 39 33 32 23 31
50 50 52 53 53 54 55 50 43 49 50 47 48 48 50 52 58 57 57 55 56 52 49 49 45 46 51 51 51 50 50 43 38 34 38 42 40 43 43 40 29 31 31 36
50 50 53 53 53 53 56 50 46 49 41 45 47 51 52 51 50 56 57 54 54 51 43 45 43 47 48 51 50 49 47 39 40 40 42 43 42 42 42 40 39 34 37 38
50 52 53 52 53 53 54 50 48 47 45 50 49 46 50 52 53 54 51 52 51 51 47 49 44 48 46 45 48 45 45 34 36 35 41 40 38 42 41 41 41 40 40 38
52 53 51 51 53 56 53 52 52 51 43 45 45 45 52 54 54 53 54 53 48 44 47 49 48 48 49 50 47 42 39 34 32 29 34 35 30 38 42 43 44 43 35 41
53 52 51 51 53 54 57 54 52 46 38 44 47 53 54 53 53 51 51 52 48 52 53 51 51 48 47 48 45 47 36 31 26 24 27 21 41 46 47 44 44 43 41 42
52 51 51 51 52 54 59 53 53 45 35 45 50 51 50 50 50 48 49 51 52 53 48 38 38 34 37 39 43 42 42 31 26 23 25 34 41 45 42 41 40 44 42 42
51 50 51 51 52 54 57 53 52 49 43 45 54 49 50 44 42 45 47 52 52 48 34 32 29 29 35 34 38 42 39 34 29 25 20 20 37 44 49 47 33 44 44 41
50 50 50 51 51 54 57 54 53 52 44 49 51 48 48 48 44 41 45 47 45 46 28 25 26 31 39 32 30 27 28 24 24 15 18 29 41 47 48 34 35 43 44 43
50 50 50 50 51 53 56 53 54 54 44 48 52 53 50 48 46 40 46 44 41 34 32 28 28 24 32 32 37 33 31 28 24 25 18 26 46 45 39 43 41 45 43 43
50 47 48 49 50 52 55 54 55 54 50 50 53 54 54 53 54 48 45 47 44 42 34 29 31 25 33 30 29 40 33 36 32 34 34 44 45 44 46 46 44 43 43 43
47 48 48 49 50 52 55 52 52 51 44 48 50 50 56 59 56 56 47 42 49 45 43 37 35 28 31 29 31 33 41 44 34 37 44 44 46 47 46 45 45 43 44 45
48 48 49 49 50 53 54 52 50 48 42 36 44 55 54 59 58 57 56 52 48 45 41 34 33 29 39 30 36 34 40 43 40 35 42 43 47 46 46 45 44 46 47 47
49 49 49 49 50 52 54 51 50 51 50 38 38 51 54 55 56 54 54 52 48 41 36 33 34 32 35 34 32 32 43 42 35 37 45 44 45 46 45 44 44 47 48 46
50 49 49 49 51 53 52 47 51 50 49 42 36 45 48 51 52 51 51 50 46 43 39 35 36 42 37 34 34 42 46 48 48 45 47 46 44 44 46 46 47 48 47 46
49 49 49 49 51 51 48 46 48 48 49 39 36 34 44 46 47 44 45 45 44 44 39 35 36 37 41 34 33 44 47 49 49 48 45 40 43 42 47 48 48 46 45 43
49 50 49 49 50 50 49 49 48 48 45 40 34 32 36 46 38 37 42 38 41 41 39 38 37 37 35 33 41 45 48 48 46 45 45 45 45 46 46 47 45 41 40 39
50 50 50 49 47 45 48 48 47 49 47 36 33 33 33 42 38 37 37 39 34 39 35 35 37 34 33 40 42 44 45 44 44 43 43 44 44 43 44 43 41 38 38 38
49 48 43 35 44 49 48 46 40 39 41 38 33 37 34 41 34 34 34 34 36 34 34 39 33 35 39 41 42 43 45 46 44 40 39 39 40 40 39 38 39 40 38 37
44 42 37 44 48 44 39 36 34 38 36 38 37 36 36 39 35 34 32 33 33 32 31 34 31 32 35 40 39 41 42 43 42 44 42 41 38 35 35 36 36 36 36 35
43 42 45 41 38 35 35 34 34 34 34 34 34 35 39 36 38 35 34 32 32 29 34 32 29 32 37 38 37 39 39 38 37 38 36 37 38 39 36 36 35 35 32 27
45 40 36 39 34 34 33 32 32 32 32 34 33 34 33 36 36 33 33 32 30 33 31 30 31 36 38 38 39 38 39 38 38 38 39 39 38 37 35 33 35 30 32 33
36 34 32 33 30 30 31 32 32 32 32 33 33 32 33 32 33 32 31 31 31 29 25 22 32 34 35 37 36 37 34 32 36 36 35 35 32 32 30 29 28 27 30 31
33 32 28 28 30 32 32 32 33 33 34 33 33 33 34 32 31 31 29 28 26 26 24 30 32 33 34 35 35 35 34 32 34 34 33 29 28 28 31 30 29 30 23 23
34 33 30 32 31 31 32 32 32 34 33 33 33 32 29 28 29 25 25 25 23 27 31 32 33 33 34 34 35 35 36 35 34 34 34 33 28 26 32 30 28 24 23 23
34 31 33 32 32 32 32 33 33 36 33 31 31 21 23 29 24 25 30 26 30 32 34 32 35 35 34 34 35 32 34 35 34 34 34 33 32 26 26 28 33 32 31 25

GFSNW_sfc_temp_024.txt.gz
Temp
54 52 51 51 52 53 53 50 46 56 56 47 41 43 50 54 55 58 56 55 53 50 48 46 45 45 47 50 50 46 46 41 34 41 48 49 46 43 41 30 33 28 27 31
52 51 50 52 53 55 53 48 49 55 55 37 35 46 52 55 54 54 53 52 53 52 47 43 45 46 50 51 48 47 48 40 32 38 44 47 43 43 41 37 33 32 23 31
51 50 51 52 53 55 53 49 42 47 47 45 47 47 48 50 55 54 55 53 53 50 46 47 44 44 49 50 48 49 49 41 38 34 37 40 39 42 41 39 28 31 30 36
51 50 50 52 53 53 53 48 45 47 40 43 45 49 50 49 49 54 55 52 52 49 42 42 41 45 46 49 49 46 46 38 38 37 39 40 40 41 40 39 38 34 36 35
50 50 52 52 52 53 52 48 46 44 43 47 48 45 48 50 50 51 49 50 48 49 46 48 43 46 44 45 46 43 43 34 36 35 38 38 37 40 40 39 39 38 37 38
50 52 52 52 53 54 51 49 50 49 40 42 43 43 49 52 52 50 52 52 47 43 46 47 46 46 46 47 45 40 38 34 32 29 32 33 30 37 40 39 40 40 35 41
52 52 51 51 53 55 54 52 51 44 35 40 45 50 51 50 51 50 49 50 46 48 51 49 50 47 45 46 43 44 35 32 26 24 26 21 39 43 43 42 42 43 41 41
52 51 51 51 52 53 54 52 52 44 32 42 46 48 47 48 48 46 47 49 49 51 47 38 38 34 37 38 40 39 39 30 25 22 24 34 41 43 41 40 40 44 42 40
50 50 50 51 53 53 54 52 50 48 41 43 52 47 47 43 41 43 44 50 50 47 32 32 29 30 36 34 36 40 37 34 29 21 20 19 37 42 46 46 33 44 44 40
50 50 50 51 53 54 57 51 52 50 43 47 49 46 46 46 43 41 44 46 43 44 28 24 26 30 37 32 30 27 27 25 23 15 17 29 41 45 46 33 35 41 43 41
49 49 49 51 53 54 57 52 52 52 43 47 51 51 48 46 45 40 45 43 41 33 32 28 27 24 31 32 36 32 31 28 23 24 17 26 44 45 38 42 40 43 42 42
48 48 49 50 52 53 56 54 53 52 50 49 52 52 52 51 53 46 43 46 43 42 33 27 26 26 30 30 29 37 32 35 31 33 33 43 44 43 45 44 44 43 43 43
48 48 49 50 51 54 55 53 49 50 44 47 49 48 55 57 54 55 46 40 47 43 41 33 30 29 30 28 30 31 38 41 33 37 43 42 43 46 46 45 45 44 44 44
49 49 49 51 52 52 53 50 48 47 42 36 44 53 51 56 55 55 54 49 45 42 39 33 30 29 36 28 34 32 39 41 38 35 41 41 45 45 46 45 44 44 45 45
49 49 50 51 51 53 53 50 48 49 50 37 38 48 51 52 53 52 51 50 46 41 35 33 33 31 34 33 34 32 41 41 34 34 45 44 45 46 44 45 44 45 45 43
48 48 49 51 51 52 52 48 50 50 48 42 36 44 45 48 50 49 48 48 44 42 39 34 36 40 36 33 34 41 45 45 46 45 44 44 44 44 44 44 44 45 43 43
49 49 50 51 52 51 47 45 47 48 47 39 36 35 43 44 45 42 43 44 43 42 39 34 35 36 38 34 29 45 47 47 47 46 44 42 41 43 44 46 44 44 44 43
49 49 49 50 50 50 48 48 48 48 44 39 34 32 36 44 37 37 42 38 41 41 39 37 36 37 35 34 39 43 45 46 45 45 43 42 43 43 42 43 44 41 39 38
49 49 50 50 47 45 47 48 48 47 46 35 32 32 31 41 38 36 37 39 36 39 35 35 37 34 34 36 37 39 41 41 42 41 42 42 41 40 40 40 38 35 33 35
49 48 44 36 44 49 48 46 41 39 38 40 33 37 34 42 34 34 34 34 35 35 33 39 34 34 38 36 37 38 38 41 42 38 36 37 35 36 35 35 35 34 35 35
44 40 38 43 47 44 37 35 34 39 36 37 36 36 35 39 35 34 33 33 33 32 33 34 31 32 33 36 35 36 37 38 37 37 37 37 36 34 33 33 35 35 34 35
44 43 43 41 38 36 34 32 34 35 32 34 35 35 39 35 36 34 34 32 32 30 33 32 29 32 37 37 37 38 38 37 36 37 35 35 36 36 35 35 34 35 32 28
43 39 35 37 33 33 34 31 32 32 33 34 34 34 33 35 36 33 33 32 30 33 31 29 31 35 35 35 37 36 37 37 37 36 37 37 36 35 34 32 33 29 32 33
37 34 33 33 31 31 31 32 32 32 32 33 33 33 33 32 33 32 32 31 31 29 25 24 31 33 33 34 34 34 34 33 34 34 35 34 32 31 29 28 27 26 28 30
33 34 28 28 30 32 32 32 33 32 34 33 33 33 34 32 31 30 30 27 24 22 20 30 31 32 33 33 34 34 34 30 30 33 31 26 25 26 29 29 28 29 22 22
34 32 30 31 31 31 32 32 32 34 33 33 34 31 26 26 29 26 26 24 20 26 31 32 32 32 33 34 34 34 35 34 34 34 34 32 26 24 31 29 26 22 21 23
32 31 33 32 32 32 32 33 33 35 33 31 31 25 24 29 24 26 28 22 28 32 32 33 34 33 33 34 34 32 33 34 34 34 33 33 31 26 27 28 32 30 30 24

GFSNW_sfc_temp_027.txt.gz
Temp
55 54 54 52 51 53 52 50 47 57 56 49 45 46 51 53 57 60 58 58 55 52 52 50 50 50 53 54 55 54 53 47 43 49 54 56 54 50 48 41 38 36 37 43
54 54 53 52 52 54 52 49 50 57 56 41 39 49 54 56 56 56 57 55 56 55 50 47 49 50 53 54 55 51 52 46 40 45 51 54 52 49 46 43 41 38 36 44
54 53 51 51 52 55 55 50 44 50 49 48 49 49 51 52 56 56 57 54 55 52 50 50 47 48 53 53 53 48 52 45 45 42 46 48 46 46 47 47 39 39 41 47
53 52 51 52 53 54 54 49 47 50 43 46 48 52 52 52 51 57 57 54 54 51 46 47 45 50 51 53 50 50 51 45 45 43 44 46 47 46 45 45 45 43 45 44
52 51 50 52 52 54 53 48 47 46 45 48 49 47 50 52 53 54 53 52 52 54 48 51 46 49 49 50 50 49 47 42 43 41 42 42 43 45 46 45 45 45 44 45
51 50 50 52 53 56 52 50 51 51 41 45 45 45 49 52 54 52 54 54 51 49 52 52 50 50 49 51 49 44 44 40 39 35 37 39 36 43 45 45 46 49 43 52
50 50 51 51 53 54 55 53 51 45 38 42 46 49 53 52 53 52 52 53 51 51 54 53 53 50 48 48 45 47 40 38 34 34 32 32 47 49 49 47 48 49 48 50
50 51 51 51 53 54 56 53 53 45 34 43 47 49 48 49 49 48 49 50 51 53 51 43 41 39 39 41 43 43 44 37 30 33 33 39 48 46 45 44 49 51 50 50
51 50 50 51 52 53 55 53 52 50 41 43 52 48 49 45 44 45 46 51 52 49 39 38 35 36 41 40 41 43 41 39 38 30 32 31 44 49 51 52 41 51 50 47
50 50 50 51 52 53 55 52 53 53 45 50 51 48 48 48 46 43 46 48 48 49 36 34 36 38 41 38 34 32 34 32 33 26 33 37 46 50 52 41 43 48 49 49
50 50 50 51 53 53 57 52 54 54 46 49 53 53 48 48 48 44 47 47 45 39 37 36 36 35 38 38 41 37 37 33 32 27 30 32 48 50 44 50 50 50 49 49
48 49 50 52 54 54 55 53 54 53 51 50 53 54 55 55 55 49 46 50 46 46 39 35 33 33 32 34 37 41 38 41 39 40 41 49 49 50 52 50 50 52 49 50
48 49 50 53 54 54 54 54 51 51 46 49 51 51 56 56 54 56 48 44 50 47 46 38 36 35 36 34 36 39 42 44 41 41 49 46 48 51 51 52 52 52 52 52
49 49 50 51 53 53 55 53 50 49 45 37 46 54 52 55 56 57 54 50 47 45 44 36 34 36 40 35 40 39 43 43 41 40 45 47 50 49 53 52 50 51 51 50
50 51 51 52 52 54 54 51 50 49 52 39 41 50 51 53 53 52 52 51 48 44 39 35 37 36 38 35 36 36 44 44 40 41 50 50 50 53 52 50 50 50 48 45
49 50 52 53 52 51 52 51 51 50 48 44 37 45 46 48 50 49 48 49 47 46 43 36 39 42 40 34 36 45 47 48 49 49 51 50 51 50 51 50 48 48 47 46
50 51 52 52 51 52 48 47 48 48 48 41 37 37 44 45 46 44 45 47 44 46 40 36 37 40 41 34 36 42 45 47 48 50 48 47 48 46 47 45 45 44 44 43
49 50 50 50 50 49 49 48 48 48 45 42 35 34 38 45 40 38 43 40 43 42 40 38 37 39 37 35 39 41 43 43 46 45 47 45 44 45 44 45 43 38 37 36
49 49 49 50 48 46 47 48 48 48 47 36 32 34 34 44 38 37 39 41 37 40 36 37 41 35 33 33 35 36 37 38 40 42 42 42 40 40 39 39 37 33 32 33
49 50 46 39 44 48 49 47 42 40 38 40 34 38 35 42 36 35 36 36 35 37 36 39 34 33 35 36 37 37 37 38 41 40 35 35 34 34 34 34 35 35 35 36
46 41 39 45 47 45 39 35 36 37 34 37 36 37 37 40 38 35 35 34 34 34 36 35 33 31 34 37 36 37 38 38 38 37 36 36 36 34 34 34 35 36 36 36
45 44 45 43 41 37 36 33 34 34 34 34 35 36 39 36 39 36 35 33 33 32 36 33 29 31 36 36 36 37 37 37 37 37 36 37 37 38 38 37 36 35 34 31
44 40 36 38 34 30 29 31 33 33 33 34 34 34 34 36 37 34 34 33 32 34 32 30 31 34 34 35 36 36 37 36 37 38 38 38 37 37 35 34 34 32 34 35
36 35 33 30 32 32 32 33 33 32 33 33 34 33 34 33 33 32 32 31 32 30 27 25 31 32 32 34 34 36 36 32 35 36 36 34 33 33 30 28 28 27 32 32
33 34 28 29 31 32 32 32 33 33 34 33 34 34 35 32 32 32 31 28 25 26 25 30 32 32 34 34 35 35 35 30 33 36 34 29 28 30 32 32 32 32 29 29
33 32 30 31 31 31 32 32 32 35 33 34 34 32 31 29 30 27 27 26 23 27 31 32 33 33 33 34 34 35 36 36 35 35 34 33 29 29 32 31 31 28 28 26
32 31 33 32 32 32 32 32 32 35 33 32 32 28 28 31 28 27 30 28 30 32 33 34 34 34 34 35 35 33 34 35 34 34 33 32 31 29 29 27 29 29 30 27

GFSNW_sfc_temp_030.txt.gz
Temp
53 54 55 54 53 53 54 62 57 65 68 60 62 59 63 59 66 67 67 68 65 63 62 60 61 60 63 64 66 62 62 61 53 57 62 64 63 61 60 51 47 48 47 54
51 53 55 53 52 54 62 60 62 65 64 53 53 60 63 65 65 66 65 64 66 65 62 57 60 60 59 61 63 62 63 58 49 51 58 61 59 61 60 56 54 48 43 55
51 53 53 52 53 55 67 64 53 59 63 66 62 60 62 61 65 65 66 63 65 62 59 60 57 57 58 60 61 49 58 58 56 51 55 60 54 57 59 59 48 51 52 59
51 52 52 52 53 54 63 65 61 65 53 57 62 64 64 62 60 66 67 63 65 63 55 57 56 59 57 59 52 59 61 55 55 54 54 55 56 57 57 56 58 50 58 57
51 52 52 51 53 54 63 61 60 60 62 62 61 57 61 62 62 64 63 63 63 64 60 62 57 60 60 60 59 59 58 53 52 49 51 52 51 57 58 59 59 57 60 58
51 52 51 51 52 54 66 64 64 67 50 59 59 59 63 64 65 60 65 67 63 60 60 62 65 63 63 63 60 56 55 51 49 46 47 48 40 52 57 58 60 59 53 62
52 51 51 51 52 54 73 69 69 61 52 56 59 62 64 64 65 61 60 65 63 58 65 66 64 62 60 60 56 58 51 51 45 42 39 35 57 59 59 59 61 64 62 65
51 51 50 51 52 54 68 68 68 62 41 59 60 62 62 61 60 58 60 58 61 65 62 56 51 49 46 50 53 54 56 51 39 38 44 51 58 55 54 52 57 65 63 65
50 50 51 51 52 55 65 67 68 67 52 53 65 61 62 59 58 56 53 57 62 60 56 51 45 44 51 47 48 52 52 52 49 39 37 35 53 56 59 59 50 62 61 61
49 50 51 51 52 54 66 63 62 69 58 62 64 61 59 63 61 57 55 55 55 58 50 44 46 48 51 47 42 37 42 41 39 40 38 48 58 58 59 46 51 62 60 62
50 50 50 50 52 54 66 60 63 69 59 60 61 62 60 60 64 56 56 57 55 53 46 46 48 44 49 49 52 47 46 42 38 39 36 37 58 57 51 58 62 61 62 62
50 50 50 51 52 54 58 62 63 67 65 59 63 61 62 63 66 63 60 61 59 62 53 48 45 39 38 46 46 51 46 53 51 51 53 58 60 62 64 62 60 60 60 64
49 49 50 51 54 53 59 62 61 66 58 60 63 60 63 65 63 66 61 58 62 59 59 54 49 38 50 38 48 49 53 54 51 49 59 59 61 63 64 63 62 64 64 63
49 49 50 52 54 53 58 64 58 62 59 42 55 63 59 62 65 65 64 62 58 58 61 49 42 44 52 48 52 52 55 53 52 51 58 60 62 61 61 62 63 62 63 60
49 50 52 53 53 53 60 61 57 61 62 47 53 58 59 61 63 62 63 62 61 59 51 43 47 50 48 46 48 48 55 53 49 49 56 55 58 61 60 58 59 59 58 56
50 52 53 53 53 52 68 58 61 60 62 56 46 56 55 58 60 59 58 59 59 61 57 45 52 49 51 39 47 49 53 55 55 53 57 57 58 58 57 54 54 54 54 53
50 51 51 51 52 60 56 55 56 52 59 53 43 47 53 53 57 53 57 57 57 59 49 41 45 49 54 40 46 46 49 51 53 54 55 54 51 49 51 51 50 48 45 42
51 51 51 51 51 52 55 57 51 52 61 58 43 43 49 53 46 44 49 47 54 48 43 43 42 44 44 40 41 45 46 49 50 49 52 50 50 49 46 45 43 39 36 35
49 50 50 58 55 56 57 48 49 60 61 49 38 42 39 49 42 43 45 50 40 46 41 42 46 39 36 36 37 39 40 41 42 47 48 45 42 40 39 37 36 35 34 37
50 57 56 49 50 48 52 57 55 52 49 48 36 44 39 49 42 39 41 42 39 39 41 43 39 32 38 37 37 38 40 44 46 38 35 35 34 35 35 36 39 40 41 42
55 49 46 54 49 57 51 44 44 46 39 42 40 44 41 45 41 39 40 37 38 36 41 39 36 31 34 37 36 39 41 41 41 40 38 40 40 37 35 39 41 41 40 39
51 51 51 53 51 48 38 35 38 39 38 38 39 39 42 40 46 41 39 36 36 34 44 36 32 32 35 36 37 40 42 42 42 45 43 44 44 44 43 41 40 40 38 34
53 51 41 48 39 36 36 32 35 35 36 36 36 35 40 42 46 37 38 35 34 41 34 33 32 35 35 36 37 38 41 43 43 43 44 43 42 41 40 38 39 36 39 40
41 38 34 35 35 34 35 37 36 34 34 36 37 36 39 37 36 35 34 32 35 32 31 31 32 33 34 35 37 41 41 35 40 41 41 38 38 37 35 33 33 33 35 36
37 39 31 31 32 33 33 33 34 35 35 36 37 37 40 35 34 34 33 31 31 34 33 33 34 35 36 36 40 41 39 35 39 42 37 33 34 36 37 36 36 34 32 31
36 35 32 33 32 32 33 33 32 36 35 36 38 34 34 32 34 32 31 32 31 31 35 34 36 35 35 36 37 38 40 41 40 40 39 36 33 33 36 35 32 31 31 29
33 32 33 33 33 32 32 33 33 35 34 32 36 33 31 35 32 31 36 32 35 35 35 36 37 35 35 37 37 36 38 39 39 38 36 35 34 32 32 31 33 33 33 30

GFSNW_sfc_temp_036.txt.gz
Temp
51 53 54 54 54 54 52 55 49 68 68 51 56 52 61 64 70 75 71 71 70 66 67 64 64 63 69 76 74 65 70 64 54 60 70 72 68 63 64 48 49 52 47 49
51 52 54 54 54 54 52 53 57 64 65 48 50 58 61 67 67 70 69 67 71 72 66 61 66 68 69 72 71 66 68 60 49 55 63 68 63 66 66 64 57 50 42 50
51 51 53 54 54 54 54 56 47 51 55 63 58 56 59 61 71 71 72 70 72 69 66 69 64 66 65 68 70 55 64 63 57 48 57 63 58 62 66 62 46 49 51 58
52 50 53 54 53 53 51 54 55 57 45 52 59 62 62 60 62 71 73 68 69 66 61 64 62 67 63 66 55 64 66 56 60 63 65 63 62 62 64 61 60 51 56 60
50 52 53 53 53 53 48 53 59 63 59 59 58 57 59 62 66 67 66 66 69 69 64 65 62 66 64 62 63 64 66 55 58 55 62 62 57 62 63 63 63 63 63 62
51 53 53 52 51 52 48 60 66 61 55 57 56 58 62 64 68 70 73 70 69 66 69 70 71 72 70 71 63 61 61 55 51 45 55 53 42 54 59 62 65 64 55 64
52 53 53 52 51 52 56 61 65 54 52 58 59 62 66 66 68 65 72 73 69 69 75 74 72 70 69 68 67 69 59 56 49 43 40 35 58 68 66 62 65 68 68 67
51 52 51 50 50 50 53 58 59 57 45 62 62 64 66 69 70 68 69 68 72 75 70 59 52 51 49 56 64 63 66 55 44 37 42 52 58 64 61 59 58 66 64 65
51 50 50 50 50 49 52 54 58 55 54 57 68 65 68 62 58 59 60 69 74 72 63 54 47 45 53 52 54 63 61 60 47 43 37 34 55 63 67 66 48 64 64 63
49 49 49 49 49 49 51 55 57 57 53 68 68 64 64 68 60 57 60 60 61 66 53 42 48 49 61 48 45 39 44 44 39 41 38 46 63 65 66 46 48 63 64 63
49 49 48 48 49 50 51 54 56 56 56 69 72 75 69 69 64 55 61 59 61 58 49 49 51 45 53 54 58 48 44 43 38 43 35 34 66 63 52 58 63 64 64 63
49 49 49 49 50 51 52 50 57 60 55 64 69 68 71 71 70 67 63 64 63 63 58 54 53 41 41 48 46 64 49 56 50 50 49 63 67 64 67 66 63 63 63 64
49 49 50 50 50 51 52 51 55 58 61 63 67 64 68 72 71 73 62 67 71 68 72 60 55 40 54 39 49 55 62 64 55 55 63 65 66 68 66 64 62 64 65 64
49 49 50 50 50 51 52 51 57 63 63 47 56 70 65 71 73 73 73 72 71 69 66 55 44 42 62 51 58 55 59 61 58 57 62 63 62 61 60 62 62 61 63 59
49 50 49 50 50 51 53 55 61 65 65 50 53 64 68 71 72 70 71 69 67 63 55 42 51 58 54 53 55 52 62 59 51 50 58 57 54 58 60 57 55 57 56 50
49 49 50 50 51 51 55 53 66 65 74 59 47 61 62 68 70 69 67 68 68 67 58 52 59 61 57 42 48 58 59 61 60 56 59 58 56 55 52 50 50 50 48 47
49 50 50 51 51 57 55 54 56 54 69 57 45 47 59 65 65 63 65 68 65 64 57 51 54 55 57 42 47 55 56 58 57 58 58 51 55 47 48 45 44 44 44 44
49 50 50 51 51 52 52 56 52 53 66 63 44 39 50 61 53 50 60 57 59 56 50 51 50 51 50 45 52 53 55 55 54 54 55 53 51 49 45 46 46 43 41 41
50 51 52 59 56 56 56 50 50 60 59 47 39 40 38 58 50 49 51 57 42 51 43 48 50 42 42 49 49 49 50 50 48 50 51 50 45 43 44 45 44 40 39 43
52 58 60 45 54 50 52 61 53 50 55 52 42 51 43 52 45 42 44 44 43 40 43 49 40 37 44 46 47 48 49 50 48 40 37 40 40 42 43 43 44 44 41 43
61 55 46 54 52 59 55 44 44 47 43 46 46 49 44 51 43 39 43 40 41 37 42 41 37 37 39 43 45 47 49 49 47 46 46 47 45 41 41 42 43 41 39 37
56 55 57 58 55 49 39 37 40 41 39 40 41 43 46 45 53 43 43 37 40 36 45 37 36 37 40 41 44 46 48 47 47 48 46 46 46 46 44 43 40 39 36 33
61 52 42 47 39 36 36 33 37 34 37 38 40 37 42 44 47 39 39 35 36 47 36 37 35 35 38 42 44 45 47 47 46 46 46 45 43 42 39 37 37 36 37 35
45 39 34 35 34 33 33 34 34 34 35 38 40 38 39 39 36 36 33 34 39 33 32 34 33 34 37 41 43 44 43 38 43 43 42 38 36 35 33 32 32 31 33 33
39 39 32 32 33 33 33 34 35 35 39 40 41 40 42 36 35 37 34 32 32 34 35 34 34 35 37 39 42 40 38 36 40 41 36 34 34 36 36 35 35 32 28 28
34 34 32 33 33 32 33 33 33 36 37 40 44 37 35 33 35 33 34 34 34 33 35 34 35 35 36 39 40 41 42 42 41 39 37 36 34 34 35 34 33 28 28 25
34 32 33 33 32 32 32 32 32 36 36 34 37 33 33 38 34 33 35 32 34 35 35 35 35 35 37 39 39 38 40 41 40 39 38 37 36 35 35 34 34 35 34 27

GFSNW_sfc_temp_042.txt.gz
Temp
52 52 52 52 54 54 51 48 41 54 59 43 43 42 49 52 57 60 57 57 56 54 54 52 52 53 58 61 59 54 54 47 40 51 58 59 53 51 50 34 39 37 31 38
51 51 52 52 52 54 47 44 47 54 56 38 38 46 50 53 55 56 56 56 58 60 54 49 53 54 58 60 59 54 54 45 36 43 51 54 52 54 53 49 41 38 30 37
51 51 51 52 52 54 49 45 40 46 49 48 45 43 45 46 56 54 56 55 57 55 53 56 53 52 57 58 58 52 56 49 43 36 45 50 46 51 51 48 33 37 38 44
51 51 51 52 52 53 49 45 45 47 40 43 47 47 47 45 46 55 58 54 54 52 49 52 48 53 54 56 54 55 54 46 49 50 52 53 51 52 51 49 47 40 45 46
50 50 51 51 52 53 45 42 42 47 44 49 44 47 45 46 50 53 54 52 55 55 53 53 51 53 51 52 52 52 53 44 44 42 49 49 46 50 49 50 50 49 49 46
50 49 49 50 50 51 43 48 49 47 46 46 42 43 47 49 52 55 58 57 55 52 56 59 58 58 57 56 52 49 49 44 36 35 42 42 34 44 49 50 51 51 42 49
49 49 49 49 50 49 48 50 48 44 41 45 44 48 51 50 53 51 58 60 55 58 60 59 57 54 54 55 52 54 45 42 34 30 32 25 45 53 54 48 49 51 51 50
49 49 49 49 49 49 46 49 47 45 36 48 49 50 51 54 55 54 58 59 62 63 55 45 42 38 42 47 52 52 53 39 33 30 29 39 47 52 49 46 43 50 49 50
48 49 49 50 49 50 48 48 49 47 43 43 54 49 52 48 47 51 53 57 56 59 46 38 35 33 41 41 46 50 47 42 36 29 27 25 41 51 56 52 35 51 50 49
49 49 49 50 50 50 48 47 50 45 44 49 55 50 49 55 49 45 49 52 51 52 34 34 32 34 47 36 36 34 32 32 30 24 25 33 47 54 54 38 38 51 51 50
49 49 49 49 50 51 48 47 50 46 44 48 51 57 52 55 54 45 48 47 47 42 38 36 33 31 38 37 43 39 37 31 26 29 25 30 52 52 45 45 48 50 50 49
49 49 49 49 50 51 51 45 50 51 44 47 51 53 54 58 61 50 48 50 50 49 44 37 36 33 31 35 32 46 37 41 35 38 36 48 49 50 50 51 49 48 48 49
48 48 49 49 50 50 51 47 48 48 45 46 47 49 57 62 65 63 48 47 55 54 52 43 39 36 35 32 33 39 46 50 42 42 46 47 48 50 50 49 46 47 48 47
48 49 49 50 50 50 50 47 51 49 47 39 46 58 56 61 62 62 60 56 56 55 50 39 36 36 44 33 42 40 45 49 45 40 44 47 47 47 46 46 45 44 44 44
49 49 49 50 49 50 49 49 51 52 48 40 45 52 57 60 61 60 60 60 53 47 42 35 38 42 41 37 39 36 47 46 39 36 47 44 42 45 47 44 43 43 41 39
48 48 49 49 49 50 47 42 49 52 52 44 38 50 52 57 58 57 57 56 51 49 44 39 44 48 41 33 30 45 47 48 49 44 47 44 42 43 44 41 41 41 39 38
48 48 49 49 49 48 45 43 49 52 52 44 38 41 50 54 52 50 51 51 47 49 44 38 41 42 41 32 33 45 46 47 46 46 45 40 42 37 41 40 39 39 38 37
48 48 49 49 49 49 47 50 50 51 49 48 37 39 42 52 43 43 48 45 44 44 41 38 36 40 32 33 42 45 45 45 45 44 44 42 41 40 38 39 38 36 34 34
48 49 49 48 48 45 47 50 49 51 49 39 34 36 36 47 41 40 41 41 37 44 35 35 39 31 32 39 42 42 44 42 38 40 40 40 38 37 37 37 36 33 32 33
49 48 45 40 46 50 50 49 45 43 43 42 36 41 38 44 36 36 33 36 35 35 36 41 34 32 37 38 41 42 43 42 41 35 33 35 35 36 37 36 36 35 33 31
47 45 42 49 50 49 44 36 35 38 34 36 38 39 38 43 35 34 34 34 33 32 35 34 33 32 37 39 41 42 43 43 40 40 40 40 40 37 36 35 34 33 31 30
49 49 49 48 45 38 35 32 34 34 33 35 36 38 41 38 44 37 36 33 32 31 38 34 31 31 36 41 42 43 44 43 41 42 41 41 40 39 37 34 31 30 31 30
49 44 37 41 34 31 27 26 32 31 33 35 35 34 36 38 40 34 35 28 30 31 34 27 29 36 38 40 41 41 43 42 42 41 41 40 38 36 34 30 30 30 29 28
37 34 31 31 30 29 30 31 32 33 33 34 34 34 35 33 34 33 33 33 33 28 24 25 31 35 36 39 41 40 37 36 36 36 35 33 32 31 32 30 29 28 27 26
33 33 28 29 31 32 32 33 33 33 34 34 34 34 35 33 33 32 32 30 29 28 25 31 33 35 37 37 37 36 34 33 33 34 31 30 31 30 29 30 30 28 25 22
31 31 31 33 32 31 32 32 32 35 33 33 32 33 33 31 32 31 30 26 24 30 31 33 36 36 35 36 36 36 35 34 33 32 32 31 29 29 29 29 27 23 22 19
31 30 32 32 32 31 31 32 32 35 34 33 32 30 30 32 30 28 31 27 30 31 32 34 35 34 34 34 34 33 33 33 33 32 32 31 31 29 28 27 27 28 25 20

GFSNW_sfc_temp_048.txt.gz
Temp
52 52 53 53 53 53 50 44 33 49 54 41 44 41 44 49 53 54 51 50 49 48 49 46 47 48 53 56 54 50 50 44 38 46 50 53 50 47 45 34 36 33 30 36
52 52 52 52 52 53 46 40 41 52 52 36 38 44 46 48 50 50 50 48 51 51 48 44 48 48 55 54 54 50 50 41 35 40 46 48 46 48 47 42 37 34 27 36
52 52 52 52 51 53 47 40 33 42 45 48 42 41 42 42 51 50 51 49 50 49 48 49 46 49 53 53 54 52 54 43 41 38 42 45 41 46 45 43 32 35 35 41
51 52 52 52 52 52 46 40 37 42 35 38 41 44 44 42 42 51 51 46 47 46 44 45 44 48 50 51 50 50 51 43 43 44 46 47 46 46 44 43 42 38 43 41
51 51 51 51 51 52 43 37 37 42 42 43 39 42 42 42 44 46 46 45 48 49 44 48 46 49 47 48 48 48 48 42 41 38 44 44 42 45 45 44 43 43 42 43
51 51 51 51 51 50 41 43 42 41 44 41 38 39 42 43 47 49 51 50 49 46 50 55 56 54 53 50 47 45 46 40 36 36 38 40 33 42 45 45 45 46 39 47
50 51 51 51 51 51 45 44 42 39 35 40 40 42 45 44 46 44 51 52 48 52 58 55 53 50 50 50 47 49 41 39 34 29 31 26 43 46 47 45 46 46 45 45
50 51 51 50 51 51 45 46 43 42 33 41 43 44 44 46 48 46 48 53 56 57 55 45 41 37 39 41 45 44 44 37 32 31 30 37 42 45 44 44 44 46 44 43
50 49 49 50 51 51 46 43 44 44 39 39 47 44 46 41 42 41 46 53 55 53 44 39 35 32 39 38 41 44 43 39 36 28 27 25 40 47 50 49 36 46 45 43
49 49 49 50 50 51 45 44 47 43 39 45 47 43 43 47 43 39 42 47 46 50 32 31 34 37 42 35 36 34 32 31 30 22 25 33 44 48 50 37 38 46 48 46
49 50 49 50 50 51 46 42 46 43 41 43 47 45 45 47 47 37 41 42 44 38 36 36 36 30 37 36 40 38 37 32 27 26 24 31 48 47 42 45 42 46 46 45
49 49 49 49 49 50 49 41 46 46 43 43 48 47 48 47 49 48 44 44 44 46 40 35 33 31 28 35 33 42 37 41 36 38 38 46 46 46 47 47 46 45 45 43
48 49 49 49 49 50 48 43 44 44 42 42 44 42 48 51 50 52 44 44 50 46 47 40 38 34 35 32 35 37 41 44 39 40 44 43 44 44 45 45 45 45 44 43
48 48 48 49 49 49 48 43 47 45 41 35 39 52 49 54 52 51 51 51 50 48 46 39 35 35 42 34 41 40 42 44 40 39 41 41 44 42 42 41 42 42 42 41
48 48 48 48 48 49 47 45 47 48 42 36 39 45 50 53 52 51 52 52 48 43 40 33 37 41 39 37 39 34 44 42 39 40 45 45 44 41 42 41 40 41 39 37
48 48 48 49 49 49 45 39 46 49 46 40 33 46 46 53 52 50 49 52 47 45 42 38 42 46 43 36 35 46 47 47 47 49 47 41 41 40 41 39 38 39 38 38
48 48 48 49 49 44 40 38 42 49 48 40 34 33 46 52 50 46 46 47 45 45 42 37 42 43 43 33 35 47 45 45 44 44 43 38 40 37 38 37 37 38 36 36
48 48 48 48 49 47 42 44 47 49 43 41 34 35 39 50 44 42 47 41 42 42 39 36 37 39 34 35 42 41 41 42 42 40 41 42 38 37 35 36 36 33 32 32
48 48 48 46 44 39 39 48 50 48 44 36 34 33 34 46 42 42 41 41 34 41 34 36 41 34 37 40 40 39 41 41 37 37 37 37 35 33 34 34 33 32 31 32
48 46 42 35 41 48 49 46 42 42 43 42 37 40 36 42 35 36 36 36 35 34 36 41 34 35 37 37 39 40 38 39 38 33 32 33 33 33 33 33 34 33 34 34
45 39 35 42 49 45 40 33 35 36 33 37 37 38 37 42 35 33 35 33 33 33 34 36 34 35 35 38 38 40 40 40 39 39 38 38 36 33 32 33 34 34 34 32
44 44 47 46 43 37 33 32 32 33 33 35 35 37 40 37 42 36 34 32 33 32 37 34 32 34 36 38 38 39 40 40 39 40 38 37 37 37 36 33 32 32 31 29
45 42 35 38 33 32 30 28 30 31 32 34 34 34 35 36 38 33 32 31 31 34 32 32 31 34 37 38 38 38 40 39 39 39 39 38 36 35 33 31 31 31 30 29
36 33 29 30 28 29 29 30 32 32 32 33 34 33 34 33 33 32 32 32 33 28 26 24 31 34 36 38 39 38 37 36 36 35 34 33 32 31 31 30 30 29 28 27
32 32 28 29 31 32 32 32 33 33 34 33 34 34 35 32 32 32 31 30 26 27 26 30 32 34 35 35 35 34 33 33 32 33 31 29 30 29 28 29 30 28 25 24
33 31 28 30 30 29 30 31 31 34 33 33 33 31 32 31 31 30 27 28 24 27 30 32 33 33 33 33 33 33 33 32 31 31 30 29 28 27 27 27 26 24 23 21
30 28 29 29 30 28 29 30 30 33 33 31 32 27 25 31 27 25 27 24 27 30 32 32 32 32 32 32 32 32 31 31 31 30 30 28 29 28 27 25 26 27 24 22

GFSNW_sfc_temp_051.txt.gz
Temp
53 53 53 53 53 53 50 43 34 48 53 38 42 39 46 50 52 55 53 53 50 50 51 48 48 49 56 58 57 53 56 50 43 51 56 59 56 53 52 44 42 41 40 44
52 52 52 52 53 52 45 38 39 48 50 34 37 44 45 50 49 51 51 50 52 53 50 46 50 50 57 55 56 54 54 47 43 47 51 55 53 53 51 48 44 40 38 46
51 52 51 52 52 53 46 39 32 40 42 47 43 40 41 42 51 50 53 51 52 51 49 51 50 50 55 54 57 51 56 48 47 43 48 52 47 50 51 51 42 44 44 50
51 51 51 52 52 52 46 39 36 42 33 37 41 44 43 41 42 50 51 48 50 49 45 48 47 52 53 54 51 54 56 48 47 49 51 51 52 51 49 49 50 46 50 48
51 51 51 51 52 52 43 36 37 41 42 42 39 41 41 41 44 47 46 46 48 50 46 49 47 51 52 51 51 51 52 48 46 45 49 50 48 51 50 50 50 49 50 49
51 51 50 51 51 51 41 43 44 43 42 39 37 38 42 44 47 48 52 50 49 46 50 55 55 55 55 55 52 48 48 44 42 41 44 46 39 46 50 50 52 53 47 54
51 50 50 51 51 50 45 44 44 39 35 37 38 41 43 44 47 44 50 52 49 53 59 58 56 54 52 51 51 53 46 44 41 37 37 33 51 52 54 52 52 54 53 55
50 50 50 51 51 51 45 46 42 40 34 41 41 42 42 46 48 47 49 52 55 56 54 45 44 42 42 44 47 48 50 42 37 36 38 44 49 51 51 50 54 55 54 54
50 50 50 51 51 51 46 46 45 43 38 38 46 43 44 42 42 42 46 54 56 53 44 41 36 36 41 41 44 47 43 44 43 34 35 34 47 54 54 57 45 54 54 50
49 49 50 51 51 51 48 44 48 43 38 43 45 43 43 48 44 41 43 48 48 52 37 35 35 37 46 39 37 37 38 37 38 33 36 41 50 53 55 44 49 53 53 52
49 49 50 50 51 51 49 42 47 45 40 43 45 45 45 47 47 39 43 45 45 40 36 36 37 35 41 41 43 41 41 38 35 35 34 37 52 51 48 55 52 53 52 52
49 49 50 50 51 51 49 40 46 46 40 42 48 48 49 50 55 48 46 46 45 47 42 39 38 35 35 41 39 45 40 45 43 45 45 53 52 56 55 54 55 51 53 50
49 50 50 50 50 50 47 42 42 42 36 40 43 43 50 51 50 56 45 45 51 48 50 43 42 37 40 34 37 42 44 47 45 47 51 51 51 52 52 53 54 53 55 50
48 48 48 48 49 49 48 41 43 43 39 34 41 51 47 53 52 52 54 53 51 51 49 41 38 38 45 39 45 44 46 47 44 45 48 47 50 50 52 50 49 48 50 48
48 48 48 48 49 49 46 44 45 46 40 34 38 49 51 51 51 50 52 52 50 47 42 37 41 43 42 39 42 40 47 46 43 44 53 53 55 54 48 46 47 47 45 42
48 48 48 49 49 47 44 38 45 47 44 35 32 45 46 50 51 50 49 51 49 49 46 42 45 48 45 38 40 49 51 50 51 52 50 44 42 44 47 45 44 44 44 42
47 47 48 49 48 45 41 38 44 47 43 38 35 36 45 50 51 48 49 50 49 48 46 41 45 45 46 36 39 50 50 50 48 46 47 43 44 43 42 42 41 41 41 41
48 48 47 47 48 47 43 45 48 47 42 40 33 34 39 49 43 43 48 44 46 45 44 41 42 41 40 39 46 49 46 45 44 44 44 46 41 40 38 39 39 37 36 35
48 48 48 45 42 38 41 47 48 47 43 34 33 33 34 46 41 41 41 44 38 43 37 39 43 36 37 44 46 45 44 44 42 40 40 40 39 37 37 37 37 35 33 35
48 45 40 35 39 47 48 45 41 40 41 40 33 39 37 43 37 36 38 36 35 35 37 41 37 40 41 41 42 43 42 41 41 36 33 34 35 35 36 36 37 36 35 35
42 38 36 41 48 44 39 34 34 35 33 36 37 37 37 43 37 34 35 34 34 33 37 38 36 36 38 39 40 41 42 41 40 41 40 40 39 36 34 35 35 35 36 34
43 43 44 44 41 35 32 32 33 32 32 35 35 37 40 38 42 37 34 33 33 32 37 35 33 35 37 39 39 39 41 41 40 41 39 38 38 38 37 36 35 35 32 30
45 41 36 37 33 30 30 27 30 31 33 34 35 33 35 37 38 33 33 32 32 33 32 30 30 35 37 37 38 37 38 38 37 37 37 37 36 36 35 32 31 30 29 29
33 33 28 30 28 28 29 30 32 32 32 33 34 33 34 33 33 32 32 32 32 30 26 26 32 32 34 36 37 37 35 35 35 34 33 32 32 30 30 30 30 28 27 27
32 32 27 28 31 31 32 32 32 32 33 33 33 33 35 32 32 32 33 31 27 27 26 29 32 33 34 33 34 33 32 32 32 32 30 29 29 29 29 29 29 27 26 26
31 28 24 28 27 25 27 27 29 33 32 33 34 33 32 30 31 29 25 27 22 25 28 31 33 32 32 32 32 32 31 30 30 30 30 29 28 27 27 27 27 26 26 24
29 26 26 25 25 24 25 27 28 32 33 29 31 23 23 30 24 21 24 20 22 25 28 32 32 31 31 31 31 31 31 30 30 29 28 28 27 27 27 25 25 25 24 23

GFSNW_sfc_temp_054.txt.gz
Temp
53 53 53 53 53 53 51 43 34 55 57 36 38 39 50 55 59 62 59 58 57 55 57 56 58 57 63 69 70 60 67 62 53 58 64 66 68 63 62 51 48 52 50 53
53 53 53 53 53 52 49 38 39 50 54 32 33 44 49 55 56 58 57 55 58 58 54 52 58 60 68 67 66 64 65 58 50 53 58 62 61 64 64 62 57 52 45 53
52 52 52 52 52 52 50 38 33 39 43 53 42 41 45 47 57 58 59 58 59 56 53 55 54 57 60 63 68 55 63 62 56 50 56 63 56 60 63 60 51 53 54 58
52 52 52 52 52 51 48 39 37 41 32 40 46 46 48 46 48 57 59 55 56 55 50 52 52 56 57 59 55 63 65 56 60 62 64 64 62 62 62 59 60 54 58 61
51 52 52 51 51 51 44 35 43 46 45 45 45 46 44 47 51 53 52 53 55 57 53 55 49 54 56 58 59 61 64 56 59 55 62 61 58 62 63 63 63 61 62 61
51 51 51 51 50 50 43 47 54 51 45 44 41 44 45 47 52 56 59 57 54 52 56 60 60 60 60 61 59 57 57 57 53 49 57 56 44 55 61 62 64 63 57 65
51 51 51 50 50 50 51 49 51 44 41 43 42 46 49 49 52 50 57 59 54 58 63 62 61 58 59 60 60 62 56 55 54 47 42 35 59 65 67 64 66 68 67 69
50 50 51 50 50 50 50 53 51 48 38 47 46 46 47 51 53 53 55 59 62 62 58 51 46 47 46 54 59 58 61 56 48 42 45 55 55 58 59 59 61 70 68 70
50 50 50 50 50 51 49 55 56 51 45 44 51 45 49 47 48 50 54 62 62 61 51 48 42 41 46 46 49 53 55 55 52 44 42 37 58 68 69 66 53 71 70 68
50 50 50 50 50 50 48 48 56 51 45 52 53 44 46 53 53 49 53 54 53 60 48 40 42 43 53 43 44 40 44 45 43 46 43 53 64 66 66 50 56 70 71 69
50 50 50 50 50 49 50 48 55 52 47 51 53 55 50 53 53 47 53 51 52 50 44 45 46 43 48 50 55 48 47 45 41 47 40 40 62 61 58 67 68 70 67 68
50 49 50 49 50 50 51 42 52 55 48 43 48 51 52 50 62 57 55 54 55 55 50 49 51 42 42 50 43 55 46 53 52 52 55 66 64 69 70 70 71 66 67 67
49 49 49 50 50 51 51 44 46 51 46 48 47 44 53 56 57 62 53 56 61 58 63 55 53 44 51 41 48 52 53 53 50 52 63 62 64 69 66 67 68 67 69 66
49 49 49 49 50 48 50 46 50 52 48 38 44 55 49 56 58 58 60 62 62 62 59 53 46 44 57 50 55 52 59 54 54 55 61 61 62 66 69 64 63 62 66 63
48 48 49 49 48 49 49 51 53 56 49 36 42 49 53 51 51 53 58 58 59 56 52 43 46 55 52 51 51 52 58 56 50 52 62 60 69 68 68 64 60 62 61 58
48 48 48 48 49 50 49 38 50 54 54 44 34 50 49 48 48 51 56 58 57 57 54 52 57 58 54 44 47 60 62 63 64 62 59 61 56 57 64 62 61 61 59 60
47 47 47 48 49 52 46 44 50 51 52 43 35 40 50 53 48 52 52 56 56 55 53 52 54 55 53 45 45 60 64 64 63 59 54 54 53 56 54 56 57 54 58 57
48 48 47 48 49 51 48 50 48 51 46 41 33 37 43 52 44 43 50 47 49 52 52 54 52 55 51 46 57 61 63 59 57 55 55 53 52 50 50 52 51 49 49 49
48 48 48 48 48 42 44 47 48 49 43 35 33 35 35 47 43 43 42 46 39 52 44 48 53 49 43 54 58 60 60 56 60 55 53 50 50 49 46 48 46 46 43 43
48 47 44 37 41 48 46 43 39 38 40 42 37 38 34 43 39 38 42 40 37 35 41 50 43 47 58 52 51 52 52 54 51 47 45 45 44 45 46 46 47 46 43 43
48 44 41 48 48 48 44 37 37 41 36 42 41 39 33 41 39 37 41 39 37 35 37 42 40 42 48 46 49 51 51 52 53 53 51 51 50 47 44 43 42 41 40 41
46 45 50 48 45 39 34 33 34 34 36 41 38 40 41 42 49 44 39 37 35 34 37 35 34 33 37 40 42 46 47 49 48 48 47 46 46 45 43 42 41 41 39 33
46 47 42 42 36 31 29 28 31 33 36 38 38 36 41 42 48 37 36 34 34 35 33 29 32 35 35 36 39 39 42 43 42 39 40 40 41 42 40 34 33 32 31 31
36 34 30 31 30 31 32 32 33 33 33 35 39 35 35 35 37 34 34 33 35 33 30 29 32 32 33 34 34 34 33 32 33 33 32 32 31 31 31 31 31 30 28 29
32 31 26 28 30 30 31 32 34 34 34 34 35 34 35 33 33 34 34 32 28 29 26 30 32 33 33 33 33 32 31 31 30 31 30 30 30 29 28 30 30 29 28 28
30 26 23 26 26 25 27 27 28 32 32 33 34 33 33 30 31 29 26 28 23 25 28 30 33 33 32 32 31 31 31 31 31 31 30 30 29 28 28 28 28 28 28 26
28 25 26 24 24 23 24 26 27 32 33 31 31 25 24 34 27 23 25 21 23 26 29 28 32 32 32 32 32 31 31 31 30 30 30 30 30 30 29 26 27 28 27 26

GFSNW_sfc_temp_057.txt.gz
Temp
53 53 53 53 53 53 50 45 35 57 57 36 40 38 49 53 59 64 65 66 63 63 63 61 61 60 65 70 71 64 70 64 56 59 71 74 68 65 64 53 52 56 53 55
53 53 53 53 53 53 47 39 41 56 54 32 37 47 50 56 56 59 61 61 64 66 62 57 62 64 69 70 68 66 69 61 51 56 63 68 64 67 67 65 62 51 43 54
51 52 53 53 52 52 48 39 33 40 43 50 45 45 47 50 56 57 61 61 65 62 59 63 60 62 64 68 68 60 66 63 57 51 58 65 59 64 67 64 53 54 56 61
51 50 52 52 52 52 47 39 39 43 33 37 46 50 50 50 48 57 59 55 61 60 56 59 57 61 62 62 59 64 66 57 61 63 66 67 65 64 64 62 63 55 60 62
51 51 49 51 52 51 43 35 46 49 48 44 46 47 47 50 52 55 53 52 57 62 58 60 56 59 59 57 62 62 68 57 61 58 65 65 61 66 66 67 66 65 66 64
51 52 52 52 51 50 42 42 57 52 46 43 43 46 48 50 55 58 62 59 56 57 61 64 64 62 61 60 57 61 62 59 56 50 62 61 52 61 64 66 69 67 60 68
50 51 51 51 51 50 45 46 57 46 42 42 46 49 52 52 55 53 60 63 57 62 68 65 64 60 60 58 59 63 58 58 57 49 45 38 59 71 70 66 68 72 71 73
50 50 50 51 51 51 46 53 55 49 40 48 48 49 51 54 55 53 58 63 67 66 62 50 48 48 46 51 55 58 62 57 50 44 46 55 62 65 65 64 64 73 72 74
50 50 49 50 51 51 47 53 61 53 46 47 54 50 52 49 50 52 56 66 69 63 52 48 42 42 49 46 49 59 59 59 51 48 43 39 57 69 75 73 56 74 75 73
50 50 49 50 51 50 47 49 60 55 47 54 54 46 49 56 54 51 54 59 57 60 48 41 44 46 57 45 43 42 45 48 44 46 45 54 68 71 76 52 56 75 76 75
50 50 50 50 50 50 48 51 59 54 49 54 57 58 52 55 57 49 55 53 53 51 43 45 47 47 53 50 55 50 45 44 42 47 44 41 68 68 60 68 74 75 75 76
49 50 50 50 50 50 49 48 57 59 50 48 57 54 55 56 62 60 58 55 56 58 52 52 53 46 47 51 45 62 48 55 51 55 55 67 68 68 74 77 75 75 75 77
49 49 50 50 49 49 51 50 54 53 47 47 51 51 53 53 58 61 52 58 64 61 66 59 54 47 55 43 48 55 60 63 56 57 64 67 70 72 72 75 75 77 77 76
49 49 49 49 49 50 52 50 54 54 50 38 46 61 56 53 55 55 60 61 67 67 64 57 51 48 62 52 55 54 59 61 58 59 65 67 70 68 69 73 74 73 73 75
49 48 49 49 50 51 51 53 53 58 51 41 46 55 58 57 49 48 55 58 58 61 55 50 48 58 57 59 57 54 62 60 54 53 64 62 64 71 71 73 72 70 70 70
48 48 49 48 50 49 47 38 49 54 52 49 41 54 55 59 53 51 53 54 57 60 57 53 59 64 59 48 49 61 66 68 68 64 68 67 70 66 68 71 73 72 69 70
47 47 48 49 50 52 43 44 54 55 60 49 40 43 53 56 51 51 51 54 56 56 55 52 56 58 59 50 47 61 67 68 69 69 65 59 63 65 64 64 70 65 68 68
47 48 49 48 47 48 49 54 52 57 52 52 38 35 40 51 40 40 53 51 53 53 53 55 52 57 54 46 58 62 65 67 66 65 67 62 60 59 60 61 60 60 62 62
47 48 49 47 46 46 47 49 50 56 51 41 35 33 34 45 43 43 46 50 44 56 48 50 53 50 44 55 60 62 64 62 64 66 65 63 58 60 58 56 55 56 54 57
48 50 49 42 47 46 47 41 40 47 48 43 35 41 34 36 38 40 40 44 43 39 44 55 47 48 56 43 51 58 57 57 60 55 55 56 55 57 55 54 55 55 53 53
54 48 42 49 47 43 42 39 37 38 35 43 42 42 34 39 36 37 42 38 39 34 38 45 43 43 38 38 43 51 55 56 57 58 57 56 57 57 53 52 52 52 49 48
47 50 51 46 42 41 35 35 38 37 37 43 41 41 45 43 44 40 39 36 37 34 38 35 29 33 37 36 37 42 45 50 52 53 53 51 52 53 52 50 47 45 41 35
54 51 44 45 39 30 30 28 32 34 39 38 40 37 45 45 46 36 39 36 34 37 33 31 32 36 36 35 35 36 37 38 40 40 42 40 38 39 37 34 34 34 33 32
37 34 31 32 31 29 29 30 31 34 34 38 41 38 37 37 36 34 34 33 35 33 31 28 32 33 33 34 34 33 31 31 31 31 31 30 30 30 30 30 30 29 28 28
32 32 24 28 30 31 31 32 33 34 33 34 36 35 35 34 34 34 34 33 28 29 27 29 32 33 34 33 33 32 31 31 31 31 31 30 30 30 30 30 30 30 28 27
31 27 24 27 29 28 29 29 30 33 32 33 34 34 33 31 33 29 26 28 22 24 28 30 32 33 33 32 32 32 32 32 31 31 30 30 29 28 28 29 29 28 28 27
28 26 26 24 25 24 26 28 30 32 32 31 32 27 25 33 27 23 25 22 25 27 27 29 30 29 30 31 31 31 31 31 31 30 30 30 30 30 28 26 27 27 27 26

GFSNW_sfc_temp_063.txt.gz
Temp
53 53 53 53 53 53 50 44 34 51 54 36 38 34 39 46 48 52 49 50 49 47 49 48 50 48 53 65 65 57 60 53 46 52 63 67 62 57 54 39 42 44 38 40
52 53 53 53 53 53 47 39 39 49 50 30 32 39 41 43 43 45 46 47 51 53 48 44 50 54 59 62 62 59 59 52 40 45 55 60 57 57 58 56 50 42 35 40
52 52 52 53 53 53 48 38 32 39 42 43 37 36 36 37 47 45 49 47 49 46 46 52 48 50 56 55 62 59 61 51 48 41 46 55 50 56 58 55 40 43 42 48
52 52 52 52 52 52 47 37 34 39 33 34 37 39 41 37 37 46 48 44 44 45 42 46 45 50 50 54 58 58 59 50 52 53 57 59 57 56 57 55 54 46 49 50
52 52 50 51 51 52 45 32 36 40 39 42 37 38 37 38 42 44 43 41 46 47 44 47 43 47 48 46 51 47 58 46 51 48 55 57 54 58 55 57 57 54 53 52
51 52 51 51 52 51 44 43 43 43 40 39 35 35 37 40 44 46 48 48 45 43 48 52 50 51 49 48 46 43 47 46 44 41 52 52 41 50 55 57 60 57 49 57
51 51 51 51 51 50 47 43 45 38 34 37 36 40 41 41 44 42 48 51 46 52 55 55 53 50 50 50 49 48 44 47 43 34 41 33 50 61 61 58 61 62 62 62
50 50 50 50 51 51 46 44 45 40 33 40 41 40 41 44 46 44 46 51 55 57 53 43 38 38 39 43 47 45 46 45 35 35 38 45 52 57 57 55 54 63 61 62
50 50 50 50 50 51 47 45 46 44 38 37 46 43 43 39 39 41 45 54 55 52 44 39 34 29 37 35 42 46 44 45 37 33 30 32 45 58 64 63 46 62 61 61
50 50 49 49 50 51 47 43 46 43 36 45 48 42 41 48 45 41 45 46 46 49 37 32 29 33 42 34 32 33 34 36 33 33 32 37 53 62 63 44 44 62 62 61
50 50 50 50 49 51 47 43 46 43 38 44 49 50 44 47 47 40 43 43 44 38 32 35 32 30 39 38 44 40 37 33 32 34 30 30 56 58 51 54 59 62 61 60
49 50 50 50 50 50 49 41 46 48 42 44 51 50 52 50 52 45 47 45 45 41 37 35 36 30 34 37 35 50 35 41 37 41 38 52 55 55 59 60 60 60 60 63
48 49 49 50 50 50 48 43 44 43 39 41 42 43 50 55 53 52 41 44 51 45 47 40 40 35 40 29 34 44 49 53 45 44 49 53 56 58 58 57 58 61 66 62
49 49 49 50 50 49 48 44 46 43 41 35 39 52 50 55 54 51 49 46 48 48 45 41 38 35 46 36 43 42 47 52 48 45 52 55 57 59 58 57 59 62 64 63
48 48 48 49 49 48 48 47 48 48 41 35 39 49 51 54 51 49 48 46 43 41 39 37 37 42 42 42 43 40 50 47 41 39 51 52 55 61 61 58 60 62 59 61
48 48 48 49 48 49 45 40 46 49 48 41 33 46 48 49 50 48 47 45 43 42 42 39 43 49 44 32 34 50 55 56 55 52 57 58 58 60 61 59 58 59 58 58
48 48 49 48 49 47 41 38 44 50 49 42 32 34 46 49 47 44 44 45 42 42 41 41 40 41 43 33 33 49 54 56 58 58 57 53 54 54 56 57 55 56 57 57
48 49 48 47 48 48 44 47 50 50 46 45 31 31 37 46 38 36 43 39 41 41 39 41 40 42 42 35 40 42 45 48 51 52 54 53 56 55 55 54 53 51 51 52
48 48 48 46 44 40 42 50 51 50 45 34 28 27 30 39 39 38 38 41 30 41 35 37 42 37 32 34 35 38 39 42 43 49 51 52 50 51 52 52 50 48 46 48
49 47 42 34 41 49 49 45 41 41 41 38 29 35 27 35 34 31 31 33 30 28 37 43 36 31 35 34 37 38 39 42 45 43 42 45 45 47 48 47 46 45 42 40
45 40 37 42 48 44 40 32 32 35 30 35 34 34 32 37 32 32 35 32 29 26 32 35 33 26 31 33 34 37 38 40 42 43 41 41 39 39 38 36 36 36 35 32
44 44 45 43 41 37 32 27 31 29 28 33 31 34 37 35 37 32 35 32 31 27 35 33 25 28 32 33 32 33 34 35 35 37 36 35 36 35 34 32 30 30 29 28
47 44 38 38 32 27 21 22 25 29 31 32 34 33 34 35 35 32 32 29 30 36 29 22 23 29 31 32 32 31 32 32 32 31 32 31 30 30 30 28 28 28 27 27
34 32 24 26 25 25 24 25 27 30 31 31 32 33 33 32 31 32 31 32 32 27 21 18 23 28 29 30 31 29 28 28 28 28 28 27 26 26 26 26 26 26 25 25
25 25 20 20 27 25 27 29 30 31 32 30 32 33 34 32 31 31 30 26 19 20 16 21 25 27 29 28 28 28 27 26 26 26 26 25 25 25 24 25 25 25 25 24
25 23 19 20 17 17 19 24 26 30 30 30 32 31 29 26 26 23 21 19 15 17 21 23 25 25 26 27 27 27 27 27 26 26 26 25 25 24 24 25 25 24 24 23
26 23 25 22 18 21 23 27 23 31 29 28 27 20 21 28 19 17 21 16 18 20 21 24 23 23 24 25 25 25 26 26 27 26 26 25 26 26 25 23 24 25 25 24

GFSNW_sfc_temp_066.txt.gz
Temp
52 53 53 53 53 53 50 44 34 47 52 34 36 32 38 45 44 49 46 47 44 42 45 43 45 47 52 59 58 51 56 50 43 49 58 62 59 54 51 39 39 39 35 41
52 51 52 52 52 53 47 39 38 47 48 28 30 37 39 41 41 43 43 43 47 47 42 38 45 48 56 56 54 51 53 46 38 43 51 58 52 54 56 50 45 40 32 40
51 51 51 51 52 52 48 36 32 39 40 39 35 35 36 37 46 42 43 42 46 43 40 44 40 44 53 54 53 51 52 49 46 40 45 50 47 52 57 53 36 40 39 47
51 52 52 52 52 52 47 37 34 38 31 33 36 38 38 36 36 44 45 40 40 39 36 39 40 45 47 53 52 52 50 43 49 52 54 55 53 52 54 50 49 42 46 47
50 51 51 51 51 52 45 32 35 39 35 40 35 36 34 35 39 40 39 38 43 43 37 40 37 43 44 46 50 48 49 40 46 45 52 55 52 55 53 52 52 51 52 50
51 51 51 51 51 50 43 42 42 43 40 36 34 33 35 38 40 42 44 44 41 40 43 46 47 48 47 47 45 44 43 40 38 37 47 50 40 49 51 52 54 53 45 52
51 51 51 51 51 50 47 44 44 37 32 35 35 38 40 38 40 37 45 46 41 47 53 49 47 46 47 47 46 49 42 40 38 31 37 32 49 58 56 54 57 60 58 58
50 50 50 51 51 51 44 45 43 38 33 36 38 39 40 41 42 41 42 46 50 51 46 38 37 34 37 40 45 45 47 40 32 31 34 42 48 53 54 53 50 58 59 60
50 50 50 50 50 51 45 44 46 42 36 35 43 40 41 36 36 37 41 50 52 47 39 34 29 26 33 34 39 46 43 42 36 32 29 31 43 54 60 59 41 58 61 60
49 49 50 50 50 50 47 44 46 40 33 41 43 38 38 44 39 35 39 42 43 46 32 27 27 30 41 32 31 31 33 32 32 32 32 35 47 54 59 43 44 56 60 60
49 49 49 50 50 50 47 44 46 41 33 38 46 47 41 43 43 35 39 39 40 36 31 30 29 26 35 35 40 36 33 32 31 32 31 28 53 55 47 49 54 57 57 57
49 49 49 49 49 50 49 42 46 47 41 39 47 50 51 53 51 45 42 41 42 41 34 32 32 28 28 34 31 45 34 41 36 38 38 51 53 54 53 55 53 55 54 57
49 49 49 49 49 49 48 42 44 44 39 38 41 44 50 53 52 51 39 41 48 44 43 38 36 33 35 32 33 40 44 49 42 42 49 50 53 58 59 57 57 59 58 57
48 49 49 49 50 50 48 42 46 44 40 33 38 51 48 52 52 51 50 48 48 47 44 37 33 31 41 32 40 41 47 49 48 43 49 52 54 54 57 59 60 58 60 57
48 49 49 49 50 50 47 45 47 45 41 34 37 46 48 50 50 50 49 48 45 43 39 35 33 38 39 38 40 38 46 45 39 38 49 49 51 57 60 56 58 60 58 56
49 49 49 50 49 48 44 39 44 47 45 37 33 45 44 46 47 46 45 46 43 42 37 35 41 44 41 34 34 41 43 45 48 45 51 52 56 58 58 56 55 57 56 55
49 49 49 48 48 46 41 37 43 50 46 37 33 35 44 48 46 43 42 44 41 40 39 36 38 40 45 33 32 38 41 42 45 46 49 47 50 51 51 53 53 53 54 54
47 47 48 49 50 48 43 45 49 49 43 41 30 33 38 41 36 34 40 37 38 38 38 38 40 41 40 34 35 38 40 41 43 43 47 47 49 50 50 51 50 49 48 47
48 48 48 46 44 40 42 49 49 48 43 31 25 25 27 39 37 36 36 37 31 38 29 36 40 35 28 30 32 34 36 37 39 43 43 45 44 46 45 46 45 43 39 39
46 45 40 34 41 48 48 44 39 38 38 35 28 33 29 34 34 32 31 27 29 31 33 39 32 28 32 32 34 35 35 37 40 38 36 37 39 40 38 37 38 37 35 33
43 38 36 41 47 43 39 31 32 33 30 33 33 34 29 36 27 31 34 33 30 25 31 30 28 24 28 32 32 33 34 36 36 38 38 38 37 36 34 33 31 30 30 28
43 41 43 41 40 35 31 29 32 29 30 33 30 32 33 34 38 32 34 32 31 27 32 25 17 25 29 31 31 31 32 33 33 33 32 32 32 31 30 29 27 27 27 26
44 40 35 34 29 22 19 21 27 28 30 31 32 32 31 34 36 32 32 30 28 34 24 18 20 27 28 28 29 29 30 29 29 28 29 28 27 28 27 26 27 27 26 26
31 28 19 21 20 21 22 23 25 29 29 29 30 32 33 32 31 32 30 29 29 21 16 14 21 25 27 27 28 26 25 26 25 25 25 25 25 24 24 25 25 24 22 23
23 23 14 16 21 20 25 24 27 30 30 29 31 32 33 30 28 27 26 22 14 16 12 18 22 25 26 25 26 25 25 24 24 24 23 23 23 23 23 24 24 24 23 22
22 22 15 16 12 13 14 14 17 23 28 30 31 28 27 24 22 20 17 16 11 14 19 21 23 23 23 23 25 25 25 25 24 24 24 24 23 23 23 23 24 23 23 22
22 16 14 8 8 13 19 16 23 29 28 24 26 19 19 24 18 16 19 13 16 19 20 21 21 20 22 23 23 23 22 22 24 25 25 25 25 25 23 21 22 23 22 22

GFSNW_sfc_temp_069.txt.gz
Temp
52 52 52 52 52 52 50 44 34 47 50 34 32 29 35 44 43 45 44 43 42 40 41 40 41 43 49 54 52 48 52 46 41 47 55 57 55 51 49 37 37 37 34 41
51 51 52 52 52 52 47 39 38 46 47 29 28 35 37 40 40 41 41 40 42 44 40 36 41 45 52 53 53 50 51 42 37 41 47 53 49 51 52 47 42 39 34 38
51 51 51 52 51 52 47 34 32 38 40 37 35 33 33 34 43 40 41 40 41 39 37 41 37 40 50 53 52 50 50 44 39 35 41 48 45 51 53 51 37 38 41 45
50 51 51 51 51 51 46 36 34 37 31 33 36 37 36 33 34 42 43 38 38 36 32 35 35 41 45 52 51 51 47 37 42 43 47 50 51 51 52 50 48 41 47 44
50 50 51 51 51 50 44 32 35 39 36 38 36 36 33 35 37 39 37 35 39 39 35 37 35 39 40 43 48 47 47 38 38 37 47 49 47 52 52 50 50 50 50 46
50 50 50 50 50 49 42 43 42 41 37 34 33 33 36 36 40 41 44 41 38 37 40 43 45 46 45 44 44 42 43 39 36 31 40 41 37 46 51 53 52 51 44 50
49 49 50 50 50 49 46 44 43 36 32 34 34 38 38 37 39 37 43 43 39 44 49 46 46 43 44 44 44 47 38 37 36 32 35 28 43 53 56 52 55 54 53 55
49 49 49 49 50 50 46 44 43 39 33 37 38 39 38 39 41 39 40 44 48 49 43 36 34 32 35 39 42 43 44 37 32 28 31 38 44 50 49 48 50 56 54 56
50 49 49 50 49 50 46 44 46 42 36 34 42 39 40 34 34 36 40 48 50 45 39 33 28 23 32 32 39 47 43 41 35 32 28 26 42 50 56 56 41 55 62 58
49 49 49 50 50 50 46 43 45 40 34 41 43 37 37 41 38 33 38 41 40 43 31 27 25 28 37 30 30 33 33 33 32 31 30 33 45 51 54 37 39 54 57 54
49 49 49 50 50 50 47 43 46 40 34 38 44 47 42 42 41 33 38 39 38 32 29 28 28 24 32 34 36 33 31 31 28 32 30 25 50 48 41 46 50 50 53 52
49 49 49 49 49 50 49 41 46 46 39 38 42 45 48 52 50 44 42 42 40 39 32 30 30 25 25 32 27 41 32 36 32 34 36 47 50 48 50 51 51 53 53 54
48 48 49 49 49 50 48 43 44 42 37 37 38 39 47 51 53 52 38 40 46 41 41 35 34 30 33 25 29 35 39 44 39 38 45 48 52 54 56 56 55 57 57 55
48 48 49 49 50 50 49 43 45 43 39 32 37 49 45 52 52 52 49 46 45 44 41 36 31 29 39 30 37 35 40 43 42 43 49 50 52 54 55 56 57 57 57 58
49 49 49 49 49 50 48 45 46 48 39 32 35 45 48 49 47 47 47 46 42 39 36 34 31 36 37 36 36 33 39 38 34 34 43 41 51 55 55 54 55 56 55 55
48 49 49 49 49 46 43 35 44 48 45 37 31 44 43 44 46 46 46 44 42 41 40 37 39 44 40 29 31 39 39 42 43 39 43 43 48 52 52 54 54 54 54 53
48 48 49 49 47 45 40 37 42 47 45 36 32 35 43 47 44 42 42 43 42 41 39 37 37 40 42 33 30 36 39 40 42 43 43 43 44 44 48 49 50 50 50 47
48 48 48 47 49 48 43 44 48 48 41 38 31 33 37 43 36 36 41 38 39 39 37 36 35 38 38 32 33 36 38 39 41 40 43 42 44 43 42 44 45 43 39 38
48 48 48 46 43 41 42 49 50 47 41 33 30 28 30 38 36 35 35 36 32 37 30 33 36 34 25 28 31 33 34 34 35 39 42 41 40 39 38 37 36 35 32 32
48 45 39 32 42 48 48 43 37 38 36 35 28 29 31 37 35 29 30 28 28 30 33 37 28 26 30 30 33 33 32 34 36 34 35 35 35 36 34 31 32 31 30 29
41 37 34 42 46 43 38 31 30 32 30 32 30 31 28 34 29 33 31 32 27 22 28 30 26 23 26 29 29 31 32 33 34 35 34 34 33 32 31 29 29 28 28 27
42 42 43 41 37 33 31 29 29 31 29 32 28 33 32 34 37 30 33 31 31 27 31 24 17 23 27 28 28 28 29 30 30 30 29 29 29 29 28 27 27 26 26 25
43 38 32 31 25 19 17 19 22 23 30 29 31 32 33 34 36 31 32 29 29 30 21 15 18 25 26 26 27 26 27 27 27 26 27 26 26 27 26 25 25 25 24 24
29 25 15 16 13 18 19 21 22 27 26 27 28 31 32 32 31 32 29 25 27 18 13 11 19 23 25 25 26 25 23 23 23 23 23 23 23 23 23 23 22 21 20 20
23 22 12 15 20 21 22 23 24 28 28 28 30 32 32 27 25 24 21 19 12 14 10 17 21 23 24 24 24 23 23 23 22 23 23 22 22 22 21 22 22 22 21 20
23 20 15 17 13 15 16 16 19 26 27 30 30 28 25 21 21 17 15 14 10 12 16 19 22 22 22 21 22 23 24 24 24 23 23 22 21 20 20 21 21 20 20 19
19 15 15 8 6 9 15 18 21 27 26 24 25 17 18 23 17 14 16 10 14 17 18 19 18 18 18 20 20 20 20 20 20 21 23 22 22 22 21 19 20 20 20 19

GFSNW_sfc_temp_072.txt.gz
Temp
51 51 52 51 52 52 49 43 34 46 50 34 34 30 33 42 41 45 43 42 40 38 39 38 39 41 45 51 50 44 47 42 37 45 53 54 50 47 47 37 35 35 33 40
50 51 51 51 51 51 45 39 36 46 48 30 30 35 35 37 38 40 39 38 39 41 38 34 39 43 50 51 49 46 47 38 31 37 46 50 46 48 49 45 41 40 33 38
50 51 51 51 51 52 46 32 31 37 40 38 35 33 31 32 40 38 40 38 40 38 36 39 36 39 46 48 51 49 50 44 40 32 36 43 39 46 50 48 37 37 41 43
50 50 50 51 51 51 45 32 32 37 30 33 36 37 34 31 32 39 40 36 36 35 30 33 34 40 43 46 49 50 48 37 40 42 44 44 44 44 46 45 46 41 42 46
50 50 50 50 50 50 42 31 34 38 32 39 35 35 33 32 34 36 35 34 37 37 33 34 33 37 36 38 44 44 45 37 37 36 43 44 41 44 46 46 46 47 46 46
49 50 50 50 50 49 41 39 40 40 36 35 32 33 35 35 39 40 42 41 38 35 38 41 41 43 42 41 38 37 40 37 34 31 40 40 33 40 43 46 49 48 43 48
49 50 50 49 50 49 44 42 42 36 32 34 34 38 38 38 39 37 42 43 39 44 46 45 42 40 41 40 40 42 39 37 34 29 33 25 41 48 50 45 48 52 52 52
48 48 48 49 49 50 45 45 42 38 32 35 36 37 37 40 42 39 41 44 48 49 42 34 32 31 32 35 39 41 44 37 30 25 28 35 40 48 48 43 44 51 50 54
49 48 48 49 49 50 46 44 46 41 35 34 41 37 37 34 35 36 39 47 49 46 37 31 27 23 30 30 35 42 40 39 32 31 25 23 37 49 53 51 38 51 51 51
49 49 49 48 49 49 46 44 47 40 35 41 42 37 36 40 38 34 38 40 39 43 31 29 27 27 35 28 31 32 33 33 31 31 29 33 42 48 52 33 37 45 50 49
49 49 49 49 49 49 46 44 47 40 34 39 44 45 40 42 41 34 38 37 36 33 28 29 29 25 31 31 34 32 31 29 31 32 29 26 47 46 41 44 46 47 51 49
48 49 49 50 48 49 48 40 45 45 39 38 43 45 47 50 49 44 43 40 37 36 30 28 30 25 25 31 26 37 29 34 31 33 33 44 46 46 50 50 52 50 51 53
48 48 49 49 49 49 47 43 43 42 35 37 38 39 46 50 50 52 40 40 45 38 41 33 32 28 31 25 28 34 37 41 35 36 41 44 48 48 51 51 51 54 56 55
48 48 48 49 49 50 48 42 44 42 39 32 34 47 44 50 49 49 49 48 46 44 41 34 29 29 37 29 35 33 38 40 38 39 43 44 47 48 51 52 54 54 56 56
48 48 48 49 49 50 46 45 45 47 39 31 32 43 47 50 48 47 48 47 44 41 37 32 29 33 35 33 34 31 37 36 33 32 38 39 40 44 46 46 48 52 53 53
48 48 48 48 49 49 44 36 44 47 42 35 30 41 42 46 47 46 45 47 43 41 39 35 38 40 36 26 28 37 41 41 42 40 40 40 41 44 44 43 47 46 44 42
48 48 48 48 49 46 39 37 41 48 46 36 25 33 41 46 45 42 42 44 42 40 37 37 38 36 39 32 31 35 38 40 40 43 40 39 41 40 42 42 44 43 40 38
48 48 48 48 48 46 43 44 48 48 41 39 28 32 36 44 36 36 41 39 39 39 36 34 34 37 36 32 32 35 37 37 39 38 40 41 42 41 38 39 38 36 33 33
48 47 48 46 43 40 41 48 49 46 40 32 32 29 29 40 36 37 37 38 32 37 33 32 37 32 26 27 30 31 32 31 32 36 38 39 38 37 34 33 32 30 28 29
47 44 38 33 41 48 47 41 37 37 38 34 31 32 31 35 33 32 33 31 31 30 33 36 26 25 28 30 30 31 31 32 34 32 33 32 32 33 31 29 30 29 28 26
42 37 34 42 48 42 36 31 31 32 29 32 32 31 30 33 29 31 30 31 27 26 28 31 25 21 25 28 27 29 30 31 31 32 31 31 31 30 29 28 28 28 27 26
42 41 43 40 35 32 30 29 31 29 28 31 32 32 33 34 34 31 32 26 31 26 29 23 16 22 25 27 26 27 27 27 28 28 27 28 28 27 27 26 25 25 24 23
41 35 30 30 23 15 15 17 24 24 27 28 31 31 33 34 35 31 32 28 26 27 19 15 17 23 25 25 26 25 26 26 26 26 26 25 25 25 25 23 23 23 22 22
28 23 12 13 11 16 18 19 19 26 23 23 25 32 32 32 30 28 27 24 24 17 11 11 18 22 23 24 25 24 22 23 23 22 22 22 22 21 21 21 21 20 18 18
20 20 10 13 18 20 21 22 24 26 27 27 30 30 29 24 21 21 21 16 11 13 10 16 19 21 22 22 23 23 22 22 21 21 20 20 20 19 19 20 20 20 19 19
22 19 14 16 15 15 16 18 19 25 25 30 30 26 22 20 20 16 13 13 8 10 14 17 19 18 19 19 20 20 21 22 21 21 21 21 19 19 19 19 19 18 18 17
18 14 15 10 12 10 14 16 20 25 26 22 23 16 16 22 16 12 13 8 11 16 16 17 17 17 18 19 19 19 19 19 19 20 21 20 20 20 19 16 17 18 18 17

GFSNW_sfc_temp_075.txt.gz
Temp
50 51 51 51 51 51 48 41 33 46 49 35 34 30 35 42 41 46 43 43 41 39 41 40 41 42 46 51 52 46 49 45 40 46 54 57 55 52 51 42 40 41 41 46
51 50 51 51 51 51 43 37 37 46 47 30 31 34 34 39 39 41 41 39 41 43 39 37 41 43 50 50 49 46 50 43 37 41 49 52 48 51 53 49 46 42 38 45
50 50 50 50 50 51 44 34 30 37 40 40 37 32 33 32 41 40 42 40 41 40 38 42 38 40 47 49 50 50 51 44 37 35 38 44 41 46 49 48 41 43 44 48
50 50 50 50 50 51 44 34 32 36 30 32 35 38 37 33 33 40 42 38 39 37 33 35 37 42 43 47 48 49 50 40 42 42 46 46 45 44 46 44 46 41 47 50
50 50 50 50 50 50 40 32 33 37 35 38 34 35 32 33 35 37 35 35 38 39 35 38 37 40 40 39 45 44 45 38 41 38 46 47 42 46 48 48 48 48 50 49
49 50 50 50 50 49 39 41 40 38 36 36 33 33 35 35 38 40 43 41 38 37 39 43 44 45 44 44 40 39 39 39 36 34 42 42 36 44 47 50 52 50 45 53
49 49 49 49 50 49 42 40 40 34 30 33 34 37 38 38 39 37 42 43 40 44 49 47 46 42 41 42 41 43 38 37 36 32 34 27 45 53 52 48 51 54 54 55
49 49 48 49 49 50 43 44 40 36 31 35 35 38 37 40 41 40 41 44 48 49 45 34 33 34 35 38 40 40 42 39 33 31 31 39 46 51 49 47 48 50 51 53
49 49 48 48 49 50 45 43 45 40 34 33 41 38 39 35 34 36 40 46 49 44 35 32 28 27 33 33 37 42 41 42 34 31 28 27 43 51 54 55 40 51 52 51
49 49 48 48 48 49 45 43 46 41 34 40 42 37 36 42 38 35 38 38 37 42 34 29 29 30 37 32 33 32 33 34 31 32 29 37 46 51 54 38 43 52 53 54
48 49 48 48 48 48 45 42 47 41 34 39 45 46 41 41 39 34 38 35 35 35 31 31 31 30 35 35 38 36 35 33 32 33 30 29 50 50 45 51 53 52 56 56
48 49 49 48 48 49 48 41 46 47 39 38 44 47 48 50 48 43 41 41 38 39 35 34 35 31 32 35 31 40 35 39 38 39 40 49 51 51 55 55 53 54 55 58
48 48 49 48 48 48 48 42 45 42 35 37 38 39 48 50 51 53 38 42 46 41 44 37 36 32 36 31 34 39 42 44 40 40 47 48 50 53 50 50 48 51 53 55
48 48 48 48 48 48 47 43 44 41 38 33 35 46 45 51 50 50 50 48 47 46 44 38 34 35 40 35 39 39 43 44 42 41 47 46 52 47 46 46 49 49 50 54
48 48 48 48 48 48 46 44 44 45 39 31 34 43 47 49 48 47 48 48 45 43 40 36 36 38 39 38 38 38 43 42 39 40 39 39 42 46 46 44 44 46 44 43
48 48 48 48 47 47 43 35 43 46 45 36 30 42 42 46 46 46 45 45 45 42 40 37 40 42 41 34 34 39 41 42 42 39 43 43 43 46 44 41 42 43 41 39
47 48 48 48 47 44 39 37 42 47 46 36 31 34 41 44 44 43 44 45 43 42 39 38 39 39 41 34 30 35 37 38 39 42 40 41 43 40 41 40 40 40 38 37
47 48 48 48 48 47 42 44 48 48 41 40 28 29 36 44 37 35 41 38 39 39 37 37 37 39 39 32 32 34 34 35 38 36 38 37 41 41 38 37 37 35 31 31
48 48 48 45 42 39 41 48 48 47 41 32 30 27 29 41 37 37 35 38 32 38 33 34 38 34 28 27 28 30 30 30 31 35 37 38 36 36 34 34 31 31 29 30
46 43 38 33 41 47 46 41 37 37 38 36 31 33 31 36 34 33 33 35 32 30 33 36 31 25 27 28 29 30 30 31 32 30 31 30 30 31 29 28 28 28 28 28
41 37 36 43 47 41 37 32 31 33 30 32 33 32 31 35 33 32 33 32 32 27 31 32 26 22 24 28 28 29 29 30 30 31 31 29 29 28 28 26 26 26 26 24
42 41 41 39 34 32 30 28 30 31 28 32 32 32 34 33 36 34 33 30 31 26 29 24 16 22 26 27 26 27 27 28 28 28 27 27 27 26 25 25 24 23 23 22
39 34 30 30 24 16 16 18 23 24 27 28 31 31 33 35 36 33 33 26 23 28 19 14 18 23 25 25 26 25 26 26 25 25 25 25 24 24 23 22 22 21 20 20
27 22 12 12 11 16 18 19 21 26 27 26 28 32 30 31 28 26 25 22 25 16 12 11 18 21 23 24 25 24 22 22 22 21 21 20 20 20 20 20 19 18 17 17
20 19 10 14 18 20 20 21 23 26 27 28 31 28 29 24 21 22 23 17 12 13 11 16 19 21 21 21 22 22 21 21 21 21 20 19 19 19 18 19 19 19 17 17
21 17 15 16 16 16 16 18 19 24 24 29 29 25 21 19 19 15 12 13 9 12 15 19 20 19 20 20 21 21 22 21 21 21 20 20 19 18 18 18 18 17 16 15
19 14 17 13 14 14 15 17 20 24 26 22 23 17 16 22 16 11 14 11 14 16 17 18 18 18 18 19 20 19 19 19 19 20 20 19 19 19 18 16 17 17 17 16

GFSNW_sfc_temp_078.txt.gz
Temp
51 51 51 51 51 51 49 43 34 53 53 36 36 33 42 45 48 51 47 46 45 43 44 44 45 44 49 55 57 51 56 52 48 51 60 63 60 56 57 49 47 51 50 53
51 51 51 50 51 51 49 39 42 50 47 31 32 36 41 46 46 47 46 44 46 48 44 41 46 47 54 54 53 50 54 49 43 47 55 60 57 59 59 58 56 49 44 53
51 50 50 51 50 51 47 36 32 40 41 41 42 36 38 39 47 47 48 46 46 45 43 48 43 45 52 54 53 48 52 46 43 41 44 50 46 50 53 52 46 49 51 55
50 50 50 50 50 50 46 35 34 43 31 35 36 41 43 40 40 45 47 43 44 43 40 42 42 46 48 52 51 53 52 44 45 47 49 50 49 49 51 49 51 45 51 53
49 50 50 50 49 50 43 33 35 38 38 39 36 35 38 41 44 43 41 41 45 45 40 43 41 46 46 44 50 48 51 46 48 45 51 52 49 53 54 54 55 54 55 54
49 49 49 50 49 49 41 44 43 39 38 41 36 34 42 42 45 46 48 45 43 42 45 50 51 51 50 48 45 44 44 44 43 39 47 49 41 49 53 56 59 57 52 59
49 49 49 49 49 50 49 47 42 34 32 35 40 43 42 39 43 42 45 47 43 47 55 52 51 49 49 50 48 49 44 43 41 39 38 30 51 59 60 57 59 62 61 62
49 49 49 49 49 50 47 49 43 37 32 41 41 42 42 45 45 43 43 46 49 51 45 38 38 40 40 44 48 47 49 45 38 35 38 45 51 55 54 52 53 58 57 60
49 49 49 49 48 49 47 48 49 42 34 38 46 42 41 38 41 40 42 46 50 46 37 33 32 32 39 38 42 49 48 47 40 36 33 31 47 56 60 60 47 60 59 59
49 49 48 49 48 49 47 46 50 42 34 44 48 42 42 45 44 39 41 39 38 42 35 33 34 35 44 36 36 32 35 36 32 35 34 42 54 59 60 43 46 59 61 61
50 49 48 48 49 48 45 43 49 43 35 42 49 49 44 46 44 38 39 36 36 35 32 36 37 36 42 41 44 39 38 35 34 36 32 31 56 56 48 54 59 59 60 60
50 49 48 48 49 48 47 39 47 48 39 40 51 53 54 53 51 44 42 43 42 45 40 42 43 38 41 42 37 50 39 46 42 45 45 55 55 56 58 56 54 56 56 59
49 49 49 48 49 48 47 42 44 42 38 38 41 40 50 55 54 55 39 43 49 48 54 47 45 38 46 36 41 46 49 54 46 45 53 56 56 58 56 56 54 57 57 56
49 49 48 48 48 48 47 42 45 43 38 34 38 51 44 52 54 53 52 51 53 52 49 44 42 40 49 44 47 46 51 52 48 49 54 54 58 54 53 53 55 54 54 53
49 48 48 48 48 48 46 45 46 49 45 36 39 45 50 50 50 50 51 47 45 43 39 37 40 48 45 47 47 45 54 50 45 45 48 46 49 53 49 50 51 51 49 49
48 48 48 47 47 47 43 35 44 48 48 39 33 48 46 49 50 47 47 45 43 42 39 39 47 48 46 40 41 47 48 48 47 44 47 47 51 52 49 48 48 48 47 46
48 47 47 47 46 44 41 41 42 47 49 40 35 36 47 50 48 46 45 45 42 41 38 39 45 46 46 40 38 37 39 41 44 41 41 43 42 38 44 45 45 45 44 42
47 47 46 46 47 47 44 47 48 50 44 44 34 35 40 49 41 39 45 40 41 40 38 40 43 46 46 36 33 35 36 38 39 38 40 39 40 40 37 38 37 37 34 33
47 47 47 44 42 39 42 48 49 51 46 36 33 33 31 47 41 39 38 39 34 39 35 37 39 36 31 27 29 31 32 33 34 37 41 39 36 35 35 34 32 31 30 30
46 44 39 33 41 49 48 43 38 41 41 43 37 42 33 41 36 35 36 36 35 32 35 38 35 26 28 30 31 32 32 32 33 31 33 33 34 33 33 31 31 31 29 28
43 39 36 43 48 45 40 34 35 35 33 38 38 40 34 37 35 34 35 35 34 31 32 34 30 27 27 31 30 32 33 33 33 33 33 32 31 31 29 29 29 28 26 24
45 42 42 40 37 38 35 32 33 34 31 35 34 34 36 35 40 40 36 33 34 28 34 31 25 25 29 31 30 30 31 31 30 31 29 29 29 29 28 27 26 24 22 22
47 42 35 38 31 26 27 25 28 29 31 32 34 33 36 38 40 35 35 30 27 36 27 23 22 26 28 29 30 29 30 30 29 28 29 28 26 27 27 24 24 23 22 22
35 31 22 25 22 24 25 27 28 30 30 32 34 35 34 36 31 30 28 27 31 24 21 18 24 24 25 27 27 27 24 24 24 23 23 22 22 21 21 21 21 20 19 19
28 29 20 22 24 26 26 27 29 28 29 32 35 35 36 29 27 28 27 23 19 21 20 22 24 24 25 25 25 24 23 22 22 22 21 20 20 20 19 20 20 19 18 18
27 24 23 25 26 24 25 25 27 29 28 35 36 30 27 23 25 22 18 20 17 18 22 24 25 23 23 23 23 23 23 23 22 22 21 21 19 19 18 19 18 18 18 16
24 21 24 23 24 21 22 23 25 29 31 28 30 24 20 28 21 16 20 17 19 21 21 22 22 21 21 22 22 21 22 21 22 21 21 20 21 20 19 16 17 17 17 16

GFSNW_sfc_temp_081.txt.gz
Temp
51 51 51 51 51 51 50 49 35 58 56 38 37 37 46 51 52 56 53 52 50 48 48 47 48 41 50 57 57 51 58 50 45 52 63 66 62 57 56 45 45 51 50 49
51 51 50 51 51 50 52 41 45 57 51 33 37 43 46 50 50 52 51 49 52 54 48 43 49 49 55 57 54 50 53 51 41 41 53 60 57 61 61 60 57 46 39 52
50 51 50 51 51 51 49 41 34 46 44 41 40 40 42 42 51 52 54 52 54 50 47 51 46 49 54 55 55 49 53 49 48 43 48 54 52 57 61 57 48 50 51 55
50 50 51 51 50 50 48 40 36 46 35 39 41 43 41 44 43 51 53 49 49 48 43 46 46 51 52 53 52 55 53 44 48 51 53 53 52 53 56 54 55 48 53 56
50 50 50 50 50 50 45 34 38 47 44 46 44 41 38 41 48 49 46 45 50 51 45 45 43 49 50 48 52 51 54 45 48 45 52 54 51 55 56 56 56 57 57 57
49 50 50 50 50 49 40 49 49 44 42 44 39 40 44 41 48 51 54 50 48 45 50 52 53 54 52 52 48 47 47 47 46 40 50 49 43 52 54 56 60 59 52 60
50 49 49 50 50 50 45 51 48 38 34 41 44 46 44 43 44 42 52 53 47 52 58 57 54 52 51 50 51 53 45 45 46 40 43 32 52 63 62 59 62 64 63 65
50 49 48 49 49 50 49 51 46 42 35 45 45 46 43 39 44 45 48 51 53 53 49 42 39 41 41 44 50 51 52 46 41 36 39 47 54 58 57 56 58 63 62 64
49 50 49 48 49 50 50 51 51 42 37 40 49 46 48 42 42 44 47 53 54 49 43 37 33 34 41 40 44 53 51 50 42 40 34 32 50 61 65 63 49 63 62 61
49 49 49 48 48 49 48 49 52 44 36 48 50 46 46 52 47 40 46 44 40 43 36 33 35 37 48 38 37 38 39 39 35 37 36 45 55 61 63 44 46 59 62 61
49 49 49 49 48 48 45 45 53 47 40 47 52 53 47 51 44 36 43 39 38 35 34 37 40 39 44 45 48 43 39 35 34 38 32 32 61 60 50 53 59 61 61 61
50 50 49 49 49 48 48 39 51 52 43 46 54 55 57 55 52 44 43 46 41 46 41 44 45 39 44 45 37 52 37 47 43 46 46 58 60 53 59 60 58 59 59 60
49 49 50 50 49 48 47 41 47 44 39 42 46 45 54 59 57 56 40 44 50 46 54 43 43 38 49 39 43 45 53 54 47 43 54 55 53 56 59 59 58 59 60 59
49 49 49 49 49 48 48 41 47 43 39 34 43 57 50 56 57 55 54 50 49 50 46 44 43 41 53 46 48 45 54 52 52 51 53 58 59 57 54 57 58 57 58 57
48 49 49 49 49 48 47 45 47 52 48 39 42 51 55 57 53 51 50 46 43 42 39 40 42 49 48 51 49 47 56 49 47 44 49 50 54 54 53 54 53 53 53 52
48 48 50 49 48 48 43 36 44 54 51 40 36 52 49 51 51 48 46 45 43 42 38 37 48 54 48 41 41 43 49 50 48 43 48 50 52 48 46 46 50 51 50 50
48 48 47 47 48 45 40 40 45 50 51 40 36 40 49 51 48 46 44 46 41 41 39 41 46 46 49 43 39 39 44 46 46 46 46 46 46 40 42 42 44 45 43 40
47 47 47 47 47 47 46 48 49 51 43 43 35 38 39 50 41 38 43 38 39 39 38 43 45 47 44 37 35 39 41 44 44 43 44 43 43 43 44 44 43 41 36 35
46 46 46 44 43 40 42 49 50 50 45 38 37 35 32 48 43 40 39 39 33 39 35 39 45 43 30 29 34 36 36 36 38 42 45 43 40 40 41 41 40 38 35 35
46 45 40 33 42 47 46 43 38 40 44 46 38 43 34 43 41 39 36 38 36 33 36 44 36 28 30 33 36 37 37 38 39 36 35 36 35 35 35 35 34 33 32 32
45 40 36 42 48 46 43 35 38 38 35 43 41 41 37 42 35 36 43 36 37 32 34 34 33 28 29 34 34 37 38 38 37 37 36 34 33 32 32 32 31 30 29 26
46 41 43 43 39 39 36 34 36 37 32 37 37 38 38 38 39 38 36 34 35 30 36 33 27 26 32 33 33 33 34 34 33 34 32 31 30 30 30 29 27 26 26 24
51 46 35 40 36 29 30 27 31 31 34 36 35 34 37 37 38 37 36 32 29 37 31 25 25 28 29 29 31 30 31 30 30 29 29 29 28 28 28 25 26 25 24 24
38 34 25 29 27 28 28 29 30 31 33 34 35 35 36 37 35 33 30 29 33 27 26 21 24 25 27 28 28 28 25 25 25 25 24 23 23 22 23 22 22 21 20 20
31 34 24 25 28 29 29 30 33 32 35 33 36 37 37 32 30 32 30 27 24 25 23 25 26 26 26 26 26 25 25 24 23 23 22 21 21 20 20 21 21 20 19 19
31 28 27 29 30 28 29 30 30 32 32 36 41 34 30 27 30 26 23 26 22 22 23 26 27 24 24 24 24 24 25 24 24 23 23 21 20 19 19 19 19 18 18 17
28 24 28 29 28 26 27 29 29 33 33 30 35 27 23 34 26 21 24 20 21 23 23 25 25 24 23 24 24 24 24 24 23 23 23 22 22 22 20 18 18 19 18 17

GFSNW_sfc_temp_084.txt.gz
Temp
51 50 51 51 51 51 49 45 33 56 57 37 37 34 44 47 52 58 54 53 50 49 51 48 50 44 49 56 55 49 55 48 40 44 54 61 56 51 47 36 38 44 39 42
51 50 50 51 50 50 46 40 43 55 51 33 34 42 44 48 48 52 51 49 53 54 50 44 50 51 55 56 53 48 50 46 37 42 49 57 53 53 52 48 46 37 34 44
51 51 50 50 51 50 44 38 33 45 44 45 41 38 41 42 52 51 53 52 55 51 48 52 47 49 54 56 54 50 51 46 43 34 37 43 46 52 54 51 41 40 41 45
50 51 51 51 50 51 44 37 36 45 34 38 38 42 40 41 43 51 53 49 50 49 43 46 46 51 53 57 51 53 51 40 45 48 45 45 46 44 45 50 49 43 48 50
50 50 50 50 50 50 40 33 37 46 41 44 42 42 39 39 44 47 45 46 50 51 45 47 44 48 48 45 52 50 52 41 45 43 51 51 48 49 52 48 49 54 54 54
49 50 49 50 50 49 39 42 48 45 39 42 40 39 44 44 47 49 50 50 49 47 50 48 51 53 51 50 48 47 46 44 42 37 48 47 40 49 53 55 58 57 50 58
50 49 48 49 50 49 48 44 47 37 33 39 40 46 46 45 47 44 50 45 42 51 56 56 54 53 53 52 50 52 44 43 43 36 41 29 49 60 60 56 59 61 62 57
50 50 49 48 49 50 49 50 44 42 33 41 43 45 46 48 47 45 45 45 51 56 51 42 39 40 41 44 48 48 50 45 38 34 36 44 50 57 56 54 54 61 58 58
49 49 49 49 48 50 49 50 50 43 36 37 47 45 48 43 41 38 45 54 56 52 43 37 31 31 38 38 43 50 49 49 40 38 31 29 48 59 64 63 45 58 60 57
49 49 49 49 49 49 48 48 51 42 34 44 46 42 43 49 45 40 42 45 44 46 35 32 33 34 46 36 37 37 38 39 34 35 33 42 56 60 62 43 43 57 59 57
49 49 49 49 49 49 46 45 52 44 38 42 49 51 46 48 47 38 43 36 39 35 32 33 37 36 42 42 46 42 39 34 33 36 33 30 60 58 48 51 56 57 57 57
49 49 49 49 49 49 48 40 50 51 41 44 53 54 56 53 51 39 41 39 40 44 39 42 42 36 41 42 36 51 38 45 40 42 42 56 57 54 58 58 56 56 56 57
49 49 49 50 49 49 47 42 46 44 39 42 45 44 54 58 56 53 39 40 45 43 46 40 41 37 46 36 41 43 46 53 39 44 46 47 47 53 57 58 55 56 57 56
48 49 49 50 49 49 48 41 45 42 39 33 41 56 50 58 59 57 54 50 50 49 44 38 39 36 51 43 47 45 47 46 47 46 47 45 45 49 51 54 54 53 55 54
48 49 49 49 50 49 47 43 46 46 46 36 41 52 57 58 55 53 52 48 46 41 36 35 37 47 46 48 48 42 46 41 40 37 44 42 41 48 51 50 50 50 50 49
48 48 49 49 49 49 40 33 44 50 51 38 34 50 52 54 52 49 49 47 45 40 37 38 45 52 45 37 38 40 47 48 46 41 47 49 49 45 47 45 46 46 45 43
48 48 49 49 48 43 40 41 45 49 48 37 34 37 49 52 50 47 46 47 42 40 38 39 43 44 45 39 34 35 42 46 45 46 46 45 44 39 45 46 46 46 44 41
48 48 48 48 47 47 44 51 49 51 42 42 33 34 40 50 40 38 46 39 39 39 38 42 42 45 41 32 35 39 40 43 41 42 46 44 45 45 44 45 44 42 38 36
47 48 46 44 42 39 43 49 50 52 45 36 35 33 32 46 40 39 38 38 33 38 34 37 43 36 26 29 33 35 36 36 37 41 45 41 40 39 39 38 36 34 33 33
47 45 39 33 42 48 47 42 37 38 41 41 36 43 35 43 40 38 36 37 35 32 36 44 36 26 32 34 36 36 37 38 38 34 32 33 32 33 33 32 32 31 29 28
44 39 36 43 49 45 40 33 35 36 34 41 42 42 36 42 36 36 41 35 36 31 34 34 32 26 28 34 34 36 36 36 36 35 33 32 31 30 30 29 29 28 27 25
45 41 43 43 40 38 35 33 37 38 34 39 37 37 41 39 40 38 37 33 35 29 36 32 24 25 30 32 31 32 32 32 31 32 30 29 29 29 28 27 25 25 25 23
50 43 37 39 36 30 31 28 32 31 34 35 36 33 37 37 38 33 34 31 30 38 31 23 23 26 29 29 29 29 29 29 28 27 27 27 25 26 26 23 24 23 21 22
38 34 27 30 28 27 27 29 30 31 33 34 35 35 35 35 35 33 30 31 33 29 26 20 22 24 26 27 28 26 24 24 24 23 23 21 21 20 21 21 20 19 18 18
32 34 25 26 29 31 31 33 33 33 35 35 36 36 36 33 31 33 31 28 25 24 20 22 24 25 25 25 25 24 23 22 22 22 21 20 19 19 18 19 19 18 18 17
32 29 28 30 31 29 30 31 30 33 34 37 39 33 30 28 31 29 25 26 21 20 23 25 26 24 24 23 24 24 24 24 23 22 21 20 19 18 17 18 18 17 17 16
29 26 30 30 28 27 28 30 31 35 34 31 34 28 25 34 27 22 23 19 21 23 24 25 25 24 23 24 24 24 24 23 23 22 22 21 21 21 20 17 18 18 18 17

GFSNW_sfc_temp_087.txt.gz
Temp
51 51 51 50 51 50 47 39 28 46 50 34 36 32 39 46 47 51 49 50 47 44 45 43 45 43 47 52 50 43 48 43 36 41 52 52 46 41 42 35 35 39 36 37
50 50 51 50 50 50 39 36 34 46 45 27 31 36 38 44 44 45 47 46 49 49 44 39 46 47 53 52 49 44 46 40 32 38 45 52 45 45 46 44 41 35 32 38
50 50 50 50 50 50 42 34 25 34 37 36 35 34 37 38 48 46 48 47 49 46 43 47 43 46 51 51 51 50 49 41 38 31 35 36 38 44 46 41 35 37 37 42
50 50 50 50 50 50 41 34 31 36 21 32 34 36 36 35 38 48 49 45 45 43 38 41 40 45 48 52 50 49 46 36 41 44 47 40 38 38 41 39 42 36 44 43
49 49 50 50 50 49 38 32 30 37 34 38 37 37 34 37 40 42 41 41 45 45 40 41 38 42 43 41 48 45 47 38 40 38 47 48 41 45 44 42 42 44 45 44
50 49 50 50 50 48 38 38 38 34 33 34 33 31 38 39 42 44 47 46 38 38 42 45 44 45 45 45 42 40 41 39 37 33 43 43 36 45 45 46 48 48 39 47
50 50 49 49 49 48 39 38 37 32 24 31 34 39 42 41 43 39 45 45 39 46 46 50 48 48 47 45 44 46 39 38 39 30 35 26 45 56 56 52 53 55 51 52
50 49 49 49 48 50 42 41 36 32 23 35 37 39 41 42 45 41 41 44 46 45 43 36 34 33 35 40 44 43 44 38 29 27 30 39 46 52 52 49 47 52 50 52
49 49 50 49 49 49 45 43 42 36 30 30 41 38 40 34 34 36 40 45 45 44 35 32 26 24 32 33 39 46 44 41 33 29 27 23 42 55 59 57 38 53 53 51
49 49 49 50 49 49 45 43 47 38 31 37 39 34 35 38 38 33 37 39 38 41 31 25 25 27 41 30 31 31 33 32 30 29 27 35 51 56 59 39 37 50 52 51
49 49 49 49 49 49 45 42 47 41 34 39 42 44 38 40 36 29 37 34 36 34 28 27 28 26 34 35 40 36 33 30 28 30 26 26 53 54 43 45 51 52 50 50
48 49 49 49 49 49 48 40 47 47 37 38 45 47 48 46 47 38 38 37 35 38 32 32 32 28 33 33 29 43 30 38 32 35 34 43 47 47 49 53 49 50 48 50
48 48 49 49 49 49 48 42 44 42 37 37 37 38 47 51 48 47 37 39 43 40 42 37 36 30 37 30 33 37 38 45 38 38 41 42 43 47 51 50 48 50 50 48
48 48 48 49 49 49 49 41 44 41 38 30 35 49 43 51 50 47 45 45 45 44 41 36 34 33 42 35 40 37 39 42 40 39 40 41 42 43 47 49 49 49 49 46
48 48 48 49 50 50 48 44 44 45 40 31 34 44 48 49 47 45 46 44 41 38 36 34 33 38 39 40 40 35 41 35 34 31 36 39 38 42 47 44 44 44 41 40
48 48 48 49 50 50 38 33 43 46 47 36 29 42 43 47 45 44 43 42 39 39 37 35 38 44 39 34 32 35 40 42 40 34 39 42 42 43 45 43 43 41 38 37
48 48 48 49 49 43 38 36 41 47 45 35 31 31 42 46 43 39 40 42 41 38 37 36 37 39 41 33 29 32 34 38 39 43 43 39 41 39 42 42 43 41 38 36
47 48 48 49 47 47 41 45 47 47 40 39 29 30 34 43 36 35 42 38 39 38 37 38 37 39 37 27 32 35 35 38 37 39 39 38 39 39 38 37 36 34 32 32
48 48 47 44 41 38 41 48 48 46 41 32 31 27 29 41 37 37 37 38 32 38 33 34 37 30 23 27 29 31 33 33 33 37 36 35 33 33 34 33 31 29 27 28
46 45 38 32 41 47 47 41 38 38 39 37 32 36 32 39 35 34 33 33 32 30 33 39 27 23 29 31 33 33 33 33 33 28 27 28 28 29 28 27 27 26 25 25
42 36 35 43 48 42 38 32 32 33 30 34 35 36 33 39 32 32 33 31 32 26 31 31 27 22 25 30 29 31 31 31 30 30 28 27 28 26 25 24 24 23 23 20
42 41 43 43 39 36 33 29 32 30 29 34 34 35 37 35 37 34 34 30 31 27 34 30 19 22 26 27 27 27 27 27 26 27 25 24 25 25 24 23 22 21 21 20
45 40 35 35 32 27 23 22 27 27 30 32 34 33 34 35 37 33 32 29 28 30 25 16 18 23 25 25 26 25 26 26 24 23 23 23 22 23 22 20 20 19 18 18
34 30 19 25 24 24 25 27 28 30 32 33 33 32 32 33 31 32 25 27 29 26 16 11 18 21 22 23 24 22 19 20 18 18 17 16 16 15 16 16 16 16 15 16
28 29 20 21 26 28 29 31 30 31 33 33 33 30 31 30 25 30 27 26 19 18 10 16 19 20 20 22 23 17 17 15 17 14 14 11 11 13 14 14 15 16 15 15
27 26 25 28 24 25 27 29 29 32 32 33 31 27 26 23 27 25 18 20 10 12 17 20 18 18 18 19 20 20 20 19 18 16 16 16 14 13 13 14 14 13 13 12
26 22 24 25 23 24 24 25 26 30 30 25 30 25 21 28 20 14 17 11 14 19 20 21 21 20 18 17 20 20 19 16 15 15 15 14 16 16 17 13 13 15 14 12

GFSNW_sfc_temp_090.txt.gz
Temp
50 50 51 51 50 50 45 39 28 42 47 29 30 28 35 44 44 47 45 46 46 42 42 42 42 40 46 50 49 42 44 39 31 37 49 52 46 39 38 34 32 36 35 37
50 50 50 50 50 49 39 35 31 41 44 24 28 35 37 41 41 42 43 41 45 45 42 37 42 43 49 50 46 42 44 39 29 34 43 48 39 43 42 40 38 34 31 35
50 50 50 50 50 50 39 32 26 30 34 35 32 32 33 35 46 44 46 44 46 42 39 43 40 42 48 49 48 49 47 39 35 29 34 38 34 37 40 39 34 34 37 41
50 50 49 49 50 50 38 33 24 34 28 31 30 33 35 34 36 44 45 42 43 40 35 37 37 43 44 48 48 46 43 33 39 41 43 41 40 39 40 37 38 35 40 42
50 50 49 49 50 49 36 29 29 33 31 36 32 33 33 32 38 39 39 37 40 39 34 35 34 39 39 39 44 41 44 33 37 35 44 43 41 42 42 40 40 41 41 42
50 50 49 50 49 46 37 33 34 31 31 31 29 31 36 37 41 43 45 43 40 36 39 40 43 44 44 42 39 38 39 36 33 30 41 40 34 42 42 45 44 42 36 44
50 50 50 49 49 48 36 34 33 27 22 28 31 36 38 38 40 37 42 43 39 45 48 47 45 44 45 43 42 43 37 35 34 28 33 25 43 52 52 45 48 49 50 50
50 49 49 49 49 49 37 37 34 30 20 30 33 35 37 37 38 39 40 43 43 44 43 35 32 32 34 37 41 40 41 35 27 26 27 36 43 50 48 44 43 50 48 51
49 49 49 49 49 49 44 42 38 34 30 27 38 33 36 30 30 32 38 42 42 41 35 30 27 24 31 31 36 43 41 38 30 26 25 21 39 51 56 53 35 51 50 48
48 48 49 49 49 49 45 42 44 35 28 32 35 31 32 36 33 30 33 36 36 38 29 24 26 26 37 28 30 31 31 29 28 27 24 32 46 48 54 37 36 49 49 48
48 49 49 49 49 49 46 42 46 39 30 36 39 40 34 37 36 30 34 30 35 33 29 28 27 24 31 31 37 34 32 29 28 27 27 24 45 49 38 42 48 48 48 47
48 49 49 49 49 49 48 40 46 46 35 36 43 43 44 43 42 36 37 35 35 36 32 31 30 25 26 30 26 40 31 35 31 33 32 42 45 43 47 48 45 45 45 47
48 49 49 49 49 49 48 42 43 41 35 35 36 37 44 48 45 45 32 37 40 39 40 36 35 30 33 26 29 33 35 40 36 37 39 40 42 44 46 46 44 45 44 44
48 49 49 49 49 49 49 42 43 40 37 29 34 46 40 49 46 43 43 44 45 44 40 35 33 30 39 34 36 33 37 39 34 37 39 39 40 41 43 44 44 42 40 38
48 48 49 49 49 50 48 45 44 44 39 28 32 41 45 46 44 43 42 41 40 36 34 32 32 34 36 37 36 31 35 32 32 30 34 36 35 39 41 39 38 38 37 34
48 48 48 49 49 49 39 33 42 45 43 35 30 38 40 42 41 39 40 42 37 37 35 35 38 42 36 31 30 33 35 35 34 33 35 36 38 40 41 40 38 37 34 33
47 47 48 48 48 43 39 36 39 46 44 35 30 31 39 41 39 37 37 38 38 39 37 35 37 37 37 31 24 30 33 33 34 33 38 35 36 34 38 39 38 36 33 32
48 48 48 48 48 46 41 45 46 46 38 38 26 25 32 40 34 33 37 34 36 38 37 37 36 37 34 22 28 31 32 33 33 33 34 33 36 36 34 35 35 31 29 28
48 48 48 44 41 38 41 47 47 45 39 32 30 21 23 39 34 37 37 38 32 37 33 33 36 27 22 25 26 27 29 29 30 32 32 32 30 30 30 29 28 27 26 27
46 44 37 32 40 47 46 41 36 36 38 35 31 32 30 36 35 34 33 34 32 29 32 35 26 22 26 28 29 29 28 29 30 27 25 27 27 26 25 25 25 25 24 23
41 37 36 42 48 42 36 31 31 33 30 31 31 34 33 36 32 32 31 31 32 28 31 31 24 21 23 26 26 27 28 27 26 26 25 26 26 25 24 23 23 23 22 20
42 41 43 42 38 35 31 29 31 30 27 32 30 35 36 35 38 33 34 30 31 26 34 23 14 20 24 25 24 24 26 25 24 24 23 24 24 23 23 22 21 19 19 17
44 38 33 34 29 27 18 23 27 28 31 33 34 31 33 34 37 31 31 26 23 32 20 15 17 22 24 24 24 23 24 24 22 21 22 22 21 22 22 19 19 18 15 15
34 28 14 19 12 18 18 25 27 30 32 33 30 32 32 33 30 31 27 26 28 23 7 9 17 20 21 22 23 21 18 17 16 14 15 14 14 13 13 12 13 12 12 12
27 25 13 15 22 24 29 29 30 31 33 33 32 30 30 27 24 28 27 25 8 12 8 14 17 17 20 20 19 15 13 11 12 9 10 7 8 11 12 12 12 12 11 11
27 25 23 25 20 20 25 27 26 31 31 33 30 24 21 20 24 19 14 16 7 8 9 15 17 15 15 15 17 15 13 13 12 11 11 10 7 6 7 7 8 6 8 8
24 20 21 18 17 19 24 26 26 30 29 20 23 17 17 24 14 10 13 6 10 16 18 18 14 13 11 12 14 13 12 11 9 9 10 8 9 10 13 9 8 12 11 10

GFSNW_sfc_temp_093.txt.gz
Temp
50 51 51 50 50 50 43 37 28 40 45 26 29 22 33 40 42 45 36 42 43 40 41 40 41 37 43 51 47 41 44 39 30 35 45 47 42 40 39 32 32 34 35 33
51 50 50 50 49 50 37 33 34 40 41 25 18 30 35 40 39 40 35 35 44 44 40 37 42 43 49 50 47 42 44 37 28 31 38 42 39 40 39 39 37 32 30 33
50 50 50 50 49 50 37 32 23 29 34 35 30 28 32 32 44 42 43 40 44 41 38 42 40 42 47 49 47 49 46 37 33 25 31 38 34 39 40 37 32 34 35 38
50 50 50 49 49 50 37 33 25 31 25 30 28 32 34 32 34 42 44 41 39 36 31 34 34 40 43 46 47 44 41 32 35 38 40 40 39 39 41 38 37 33 37 41
50 50 50 50 49 49 35 29 29 33 31 35 32 32 32 32 34 38 37 37 39 38 33 34 31 36 38 37 43 40 41 32 33 32 39 39 36 41 42 42 41 40 39 38
50 50 50 50 49 45 32 32 33 31 29 30 30 29 30 31 34 39 43 41 37 35 38 39 41 41 41 41 39 37 37 34 31 28 36 36 31 39 42 43 45 42 36 45
50 50 50 50 49 47 36 33 31 25 20 29 31 33 36 35 36 35 41 42 38 42 46 45 43 43 42 40 41 41 35 34 32 26 31 20 39 49 46 44 43 45 46 47
49 49 49 49 49 49 38 37 33 28 21 29 31 32 35 36 38 37 39 40 41 42 41 34 32 32 33 36 39 38 39 33 26 24 25 33 39 45 43 40 42 48 46 47
49 49 49 49 49 50 44 40 38 32 25 25 35 32 34 30 29 31 36 41 41 41 33 29 26 25 31 31 36 40 36 36 29 25 23 18 36 45 50 48 34 47 47 47
48 48 49 49 49 50 45 42 41 35 27 31 33 30 30 34 32 30 32 36 36 38 29 28 25 27 35 28 30 30 28 28 26 26 26 30 43 43 49 33 33 46 47 46
48 48 49 49 49 49 46 42 45 38 26 33 37 38 33 34 35 30 33 30 33 32 25 26 27 25 31 31 34 31 29 25 24 27 26 22 42 43 36 41 43 45 44 44
47 48 48 49 49 49 48 40 45 46 36 33 39 41 42 40 39 33 34 33 34 36 32 31 31 24 25 29 24 37 27 33 30 31 30 41 43 41 43 43 40 40 42 44
47 48 49 49 49 49 48 43 43 40 35 34 32 34 43 45 42 44 31 34 38 35 39 34 33 31 31 23 24 32 36 37 33 34 39 39 40 41 42 41 38 38 39 39
48 49 50 50 50 50 49 42 43 40 36 28 32 44 38 45 44 42 42 40 43 42 39 34 32 29 36 32 36 32 33 35 31 34 36 38 37 39 38 36 39 37 35 34
48 49 50 49 49 50 48 45 43 44 39 28 31 40 43 43 43 41 41 40 39 36 34 32 28 33 34 34 34 29 33 30 28 28 32 35 34 36 38 35 33 35 34 32
48 48 49 49 49 49 41 33 42 45 43 35 29 38 37 38 40 40 37 37 38 38 36 34 38 42 36 31 27 30 33 34 32 32 34 33 34 36 37 35 34 34 32 31
47 48 48 48 48 44 39 35 40 46 43 34 29 30 36 39 38 35 34 37 37 37 35 34 36 37 38 29 24 28 32 32 31 32 35 32 32 30 36 36 34 33 30 29
47 47 47 48 48 46 40 44 47 46 39 37 27 24 29 39 31 33 34 32 35 35 34 36 35 35 32 23 26 28 30 32 30 30 33 32 33 32 31 31 32 29 27 26
47 47 47 45 41 37 41 47 47 44 39 31 30 22 19 38 34 34 33 34 30 34 33 33 34 25 17 23 25 25 27 27 28 30 30 30 29 27 26 27 26 26 25 25
48 44 36 32 40 46 45 40 35 34 36 35 29 27 27 36 33 33 31 34 31 28 32 32 24 18 23 25 26 26 26 27 27 27 24 26 26 24 24 23 24 23 22 22
41 34 33 42 47 40 36 30 31 32 29 33 31 32 30 36 31 31 33 31 32 26 31 28 20 19 21 25 25 26 26 25 25 25 25 25 25 24 23 22 23 22 20 18
41 41 43 41 36 34 30 28 30 30 26 30 32 34 36 32 34 33 33 28 31 25 31 23 12 20 23 24 23 23 24 24 23 24 23 23 23 23 22 20 18 17 17 15
43 37 33 33 29 24 26 23 26 27 32 34 34 32 33 33 34 32 30 26 26 29 17 11 15 21 23 23 23 22 23 22 22 21 22 21 20 21 21 18 18 16 14 13
31 27 13 17 9 16 16 22 23 26 32 33 32 32 32 32 27 29 22 23 26 13 8 10 17 19 20 21 22 19 15 15 14 13 13 13 13 11 11 9 6 6 6 5
25 24 10 13 20 20 27 30 31 31 33 33 31 29 30 25 23 24 23 18 9 11 7 9 16 19 19 17 17 13 12 8 9 8 8 3 5 7 7 7 5 7 4 3
25 22 20 23 19 23 26 27 28 31 32 32 29 25 22 20 20 17 12 17 10 8 8 15 18 17 18 18 17 14 11 9 7 6 7 7 4 5 4 6 6 3 4 3
22 17 21 16 16 22 24 25 26 30 28 21 24 17 20 22 13 9 12 7 9 14 16 10 10 12 10 9 11 10 10 8 6 6 7 5 6 7 12 9 10 11 10 5

GFSNW_sfc_temp_096.txt.gz
Temp
50 50 51 51 50 49 42 36 26 39 45 30 25 19 30 39 36 39 35 34 34 32 36 37 35 36 42 49 47 41 43 36 31 35 43 45 41 38 39 32 30 33 33 31
50 50 50 50 50 49 36 30 30 37 42 23 26 28 32 37 37 39 35 33 35 36 34 32 36 37 45 48 46 42 43 35 29 32 37 42 38 41 40 37 36 30 26 31
50 50 50 50 50 48 36 32 23 26 36 35 29 28 28 31 41 39 41 35 35 35 34 40 35 35 44 47 46 48 46 36 33 26 30 36 33 37 41 37 31 32 34 35
50 50 50 50 49 49 36 33 24 30 22 29 28 30 30 30 32 39 40 33 34 35 31 33 33 39 40 44 46 43 41 32 35 36 38 38 36 36 38 37 37 32 35 36
49 50 50 50 49 48 33 23 27 33 29 31 28 30 28 30 32 33 33 34 37 38 34 33 31 35 36 37 42 39 41 32 33 32 38 37 34 37 38 39 39 39 39 39
49 50 50 49 50 45 30 31 32 30 28 29 28 28 29 29 32 35 40 39 37 35 37 38 38 39 40 38 36 35 36 34 30 28 33 33 28 34 37 39 41 39 34 42
49 49 50 49 49 45 36 32 31 24 20 27 30 31 34 34 35 32 39 39 36 39 42 42 41 39 40 39 39 40 34 33 32 26 30 18 35 44 44 41 43 44 45 46
49 49 49 49 49 48 41 37 34 29 23 29 30 31 32 34 35 34 36 38 39 40 38 33 32 31 33 36 38 36 38 33 27 24 25 31 35 40 39 37 39 46 45 45
49 49 48 49 49 49 43 41 41 35 25 24 32 30 31 28 28 30 34 40 41 39 32 28 26 24 30 30 34 37 35 35 30 25 22 16 33 41 44 44 32 43 46 44
48 48 48 48 48 49 45 41 44 36 27 30 32 29 32 34 30 30 32 34 36 36 27 25 25 26 34 28 29 30 28 28 26 25 26 29 38 40 44 30 32 42 44 45
48 48 48 48 48 49 45 41 44 37 26 30 35 36 32 32 33 29 32 28 32 30 27 26 27 25 30 30 33 31 29 26 23 28 24 21 40 40 33 38 39 40 41 41
48 48 48 48 49 49 48 40 44 44 35 32 36 39 41 39 37 32 32 32 34 34 31 31 31 27 26 28 25 35 26 32 30 31 30 39 41 39 41 41 37 36 37 37
47 47 48 48 49 50 48 42 42 39 35 34 32 34 40 42 41 41 30 31 36 36 39 33 33 29 32 24 25 32 35 37 32 32 36 37 38 38 38 37 34 34 34 35
46 47 48 48 50 50 48 41 42 40 36 28 31 41 37 42 42 39 38 38 39 41 39 34 32 28 34 32 34 31 32 33 29 32 33 35 35 36 35 34 35 33 31 30
46 47 48 50 50 50 47 44 43 44 38 26 29 37 41 42 39 38 39 38 36 35 34 31 27 30 33 35 33 28 32 28 25 26 31 32 32 34 34 32 30 30 29 28
46 47 48 49 50 49 41 33 42 45 43 35 27 36 36 37 37 37 36 36 38 38 34 33 36 41 35 30 20 30 31 32 31 29 33 32 32 32 33 30 30 30 28 27
46 47 48 48 49 44 39 36 40 46 43 34 29 28 35 37 35 33 34 36 36 34 35 32 32 33 37 28 19 27 30 31 30 31 32 31 29 27 31 32 31 30 27 26
47 47 48 48 48 46 41 44 46 45 39 37 28 24 29 36 30 29 33 31 32 34 34 34 32 34 31 23 25 27 29 31 30 29 32 31 30 29 28 29 29 27 26 25
47 47 48 45 42 36 41 47 47 44 38 31 30 20 17 37 34 35 33 32 25 31 32 30 34 27 18 23 25 25 25 25 25 30 29 28 26 25 25 25 25 24 23 24
47 44 36 30 35 46 45 38 34 34 35 35 28 26 28 36 33 32 32 31 23 28 29 31 25 15 23 25 25 25 25 25 26 25 23 25 25 23 22 22 23 22 21 20
39 33 33 40 46 39 34 30 30 31 29 33 31 32 30 36 28 30 32 30 32 26 28 28 21 18 21 24 23 25 25 25 24 24 25 25 24 23 22 20 20 19 18 16
39 40 42 41 36 33 30 28 30 29 26 30 31 32 35 33 35 32 31 28 30 24 29 22 11 17 22 23 22 22 23 24 23 23 22 23 23 22 20 18 16 16 15 14
42 37 32 33 28 25 21 21 25 19 30 31 34 32 34 33 33 32 31 27 24 28 19 14 15 21 22 22 22 21 23 22 21 20 21 20 18 18 19 16 15 14 11 9
31 28 21 22 13 18 17 21 24 29 32 34 34 32 32 32 30 30 24 24 26 19 9 10 15 18 20 21 22 19 15 14 14 12 13 12 11 9 8 5 3 4 3 -1
25 25 13 17 19 22 28 31 32 32 35 33 29 28 29 23 22 20 22 19 13 12 10 9 15 16 18 16 16 12 11 7 7 6 6 2 3 5 5 4 1 3 -1 -0
25 21 20 23 23 24 26 28 28 31 33 32 28 24 20 18 20 19 15 18 12 8 6 13 18 17 14 13 14 9 8 7 5 3 5 5 2 3 2 2 1 -2 -2 -3
21 16 19 11 13 22 24 26 26 30 31 25 22 19 19 24 15 12 11 6 7 11 13 8 9 12 10 7 8 7 7 6 3 4 5 3 4 5 9 6 3 5 3 -1

GFSNW_sfc_temp_099.txt.gz
Temp
50 50 50 51 50 49 42 35 25 41 43 29 28 25 31 37 37 42 38 35 33 30 32 34 37 36 41 48 49 43 45 40 34 37 45 48 45 41 41 33 30 34 32 37
50 50 50 50 50 48 37 30 31 40 41 22 25 31 31 35 34 37 37 34 35 33 31 30 36 38 45 47 47 44 46 38 31 32 40 45 41 42 42 36 36 32 29 38
50 50 50 50 50 48 37 30 23 30 36 34 29 29 30 31 40 38 40 36 35 34 33 35 33 34 42 46 46 47 47 39 36 31 34 39 36 39 42 39 31 35 35 40
49 50 50 50 49 48 37 33 25 30 22 28 29 31 31 29 30 38 37 33 34 33 30 33 33 36 40 45 46 45 44 34 38 39 40 40 39 39 40 38 39 33 40 41
49 49 50 50 50 47 34 26 28 32 30 31 29 30 30 30 30 32 32 33 37 37 33 33 32 35 36 37 44 42 44 35 38 35 40 40 37 40 41 41 41 41 42 41
49 49 50 49 49 46 33 33 34 33 29 30 29 28 29 30 33 36 36 36 37 36 36 37 39 42 41 41 40 39 39 37 34 30 36 37 32 37 41 43 45 44 39 46
49 49 49 49 49 46 39 35 34 28 24 29 30 31 33 32 35 33 37 39 35 40 43 43 42 41 41 42 42 43 37 37 35 30 33 22 39 46 46 43 45 47 47 47
49 49 49 49 49 48 42 38 35 32 23 30 32 32 32 34 36 35 36 39 41 42 40 36 35 35 37 38 39 39 42 37 31 28 28 34 39 41 40 39 40 45 43 45
48 48 48 49 48 49 42 41 42 36 29 29 34 31 33 30 31 32 36 41 43 40 35 32 28 26 31 32 35 40 38 39 35 30 24 21 35 41 46 45 35 42 42 44
48 48 48 48 48 49 44 41 44 37 30 34 34 32 32 37 33 31 34 36 36 39 31 30 28 28 35 29 30 31 32 32 29 29 28 33 38 42 45 33 32 39 40 40
48 48 48 48 48 49 45 41 44 38 31 34 36 38 35 35 34 30 35 33 35 34 30 30 29 29 32 32 35 33 32 30 28 30 27 24 41 43 35 36 37 37 37 36
47 47 48 48 48 49 48 39 44 44 35 35 38 40 43 42 41 36 35 35 33 34 31 31 32 30 31 30 28 38 30 32 30 33 31 37 39 36 37 38 34 34 35 36
46 47 48 48 48 49 48 41 42 39 35 36 35 36 42 43 43 44 34 35 38 37 39 33 32 30 33 27 30 33 34 37 32 33 33 32 35 35 36 34 32 32 33 33
46 47 47 47 48 49 48 41 41 40 36 29 33 43 39 45 43 42 43 41 41 42 40 35 33 29 37 32 34 32 32 34 28 31 32 34 33 34 33 32 33 31 30 29
46 46 46 48 48 49 47 43 42 43 39 29 32 39 43 43 40 40 41 40 39 37 35 34 32 35 35 35 34 30 33 28 27 26 30 31 30 32 32 30 28 28 30 28
46 46 46 48 48 49 42 33 41 45 43 35 28 39 39 38 38 38 38 39 38 38 36 36 38 41 36 31 28 31 32 32 31 29 33 31 30 31 32 29 29 30 28 28
46 46 47 47 48 45 39 37 41 46 44 34 30 31 37 38 37 36 36 38 38 39 36 33 36 37 36 31 26 29 31 30 30 30 32 29 28 26 30 32 30 30 28 27
46 46 47 47 47 46 41 44 46 45 38 37 29 27 32 39 33 31 36 34 36 37 35 35 34 35 33 27 27 28 29 30 28 29 31 29 28 29 28 30 30 28 26 26
46 47 47 45 42 39 41 46 47 44 38 32 31 24 24 38 35 36 34 35 28 35 32 33 35 30 26 26 27 26 26 26 26 30 30 29 27 25 26 26 26 25 23 24
46 43 38 32 36 46 45 39 34 34 35 35 30 30 30 36 35 32 32 31 30 28 31 34 29 24 25 26 26 27 26 26 28 28 24 26 25 24 23 22 23 22 21 21
40 32 33 39 46 40 35 30 30 32 28 32 32 32 31 37 31 30 34 30 33 25 29 29 24 23 23 25 25 26 27 26 26 26 26 26 25 24 22 21 21 20 19 17
38 40 42 40 36 32 29 28 30 29 28 32 30 31 34 34 37 32 32 30 30 25 32 26 19 20 24 24 23 24 25 25 24 25 24 25 23 22 21 19 18 17 16 14
43 38 33 32 29 26 25 21 24 25 28 31 33 31 33 33 34 32 31 27 27 30 25 23 19 22 24 23 23 22 24 23 22 21 21 21 19 21 20 17 16 15 12 12
33 30 23 26 22 23 21 25 25 28 30 33 34 32 32 32 30 31 28 28 28 23 19 19 19 21 21 22 22 20 16 16 15 15 15 14 13 10 9 7 8 8 7 4
27 27 17 16 21 22 28 32 32 33 36 33 32 31 32 28 28 26 25 23 22 23 21 17 19 20 20 18 17 15 14 12 11 12 10 8 9 9 8 7 9 8 6 7
26 21 19 23 25 26 28 31 29 32 33 33 32 27 26 24 25 23 23 23 21 20 16 18 20 18 17 16 16 13 12 12 11 11 11 10 9 10 10 9 9 6 8 7
22 17 21 16 21 24 25 27 28 31 33 25 27 22 23 26 19 19 19 20 18 15 17 18 18 17 14 12 12 11 12 11 11 11 12 10 10 10 13 12 11 12 11 8

GFSNW_sfc_temp_102.txt.gz
Temp
50 50 50 50 50 49 50 48 37 51 52 39 40 34 36 40 41 45 41 40 35 30 32 30 32 40 47 52 56 48 51 47 39 43 51 56 51 48 47 40 33 40 40 45
50 50 50 50 50 49 52 44 46 53 48 32 34 40 39 41 40 40 37 35 37 36 31 29 37 41 50 53 53 48 51 45 36 36 45 51 46 48 47 40 41 37 38 47
50 50 50 50 50 48 52 41 33 46 44 40 36 34 35 36 44 41 40 36 35 33 33 36 34 37 46 50 50 47 52 46 43 39 41 47 41 45 48 45 38 41 43 48
49 50 50 50 50 49 52 40 35 39 33 38 37 38 38 35 31 38 37 35 36 33 31 33 32 36 39 44 47 46 48 40 44 45 46 46 46 45 45 44 45 39 47 47
49 49 50 50 50 48 50 35 41 43 41 39 36 35 36 35 32 31 33 34 39 40 36 33 32 34 37 37 44 43 45 38 44 40 46 45 42 45 46 46 47 47 49 49
49 49 50 50 50 50 48 47 47 44 37 39 37 35 34 34 38 41 44 40 41 40 38 42 44 44 43 44 43 44 44 42 41 35 42 42 37 44 45 47 50 49 41 49
49 49 49 49 49 50 50 51 50 42 36 40 38 37 39 38 40 37 43 44 40 45 48 51 50 48 46 47 48 49 44 43 43 36 38 28 42 51 50 47 49 47 47 42
49 49 49 49 49 49 51 51 48 45 35 40 39 39 39 41 44 42 41 44 47 48 47 43 40 42 42 43 47 47 49 45 37 34 35 39 42 44 44 43 43 43 40 42
49 48 49 49 49 49 45 45 51 46 39 41 40 39 40 39 39 41 42 49 50 48 44 40 33 31 37 37 40 48 46 47 42 37 30 27 38 47 52 50 38 43 42 38
48 48 48 48 49 49 45 42 46 39 37 46 42 41 39 44 41 39 42 42 43 47 40 37 34 35 41 35 35 36 39 39 35 35 33 37 43 49 52 36 32 39 39 36
48 48 48 48 49 49 45 42 46 42 37 45 44 45 42 44 43 36 42 41 42 39 35 34 34 34 38 39 40 37 37 36 35 36 31 27 38 48 38 35 36 36 36 38
48 48 47 48 48 49 47 40 46 46 37 44 47 49 50 50 48 42 45 40 39 41 35 34 35 34 36 34 33 44 32 34 33 32 29 34 35 33 35 36 33 34 35 35
47 47 47 48 48 48 48 41 43 40 36 38 41 45 52 53 51 53 41 46 44 45 46 37 35 32 39 33 35 37 37 43 35 33 32 32 34 35 34 35 33 35 35 36
47 47 47 47 48 48 48 41 42 41 38 34 43 51 48 52 52 50 50 49 49 48 47 39 37 38 43 36 38 37 39 41 30 32 34 35 35 34 35 34 36 36 36 35
47 46 47 47 47 48 48 44 43 46 40 38 44 49 50 50 49 48 48 47 45 44 41 39 38 45 42 44 40 37 39 31 31 29 31 33 31 34 35 33 31 32 34 35
46 46 46 47 47 48 42 33 42 45 44 38 35 48 45 46 47 46 46 47 45 45 42 41 46 46 42 35 35 33 35 35 34 32 33 32 32 33 34 31 31 35 35 35
46 46 46 46 47 46 39 39 49 46 45 35 34 40 44 45 45 46 44 46 46 44 44 41 43 43 42 34 33 31 33 33 33 34 33 31 33 31 34 34 35 34 34 33
46 46 46 46 46 46 42 49 47 46 39 37 34 36 39 44 41 39 46 42 44 44 44 40 40 40 38 31 32 35 35 34 32 33 33 31 31 33 33 35 35 33 31 31
46 47 46 44 41 38 41 47 47 47 40 35 33 33 31 43 39 39 37 44 34 45 36 39 41 37 32 32 35 34 34 34 33 33 32 31 29 31 31 31 31 30 27 28
46 42 37 32 38 47 45 39 36 36 36 37 34 42 33 39 36 36 34 39 37 31 36 39 35 35 30 33 36 35 33 33 35 32 30 31 28 28 28 27 27 27 26 26
40 34 35 43 46 42 37 32 32 32 31 34 38 40 35 43 34 34 39 34 36 29 35 32 31 32 28 30 32 33 33 33 33 34 32 31 30 28 27 26 26 25 24 21
40 41 43 41 37 34 31 31 33 32 33 36 33 34 42 39 45 39 37 32 33 27 37 31 29 26 29 30 30 31 32 32 31 32 30 28 28 28 26 25 23 22 20 18
40 38 34 33 33 29 28 26 30 31 35 35 36 32 37 36 40 34 34 28 28 36 30 31 29 27 29 30 30 29 30 29 28 28 27 27 26 27 25 22 21 21 17 16
32 32 26 30 27 32 34 36 36 37 37 37 36 35 34 35 32 33 30 32 32 28 26 29 27 27 27 28 28 26 22 22 22 22 21 19 18 15 15 15 15 14 13 12
31 32 28 27 32 32 33 35 35 38 40 38 34 35 38 32 31 32 30 27 27 30 30 28 28 27 26 24 23 20 18 17 18 18 16 15 15 15 14 14 16 14 13 12
30 29 27 29 30 29 32 33 32 38 38 41 42 34 31 30 32 28 28 29 29 29 27 28 27 24 24 22 22 20 20 19 19 18 18 17 16 17 17 16 15 14 15 13
26 26 29 29 33 31 31 32 32 35 38 33 35 29 30 32 29 27 31 30 27 25 27 29 27 24 21 20 19 17 18 19 19 19 19 18 18 17 20 19 18 19 17 14

GFSNW_sfc_temp_105.txt.gz
Temp
51 50 51 51 51 50 48 54 43 57 58 42 46 40 44 45 46 49 44 42 35 31 34 33 33 40 54 61 60 52 57 49 38 42 57 61 57 52 51 42 39 46 43 45
51 50 50 50 51 50 57 53 54 58 55 37 40 46 44 47 44 45 42 36 36 36 32 29 31 43 53 56 56 52 55 45 35 35 48 53 49 53 52 47 47 41 39 43
50 50 50 50 50 50 53 46 37 52 55 49 43 41 42 41 48 44 44 37 36 36 33 33 32 37 46 54 53 49 53 47 42 37 43 49 44 47 51 49 41 42 45 50
50 50 50 50 50 50 52 45 41 46 39 42 42 44 44 40 36 44 45 37 41 36 31 32 32 36 43 50 49 52 51 40 42 46 50 51 48 47 48 45 47 41 47 48
50 50 50 50 50 49 53 35 46 49 49 44 42 40 41 40 41 38 37 40 44 44 39 37 32 38 40 36 44 45 49 42 47 43 49 50 46 49 49 49 49 50 52 44
49 50 50 50 50 49 52 57 55 50 43 44 43 40 40 40 45 46 48 45 44 42 42 46 45 50 49 48 45 40 40 43 42 35 46 46 39 46 49 51 48 47 38 43
49 50 49 49 50 49 53 57 55 49 41 46 44 43 45 44 46 42 48 48 43 49 53 54 55 51 52 51 51 52 45 44 45 37 40 30 45 55 54 49 45 45 42 41
49 49 49 49 49 50 51 57 50 48 37 47 44 43 44 48 49 48 47 49 51 54 52 44 43 43 42 48 50 50 52 48 41 37 38 42 43 48 47 46 36 46 43 40
49 49 49 49 49 50 51 56 53 47 40 44 46 44 45 44 45 46 48 54 55 53 49 44 37 34 39 38 45 53 50 51 46 41 34 28 36 49 54 54 32 42 44 39
49 49 48 49 49 49 48 44 49 49 39 49 48 44 42 48 46 44 48 47 47 52 43 38 37 37 45 37 37 39 42 43 38 38 38 37 35 43 51 35 29 38 41 41
48 49 48 49 49 49 49 48 53 47 41 48 50 50 45 47 48 41 47 45 45 41 37 36 36 37 41 40 44 40 38 35 36 39 36 28 34 46 34 33 35 36 36 39
48 48 48 48 48 49 48 42 50 48 43 47 52 53 54 52 52 46 49 43 43 44 37 37 38 36 42 40 32 47 35 37 34 31 29 33 35 34 35 39 37 36 37 38
48 48 48 48 48 49 47 43 45 41 37 43 48 50 56 59 56 57 45 51 49 46 49 38 39 34 44 34 36 40 40 47 35 33 33 34 36 38 39 39 37 38 39 40
47 48 48 47 48 48 48 42 44 41 39 36 45 58 53 58 57 55 54 52 53 51 51 40 39 39 48 40 42 38 42 42 32 32 34 36 36 37 37 36 39 40 42 41
47 47 47 47 48 48 49 47 46 46 42 36 43 54 56 56 54 52 53 51 49 49 44 41 39 46 45 47 45 35 42 35 33 29 33 35 33 36 38 36 36 38 40 40
47 47 47 47 47 47 43 34 43 46 44 36 37 51 51 52 53 51 50 51 50 50 44 43 48 50 44 36 35 37 39 38 37 33 36 34 34 35 37 35 37 39 39 40
47 47 47 47 46 44 40 40 46 47 45 36 35 42 46 51 51 52 50 49 48 47 42 43 46 46 45 39 35 34 36 36 35 38 37 34 36 34 37 38 39 39 39 39
47 47 47 47 46 46 42 51 48 47 40 39 35 38 41 49 42 39 48 43 44 45 44 46 43 44 42 33 36 38 36 38 36 36 38 35 34 36 37 40 40 37 35 35
47 47 47 44 41 37 42 47 47 49 43 35 35 35 31 48 41 42 44 43 35 47 38 38 44 40 33 35 39 40 38 38 38 37 36 35 34 34 35 36 35 34 31 31
47 43 37 32 39 47 45 40 36 37 37 38 36 47 35 42 39 37 37 41 37 33 37 43 36 38 37 40 43 42 40 40 40 36 34 35 33 32 32 31 32 31 29 29
42 34 35 44 47 43 38 33 33 34 31 37 40 45 38 47 37 37 42 37 39 31 37 35 33 34 32 37 38 40 40 39 39 40 38 37 36 33 31 30 30 29 27 24
39 42 43 40 37 36 33 33 36 36 36 41 36 41 44 42 47 40 40 34 36 28 41 34 31 28 34 35 35 36 38 37 36 37 34 33 33 33 31 29 27 25 23 21
42 38 35 34 34 30 28 27 32 34 40 39 39 35 40 43 43 37 36 29 30 42 31 32 31 32 34 34 35 34 35 35 34 33 33 32 31 31 29 25 25 24 20 19
35 32 29 30 29 33 37 40 40 43 42 41 39 36 38 37 34 35 30 35 37 29 28 31 30 30 31 33 33 31 27 27 28 27 26 23 21 18 18 18 18 17 16 15
32 32 29 31 36 36 37 38 41 44 45 42 38 38 37 33 32 33 34 29 29 32 33 31 31 30 29 28 27 24 22 22 22 22 20 18 18 18 18 19 19 18 16 16
32 30 29 32 33 31 34 33 35 43 43 45 44 36 32 31 36 30 30 31 30 32 32 31 30 29 28 27 25 23 23 24 23 21 21 20 19 20 20 20 18 18 17 16
29 29 32 32 36 34 34 37 36 44 41 35 40 31 31 39 33 31 38 33 31 32 30 32 31 28 26 24 23 22 23 24 24 23 23 22 23 21 22 21 21 22 20 17

GFSNW_sfc_temp_108.txt.gz
Temp
51 51 51 51 51 52 49 54 43 58 60 41 45 42 46 48 49 52 47 43 36 32 33 32 31 33 40 62 51 41 49 41 37 42 54 56 46 43 43 37 39 43 35 33
51 51 50 51 51 51 53 51 52 59 56 37 41 47 47 50 47 46 44 39 39 37 32 29 32 36 49 54 53 46 49 39 32 34 43 50 45 50 52 47 43 41 37 34
51 51 50 50 51 51 50 46 38 50 53 50 43 42 43 43 50 47 47 44 42 40 33 36 32 35 47 52 50 47 52 44 40 31 37 47 42 47 50 49 38 42 39 37
50 50 50 50 50 50 50 46 41 48 38 43 44 45 45 42 40 47 47 42 44 39 32 33 33 36 43 50 49 49 43 35 35 38 47 50 45 46 49 45 47 41 41 37
50 50 50 50 50 50 50 34 45 49 48 47 44 42 42 41 43 44 41 42 44 43 38 37 34 38 40 41 47 45 46 36 42 32 43 44 37 48 50 47 46 43 40 36
50 50 50 50 50 49 49 57 56 50 45 47 44 42 43 43 47 48 50 47 44 43 43 47 50 52 51 49 45 41 40 42 39 34 46 44 36 44 43 43 43 41 34 37
50 50 49 50 50 49 51 52 54 46 39 45 46 45 47 46 48 44 50 50 44 49 55 56 55 54 53 53 51 49 40 42 43 34 39 26 40 51 47 41 41 44 40 38
50 50 49 49 50 50 51 52 49 46 39 47 47 45 46 48 51 49 50 50 52 54 51 45 40 42 43 47 51 50 51 46 39 35 35 38 42 43 40 39 33 41 40 41
49 49 49 49 49 50 52 50 54 49 41 40 48 45 48 43 44 46 50 53 57 52 49 42 35 32 38 37 41 54 52 51 42 39 33 27 32 39 48 48 28 38 41 39
49 49 49 49 49 50 52 50 53 47 38 49 48 42 42 48 46 44 48 47 47 50 41 37 34 34 45 34 36 38 39 39 36 36 34 32 34 41 48 32 27 36 38 38
48 49 49 49 49 50 49 49 54 48 41 47 50 50 45 46 46 39 45 44 43 40 36 36 36 36 40 36 42 39 35 32 32 34 30 25 36 41 32 32 35 36 37 38
48 48 48 48 49 49 49 43 53 53 42 46 50 52 54 53 51 45 47 44 43 43 38 38 37 34 39 39 29 45 31 36 33 30 28 34 37 34 37 39 36 36 37 39
48 48 48 48 48 49 49 43 46 46 38 41 47 49 57 60 57 57 43 46 49 44 49 41 39 34 43 34 34 39 42 46 35 32 33 34 36 38 39 40 38 40 41 41
48 48 48 48 48 49 49 43 44 42 38 35 45 60 54 59 58 56 55 51 53 51 50 42 39 37 48 40 41 39 41 42 34 31 34 36 36 36 38 38 41 42 43 41
47 48 48 48 48 48 50 46 46 48 40 34 42 54 57 58 56 54 54 52 49 47 44 41 38 45 44 45 45 36 42 35 32 29 33 34 32 37 39 37 37 40 40 40
47 48 48 47 47 47 46 35 46 48 46 35 35 50 51 54 54 52 51 51 49 49 46 43 46 50 44 37 34 37 38 38 37 33 36 34 35 37 39 38 38 40 39 39
47 47 47 47 47 47 40 39 44 48 47 36 34 41 50 53 52 50 48 50 48 46 44 43 45 45 45 38 34 35 36 36 37 38 37 33 37 35 39 40 41 41 40 38
47 47 47 46 46 45 41 49 47 47 41 39 34 38 41 51 41 39 48 43 45 46 44 46 43 46 43 34 38 39 37 38 37 37 38 36 37 38 39 41 41 38 34 34
47 47 47 44 40 37 41 48 47 47 42 36 35 34 32 48 43 44 44 46 35 47 39 41 43 40 34 38 40 39 39 39 37 38 37 37 36 36 36 37 36 33 30 30
47 45 37 32 37 47 46 41 36 37 38 39 36 45 35 44 41 39 38 40 36 33 38 45 37 37 39 44 45 44 43 42 43 36 35 36 34 32 32 31 31 29 28 27
43 34 34 44 47 41 36 32 32 33 31 37 41 44 38 48 36 36 41 36 39 31 37 35 34 34 34 41 40 42 42 42 41 40 38 38 36 33 31 29 29 28 26 23
44 41 42 40 38 34 32 32 35 36 35 41 37 42 46 44 48 41 40 35 36 29 41 33 30 29 36 38 37 38 39 39 37 37 34 34 33 33 31 28 26 23 22 19
44 37 33 33 34 29 28 27 32 33 40 41 41 37 42 43 45 38 37 30 31 41 32 31 30 33 35 36 36 35 36 35 34 32 32 32 30 30 28 25 24 22 18 18
33 32 28 30 28 32 36 38 38 42 41 42 41 38 39 40 36 34 30 35 37 29 28 31 31 32 33 34 34 32 28 28 28 26 24 21 19 17 17 16 16 15 13 12
32 32 28 31 38 37 37 40 42 43 46 42 38 37 39 33 32 33 34 30 28 32 32 30 30 31 30 29 27 25 24 23 23 22 18 17 17 17 17 17 18 16 14 13
33 32 29 34 34 32 34 36 36 46 43 43 43 35 32 31 34 30 29 31 30 32 30 30 31 29 29 27 25 24 24 24 23 21 20 19 18 19 20 19 18 15 15 13
31 31 34 32 32 34 34 35 39 46 41 34 39 32 31 40 34 31 38 33 31 30 30 32 31 28 26 25 23 23 24 23 23 23 23 21 23 21 21 18 19 19 19 16

GFSNW_sfc_temp_111.txt.gz
Temp
51 51 51 51 51 51 47 40 32 48 49 32 34 26 41 47 47 49 44 41 35 32 33 30 28 32 35 44 48 41 41 33 32 36 44 49 42 42 42 32 30 34 33 29
51 51 51 50 51 51 41 37 38 47 46 24 25 40 44 48 44 44 41 40 38 37 30 27 28 34 42 45 46 40 42 35 30 32 37 43 38 41 43 42 37 32 29 29
51 51 51 50 50 51 42 35 28 37 39 39 35 35 38 40 48 45 45 43 38 34 28 34 31 34 43 47 47 48 46 39 33 28 32 40 37 42 44 38 32 33 32 31
50 51 50 50 50 50 41 34 30 39 25 31 35 37 40 38 37 45 44 37 39 34 26 30 29 34 39 45 47 45 41 33 34 36 40 37 34 35 36 37 41 32 32 31
50 50 50 50 50 50 39 27 34 39 37 41 37 37 37 38 40 38 36 37 40 39 33 34 31 36 37 37 43 41 43 33 33 31 38 39 34 41 41 39 37 37 35 31
50 50 50 50 50 48 39 43 43 38 39 37 32 32 37 39 42 44 46 42 39 36 39 43 44 45 44 44 42 38 38 36 32 28 37 40 31 36 36 36 38 37 30 35
50 50 50 50 49 48 44 41 40 34 28 34 39 43 43 42 43 40 46 43 38 44 49 48 48 47 48 48 45 46 39 38 38 30 36 25 32 42 40 34 35 38 37 34
50 50 49 49 49 50 45 43 39 35 27 39 43 42 42 43 44 42 44 44 46 47 45 38 36 35 37 42 45 45 46 40 34 28 28 32 35 36 33 35 30 36 35 35
49 49 49 49 49 50 43 42 44 38 31 32 45 39 41 34 33 36 41 47 47 44 38 33 30 27 34 33 40 49 46 43 36 32 27 22 30 35 41 42 24 35 37 33
49 49 49 49 50 50 44 42 44 39 29 42 41 35 34 40 36 33 38 39 39 41 29 30 28 30 41 29 31 31 32 31 28 29 27 28 31 36 42 28 25 35 35 34
48 48 49 49 49 50 44 41 45 41 35 39 43 45 37 38 37 27 35 32 34 30 28 28 29 28 34 33 37 35 29 28 25 28 26 21 34 37 29 32 35 35 35 35
48 48 48 49 49 49 47 41 47 46 36 36 43 45 46 44 43 37 37 36 37 35 28 29 32 31 31 32 26 39 27 33 27 28 26 32 35 33 35 35 33 34 36 38
48 48 48 48 48 49 47 42 41 39 34 34 36 41 48 52 49 48 34 39 42 39 40 31 34 31 35 27 28 32 37 41 30 30 31 32 34 36 37 39 38 39 38 38
48 48 48 48 48 48 48 39 43 41 37 32 38 53 47 53 52 48 46 44 45 43 39 34 36 30 39 33 35 30 36 36 32 29 32 33 34 35 36 37 38 39 39 36
47 48 48 48 48 48 44 41 43 45 37 33 32 44 53 53 50 47 46 44 40 35 33 30 30 35 35 36 36 30 35 31 29 26 33 32 31 36 38 36 35 36 35 35
47 48 48 48 48 48 40 33 41 43 41 34 29 42 45 49 48 46 45 45 40 37 34 33 36 44 34 28 25 34 35 37 36 30 35 34 34 36 38 35 37 36 35 34
47 47 47 47 47 41 37 34 42 47 45 35 30 33 43 48 49 44 40 42 38 37 34 33 35 36 38 24 21 32 34 36 36 37 36 32 34 33 38 39 38 37 34 33
47 47 47 47 46 45 38 44 47 46 40 37 30 29 34 44 34 33 39 34 36 36 34 35 34 35 33 27 33 35 36 37 36 35 36 35 36 37 37 38 36 31 28 28
47 47 47 42 39 36 38 48 47 45 40 32 32 28 21 41 39 36 37 38 32 36 28 32 34 28 23 32 34 33 36 36 33 36 35 34 32 32 31 30 29 26 25 24
47 41 36 31 36 47 46 39 36 36 37 36 32 34 27 36 34 30 35 35 27 24 31 35 26 23 34 39 40 37 37 37 37 31 30 30 27 27 26 26 25 24 22 21
37 33 33 41 46 40 36 31 31 32 30 32 33 34 28 38 26 29 34 25 27 22 27 25 22 25 31 33 34 35 36 36 34 34 32 32 30 26 25 24 24 22 21 18
38 39 42 41 37 33 30 29 31 28 27 31 28 31 36 32 38 31 32 26 26 22 29 22 16 27 33 34 32 32 33 32 31 31 29 28 28 26 24 22 20 19 18 14
39 37 32 32 31 27 24 24 26 22 29 32 31 32 35 34 34 26 32 27 19 28 20 22 23 30 32 32 30 29 29 29 28 27 25 23 23 25 23 20 19 17 13 9
31 30 26 26 24 23 25 27 28 30 33 33 32 28 29 28 28 29 29 31 29 26 19 20 26 29 28 29 28 24 21 20 19 18 17 15 14 12 11 8 6 5 2 -1
30 31 25 22 27 34 33 33 31 32 35 34 29 29 29 30 31 32 31 27 22 21 23 27 28 27 24 22 22 20 17 16 14 13 11 8 8 10 6 5 5 5 1 1
30 30 27 30 32 31 32 32 33 35 32 31 31 27 28 29 30 28 27 23 19 24 27 27 27 25 22 20 20 17 17 16 14 12 12 11 8 9 9 6 6 3 3 1
29 28 30 28 28 32 32 33 33 35 32 29 27 22 27 28 24 28 26 19 27 27 27 28 27 22 19 18 18 16 17 15 14 13 13 10 12 13 14 10 7 9 11 5

GFSNW_sfc_temp_114.txt.gz
Temp
51 51 51 50 51 51 46 39 32 46 47 31 29 25 39 46 44 46 42 40 36 31 31 30 29 31 35 45 44 38 42 33 28 35 42 47 40 39 40 27 28 34 30 26
51 51 50 50 51 50 41 37 37 45 45 25 24 36 41 44 42 41 39 36 38 35 29 22 27 33 43 45 44 41 42 34 29 31 35 42 39 42 45 38 34 32 28 27
51 51 50 50 50 51 42 35 28 35 38 35 34 33 36 36 44 42 43 39 36 31 24 29 26 31 41 45 44 47 45 37 31 26 32 35 34 40 42 38 31 29 28 28
50 50 50 50 50 50 41 32 30 36 25 30 34 35 37 35 35 42 41 34 35 30 21 27 25 33 38 42 46 43 40 31 33 36 36 36 33 35 36 35 33 29 29 28
50 50 50 50 50 49 39 28 33 36 35 39 35 34 35 36 37 36 34 34 37 35 31 31 28 35 35 34 41 38 42 32 32 31 35 35 31 33 34 35 34 32 31 27
50 50 49 49 49 47 38 38 39 36 35 34 30 29 35 36 38 42 43 38 36 33 36 41 42 42 41 41 38 37 36 34 31 27 33 34 27 30 31 32 33 34 29 31
50 50 49 49 49 48 40 38 37 32 26 32 35 40 41 39 40 36 41 40 37 42 46 44 44 42 43 43 44 44 38 36 35 28 31 21 29 36 37 32 33 34 33 31
50 49 49 49 49 50 42 40 37 32 25 34 38 39 38 39 39 38 39 41 44 43 40 35 33 33 36 40 44 44 44 38 31 28 28 28 32 32 30 31 28 34 32 33
49 49 49 49 49 49 42 40 40 35 30 30 40 36 37 30 30 32 38 43 43 40 34 29 27 26 32 32 37 44 42 40 33 30 25 19 26 32 38 38 24 34 33 31
49 49 49 49 49 50 42 40 41 36 28 35 37 33 32 37 33 30 33 36 36 37 26 26 25 27 37 28 29 30 30 30 26 28 26 26 30 35 40 26 24 34 34 33
48 48 48 49 49 49 43 39 42 38 30 34 40 42 35 35 33 25 32 30 33 29 25 26 26 26 32 31 35 32 29 26 24 27 23 20 32 34 29 31 33 34 35 34
48 48 48 48 49 48 46 38 43 42 34 34 40 42 44 43 42 34 34 36 35 32 26 31 29 27 29 29 23 37 26 29 26 27 25 31 33 32 34 35 33 33 34 37
48 48 48 48 49 49 46 41 38 36 31 32 35 39 46 47 45 44 33 35 40 36 37 33 32 29 31 26 30 30 36 38 27 28 30 31 33 34 37 36 35 34 34 35
48 48 48 48 48 48 45 37 39 36 37 26 37 51 44 50 48 45 43 41 42 39 35 31 35 29 36 31 34 28 32 35 30 29 31 32 33 34 35 34 35 35 34 33
47 48 48 48 48 48 42 39 39 40 35 31 32 40 50 50 48 46 44 42 38 33 31 28 28 32 33 33 33 26 32 29 29 26 33 31 31 35 36 32 31 32 31 30
47 47 48 48 48 46 37 29 37 40 38 35 26 38 42 47 45 44 41 41 37 34 32 30 33 40 32 27 27 32 35 36 35 31 34 33 34 34 35 31 31 32 30 30
47 47 47 47 47 38 35 32 41 45 42 35 28 32 42 47 47 43 38 38 36 34 32 31 32 34 34 20 21 31 34 35 35 36 35 31 34 29 35 34 33 32 29 28
47 47 47 47 47 43 36 43 47 46 38 37 27 26 31 41 32 31 35 32 33 33 31 32 32 33 30 23 31 34 35 36 34 34 36 35 34 33 33 33 30 26 25 24
47 47 46 39 36 32 36 48 46 45 39 31 31 23 19 38 37 33 36 35 28 33 28 30 31 25 26 29 31 31 35 33 33 35 35 31 29 27 28 27 26 23 21 21
46 39 35 31 37 46 46 40 36 36 37 36 31 30 28 34 29 28 33 31 25 22 28 32 25 27 33 37 36 35 35 34 34 29 27 27 26 25 24 23 22 21 20 20
35 33 32 40 45 40 36 31 31 32 29 32 34 30 26 35 25 25 29 24 24 20 26 24 20 25 28 33 33 32 32 32 31 31 32 30 28 24 22 22 22 21 20 17
36 38 42 41 37 33 30 27 30 28 26 28 26 29 33 29 35 28 30 25 23 21 27 23 15 22 30 32 29 30 30 29 28 29 28 27 26 24 23 21 19 18 17 12
38 36 32 32 30 25 24 22 26 19 25 27 27 26 35 33 30 23 29 25 17 25 24 19 22 27 30 29 29 27 27 26 24 24 25 24 23 24 22 19 17 16 12 7
28 28 23 25 24 25 23 25 25 28 27 29 28 25 32 31 25 26 19 23 28 24 19 20 20 27 28 28 27 25 21 20 20 18 17 15 15 11 10 7 6 5 0 -3
27 29 19 24 26 27 31 33 29 28 31 31 28 27 27 24 29 31 26 26 24 21 18 20 24 25 24 22 21 18 16 14 13 11 10 8 8 8 3 0 2 2 -3 -3
28 28 22 29 30 32 33 31 32 28 29 27 29 25 22 27 26 27 26 26 17 19 20 18 23 23 22 20 19 17 15 13 11 10 11 10 7 8 8 2 2 -2 0 -1
27 26 29 29 28 30 32 33 33 34 30 21 25 19 22 26 23 25 31 18 18 27 24 19 21 20 17 17 17 15 14 12 12 10 12 10 10 8 12 9 6 7 9 2

GFSNW_sfc_temp_117.txt.gz
Temp
50 50 50 50 50 51 46 40 32 44 46 31 28 26 37 45 42 44 40 38 35 28 28 31 30 30 36 44 44 37 41 34 28 33 41 45 40 37 37 27 28 32 27 23
50 50 50 50 50 50 41 37 37 44 44 26 24 35 40 43 40 40 38 34 35 33 23 22 26 32 42 43 41 38 42 34 27 32 37 44 38 40 38 37 35 28 25 24
50 50 50 50 50 50 42 35 28 35 38 35 34 33 35 35 42 40 40 37 34 29 23 29 25 29 40 43 42 47 43 35 31 26 30 34 33 39 39 37 28 26 26 26
50 50 50 50 50 50 42 34 30 36 25 29 34 35 37 34 33 40 39 32 33 28 19 24 24 30 37 41 44 40 40 31 32 32 33 34 33 37 35 33 32 27 26 25
50 50 50 50 50 49 40 32 34 35 34 38 35 34 33 34 35 34 32 32 36 33 30 30 28 31 35 32 38 37 41 32 32 29 34 33 28 30 32 32 31 29 30 25
50 50 50 49 49 48 38 37 38 36 34 33 31 29 34 35 36 39 40 36 33 32 35 38 40 40 39 40 36 34 35 34 31 27 33 33 25 27 29 30 32 34 27 27
50 49 49 49 49 47 41 38 37 33 27 32 34 38 38 36 37 35 39 37 34 40 43 41 41 38 38 39 40 39 35 35 34 28 31 19 27 33 34 30 31 32 30 29
50 49 49 49 49 49 42 39 37 33 27 33 36 37 36 36 37 36 37 39 41 41 37 33 33 32 35 39 42 40 41 35 30 27 25 27 29 30 29 30 27 32 31 31
49 48 49 49 49 49 42 39 39 36 31 30 38 34 35 30 29 32 35 41 40 38 32 29 26 25 30 29 34 42 39 38 33 30 24 19 26 31 35 36 23 33 32 30
48 48 48 49 49 49 43 39 40 37 30 35 37 32 32 35 31 29 31 34 34 35 25 25 24 26 35 25 27 28 30 30 26 28 24 26 29 32 36 25 24 33 32 31
48 48 48 48 49 49 43 39 41 38 30 34 38 40 34 34 31 25 32 28 31 27 24 25 25 25 30 30 32 30 27 26 24 27 23 19 32 34 28 30 32 33 33 32
48 48 48 48 49 49 46 38 42 41 35 35 38 41 43 41 40 33 35 35 32 31 25 30 27 25 28 28 22 35 25 29 26 26 24 30 32 31 33 34 30 30 32 34
48 48 48 48 49 49 45 38 38 36 31 33 35 38 43 44 43 43 32 33 37 35 35 31 29 27 30 25 25 30 33 37 27 27 29 30 32 33 34 33 30 31 32 32
48 48 48 48 48 48 45 37 38 36 33 30 37 47 42 47 45 43 41 40 39 37 33 30 29 28 35 29 31 27 30 33 26 27 30 31 32 32 32 32 32 32 32 30
48 48 48 48 48 47 42 39 38 38 34 26 31 42 46 48 46 44 41 40 36 31 30 27 28 31 32 31 32 28 32 29 26 24 30 30 30 33 33 29 28 29 28 27
47 48 48 48 47 44 37 30 37 40 37 30 25 36 41 46 43 42 40 38 34 32 31 29 31 36 31 25 25 32 35 35 35 32 35 33 34 32 32 28 29 29 28 27
47 47 48 48 46 39 34 32 41 43 38 31 23 32 42 46 44 42 36 36 33 33 30 30 30 32 31 19 23 31 34 34 34 35 34 31 33 27 31 30 29 28 25 26
47 47 47 47 46 43 37 42 46 43 35 34 25 27 31 39 31 30 33 31 31 32 30 30 30 31 29 23 29 33 35 35 34 35 35 31 32 31 29 29 27 25 24 24
47 46 45 39 36 32 37 46 46 42 36 31 23 23 19 35 34 31 32 32 22 31 27 29 30 25 22 31 30 30 33 34 33 34 32 31 28 26 26 26 25 22 21 21
46 39 33 29 33 45 45 39 35 34 36 36 30 28 31 33 28 26 26 27 24 22 27 30 24 25 30 33 37 36 33 33 32 28 26 26 25 25 25 24 23 22 21 20
35 32 32 38 46 39 35 31 30 31 29 32 33 29 25 33 25 24 27 23 23 22 26 24 20 25 24 31 31 31 33 32 32 31 30 30 28 24 22 22 22 21 20 16
36 38 41 40 36 33 29 26 30 29 26 27 27 28 31 28 33 27 28 24 22 20 25 24 16 19 26 28 29 29 29 30 29 30 28 26 26 25 23 21 19 17 16 11
39 36 32 31 30 24 20 17 26 25 24 25 26 24 34 29 28 22 27 18 16 24 25 16 20 23 27 27 28 27 26 26 26 25 26 25 23 24 22 18 16 15 11 6
27 24 23 25 22 21 22 24 25 27 25 26 27 30 29 27 25 22 17 21 26 20 16 18 19 25 25 27 29 26 22 21 21 20 19 17 16 12 9 7 6 6 3 -5
26 29 22 24 25 25 31 31 32 31 27 28 26 26 27 21 23 28 21 19 19 19 17 19 18 25 25 23 21 18 17 14 14 12 11 8 7 8 1 -2 -1 1 -4 -5
28 26 22 27 28 29 30 31 32 32 26 26 28 24 19 20 22 24 22 21 15 18 17 17 22 23 22 20 19 16 16 14 12 10 10 8 7 8 7 2 1 -4 -2 -5
27 24 22 20 27 28 30 32 33 32 27 20 25 18 21 26 21 19 24 16 18 18 27 14 17 21 17 15 15 14 13 11 10 8 10 8 9 9 11 8 3 4 5 -2

GFSNW_sfc_temp_120.txt.gz
Temp
47 48 48 50 51 51 47 40 31 43 46 33 30 29 38 45 41 43 39 37 33 26 27 25 24 27 35 45 42 35 41 34 28 34 44 43 39 36 35 25 26 29 23 20
48 48 49 50 50 50 41 36 36 44 43 28 26 35 39 42 40 39 37 34 34 30 23 18 20 30 40 42 40 36 39 33 27 29 37 40 36 38 38 36 33 27 22 21
49 49 50 50 50 51 42 35 28 36 38 35 35 34 34 36 42 40 39 36 33 28 19 25 19 28 38 41 42 45 42 34 28 22 27 33 30 36 39 36 25 24 24 23
50 50 50 50 50 50 41 32 31 37 28 30 34 36 36 34 34 39 38 32 33 28 19 22 23 29 34 40 43 41 38 31 32 31 31 31 30 31 35 31 30 25 24 23
50 50 50 50 50 49 38 32 33 35 34 36 34 35 34 34 34 34 32 33 34 33 30 30 26 30 31 32 38 36 41 30 32 28 33 30 26 28 30 31 29 27 26 23
50 50 49 49 49 47 38 37 39 37 33 33 32 31 34 35 36 37 39 35 32 32 33 36 37 38 38 39 35 32 34 32 30 25 32 34 25 26 27 29 30 31 25 26
49 49 49 49 49 47 41 38 37 34 28 33 34 37 38 36 36 35 38 36 33 38 39 39 37 35 35 36 37 38 33 32 32 28 30 19 27 33 32 29 29 30 28 27
49 49 48 49 49 48 41 38 38 35 28 34 35 36 36 36 36 35 36 37 39 38 35 33 32 31 33 35 39 37 39 32 30 25 24 26 29 29 29 29 26 30 30 29
48 48 48 49 49 49 41 38 39 38 34 31 38 34 35 31 29 32 34 38 39 37 31 28 26 23 29 29 32 39 38 34 32 28 25 19 25 31 36 34 23 31 30 28
48 48 48 49 49 49 42 39 40 39 31 34 36 32 32 34 31 29 30 32 33 33 24 25 24 26 32 25 26 27 29 30 26 27 24 25 29 32 36 24 22 31 30 27
48 48 48 48 49 49 43 38 40 39 32 34 38 40 34 33 31 25 31 28 29 26 23 25 25 25 28 27 31 28 26 25 24 27 23 20 31 33 28 30 32 32 29 29
48 48 48 48 49 48 46 38 41 41 35 35 38 39 41 40 39 32 31 31 31 30 24 24 26 25 26 28 20 32 25 28 26 25 23 30 31 30 33 31 28 29 29 29
48 48 48 48 49 49 45 38 38 36 33 35 36 37 41 43 41 41 32 32 36 33 33 30 25 26 28 24 25 30 32 35 28 27 28 29 30 31 32 31 29 30 30 29
48 48 48 48 48 48 45 38 37 36 33 30 34 45 41 44 43 41 40 38 37 35 32 29 28 27 32 27 30 27 29 31 26 27 30 30 30 30 31 31 32 30 29 28
47 48 48 48 48 47 42 39 38 39 36 29 32 40 44 45 43 42 40 38 34 30 30 26 27 30 31 30 29 27 32 30 26 19 30 29 29 30 31 29 28 29 26 25
47 48 48 47 46 44 37 32 38 40 37 32 26 35 41 45 43 41 39 36 32 31 30 29 30 34 30 21 20 32 35 35 35 30 33 31 31 30 30 28 28 28 26 25
47 47 47 47 46 39 34 33 40 42 38 29 26 34 41 44 43 39 34 34 31 31 29 29 29 31 30 18 21 30 32 34 34 35 34 29 30 26 29 29 27 27 25 25
47 47 47 47 46 43 39 41 45 41 35 33 25 29 35 42 32 29 31 30 30 30 29 29 30 30 28 21 28 31 34 34 34 34 34 31 30 28 27 27 26 24 23 23
47 47 46 39 36 33 38 46 46 40 35 26 22 28 25 34 30 30 30 30 21 29 23 28 29 24 22 28 29 29 33 33 32 32 31 29 27 25 25 25 24 22 22 22
46 39 32 23 33 44 45 38 32 31 36 33 24 27 23 30 27 25 25 24 23 21 25 29 23 22 29 32 33 35 32 34 33 27 25 26 25 25 24 24 24 23 21 20
35 30 31 36 45 39 35 29 27 27 27 31 30 29 25 31 25 24 26 22 23 21 25 25 19 24 25 29 32 35 32 32 31 31 30 30 28 26 23 22 23 21 20 16
36 38 41 40 36 32 27 27 30 29 27 28 27 27 30 27 31 27 27 22 21 19 24 24 20 21 26 28 30 33 30 30 30 30 28 27 27 25 24 21 19 17 16 11
39 37 32 28 30 20 18 20 25 26 25 24 26 23 32 27 28 22 26 16 16 23 23 15 20 22 26 26 27 28 27 28 27 26 26 25 24 24 22 18 16 14 11 6
28 25 19 18 21 21 22 25 23 25 24 26 24 25 26 24 24 18 16 19 22 10 10 17 19 23 25 26 28 27 23 21 22 21 20 19 17 13 10 9 7 6 3 -6
26 26 22 24 23 26 28 28 31 31 25 26 25 25 26 18 20 20 19 15 12 16 16 18 18 21 24 22 21 18 17 15 15 14 13 10 8 9 2 -3 -2 1 -2 -6
26 26 21 25 27 28 29 31 32 30 25 26 28 23 18 19 20 20 15 18 13 17 17 18 18 20 21 19 18 17 15 15 12 11 10 8 7 8 6 -1 -2 -6 -3 -6
25 20 26 26 24 24 30 32 32 29 30 26 23 18 20 25 18 17 21 15 17 17 19 22 15 18 17 16 15 13 13 12 11 8 9 6 7 8 9 7 2 3 3 -4

GFSNW_sfc_temp_123.txt.gz
Temp
49 50 49 49 49 50 48 40 32 44 46 35 33 32 40 44 42 45 41 39 36 32 31 31 30 31 37 46 43 36 41 34 29 35 45 47 43 39 40 31 30 33 28 22
47 47 48 47 47 48 42 37 36 44 45 29 31 37 40 43 41 41 39 36 37 33 28 26 27 32 42 43 41 38 39 33 28 32 38 44 38 40 39 40 36 27 26 22
47 47 47 47 49 49 43 36 30 37 40 37 36 36 36 37 44 41 41 36 36 32 26 28 25 31 40 42 42 45 42 34 30 24 27 31 30 35 40 37 31 26 24 22
47 47 48 50 49 50 43 36 33 39 31 34 37 38 38 36 35 41 40 36 37 33 24 27 25 31 36 41 43 43 39 32 32 32 31 31 28 30 32 29 30 26 24 22
49 49 49 49 50 49 40 33 35 38 36 38 37 37 36 36 36 37 35 36 37 35 34 34 31 34 35 36 41 39 41 33 33 29 33 31 26 28 29 31 29 27 26 23
49 49 49 50 50 47 40 39 41 40 35 36 36 34 36 36 38 39 41 39 37 35 37 40 42 43 42 42 37 35 35 33 33 27 32 32 26 26 28 29 30 31 25 26
49 49 49 49 49 48 42 40 41 36 31 36 35 38 40 37 39 36 40 40 38 40 42 41 40 38 38 38 39 40 35 33 33 30 31 20 28 33 32 29 30 31 29 29
49 49 49 49 49 48 42 40 41 38 30 36 37 38 36 37 39 37 39 41 41 41 40 38 36 35 36 37 38 39 39 34 31 28 26 27 29 30 29 29 26 31 31 30
48 48 48 49 49 49 43 40 40 40 37 34 40 36 38 34 34 35 37 41 41 41 37 35 30 28 32 31 35 41 38 37 32 31 26 21 26 32 36 36 24 32 31 30
48 48 48 49 49 49 44 40 41 41 33 37 40 36 35 36 35 33 34 36 37 38 33 31 30 29 35 28 28 29 31 31 27 29 26 26 30 33 37 25 26 32 31 30
48 48 48 49 49 49 44 40 42 41 34 37 41 42 36 36 36 31 35 33 34 32 30 31 30 30 32 31 32 30 28 27 26 28 25 22 33 33 29 31 33 33 32 31
48 48 48 49 49 49 46 39 42 42 38 38 40 42 44 44 42 36 35 35 34 35 32 32 33 30 31 31 24 35 28 31 29 28 26 31 31 31 35 36 34 33 32 32
48 48 48 49 49 48 45 39 39 40 37 38 40 39 43 46 45 45 36 35 39 37 38 34 33 31 35 28 28 32 33 36 29 29 29 30 31 33 34 34 33 33 33 32
47 48 48 48 48 48 45 38 39 39 37 33 37 47 43 45 46 45 43 41 40 38 38 35 34 33 36 33 34 33 34 35 30 28 30 31 31 33 33 32 33 31 31 31
47 48 48 48 47 47 43 40 40 41 39 32 36 42 45 45 45 43 43 41 38 38 37 34 33 36 36 35 34 31 35 31 28 27 32 33 31 33 34 32 30 30 29 28
47 48 48 47 46 45 40 34 41 41 39 36 31 38 43 45 43 42 40 40 37 37 37 35 36 37 37 31 29 33 36 36 37 32 36 33 33 33 33 31 30 31 29 28
47 47 47 47 46 42 36 35 40 43 41 35 32 34 41 45 44 39 38 38 36 38 35 35 36 36 36 30 29 33 36 35 35 35 34 30 32 30 32 32 31 29 28 28
47 47 47 46 46 44 40 42 45 43 36 36 30 31 35 42 35 35 35 36 36 35 35 35 36 36 34 30 32 34 35 35 34 36 36 35 33 31 30 30 29 27 26 25
47 47 46 41 36 36 39 46 44 42 38 30 29 29 27 38 34 34 35 35 31 34 32 34 35 32 29 34 33 33 35 35 33 33 32 32 30 29 28 29 28 26 25 25
46 40 33 28 36 45 44 38 33 33 35 34 29 31 31 35 32 31 31 30 30 29 32 34 31 31 33 35 37 37 37 36 35 30 28 29 28 28 28 28 28 28 26 24
36 32 31 37 43 40 35 28 27 30 28 32 30 32 30 35 31 30 31 29 29 25 30 31 27 27 31 34 35 37 37 36 36 37 36 35 33 30 28 27 27 26 24 22
37 38 41 40 36 32 29 28 29 29 28 31 30 31 34 32 35 33 30 27 27 24 30 29 25 30 32 33 35 36 36 35 35 35 33 33 32 31 29 27 24 23 21 17
40 36 33 30 30 24 21 21 26 27 28 29 30 29 32 32 33 27 29 24 23 29 27 24 27 29 31 32 33 33 34 34 32 31 31 30 29 28 27 23 22 19 16 13
29 25 24 23 21 24 24 27 27 28 29 29 29 30 31 29 28 24 24 25 26 20 19 23 30 29 29 30 31 31 29 27 27 26 25 23 22 18 17 16 15 13 10 5
27 27 19 24 25 26 29 30 31 31 30 31 30 29 31 25 24 24 24 22 19 22 23 27 30 26 27 26 26 24 23 20 21 21 19 17 14 14 10 10 12 11 7 5
28 26 25 27 28 28 30 32 31 31 31 31 32 27 24 24 25 24 21 22 19 25 27 28 26 24 25 24 24 22 20 20 18 18 18 15 13 14 13 8 9 7 8 6
26 25 28 27 26 28 31 33 32 31 32 26 28 22 23 27 23 22 25 22 27 28 27 31 25 23 23 21 20 18 18 17 17 16 16 15 13 11 12 12 10 10 11 8

GFSNW_sfc_temp_126.txt.gz
Temp
51 51 51 50 51 50 48 40 32 44 52 38 42 41 47 48 46 50 46 46 43 37 37 38 37 39 43 51 49 43 46 37 33 40 52 52 49 44 45 35 34 40 34 27
50 51 50 50 51 52 43 35 35 44 46 31 36 44 46 49 47 47 45 43 42 41 33 32 33 40 48 49 47 45 44 36 37 40 44 49 43 42 44 42 42 33 30 27
47 48 49 49 48 48 45 37 31 36 39 41 42 41 41 40 50 46 46 43 42 39 32 33 31 38 45 47 48 46 45 41 34 31 29 36 33 38 45 40 34 32 28 25
48 48 48 48 48 48 45 38 36 40 31 36 41 44 44 40 40 46 48 40 42 39 31 34 32 39 44 46 46 48 44 33 34 36 36 36 30 31 34 32 32 30 26 26
48 48 48 48 48 48 47 35 37 44 43 43 43 43 43 43 42 43 40 42 44 43 40 41 35 40 43 43 48 46 44 35 34 31 35 35 28 30 32 32 32 30 30 26
47 47 47 48 48 49 45 46 47 48 41 43 43 43 44 43 44 45 49 47 43 41 45 48 49 50 48 48 45 41 41 37 37 31 33 34 28 28 30 32 35 35 31 29
49 49 49 48 49 48 46 46 51 46 39 46 45 45 46 44 45 43 46 47 45 46 50 48 47 46 46 46 47 47 41 39 38 35 33 25 29 34 34 32 33 36 32 31
49 49 49 49 49 48 50 50 52 50 41 48 45 46 45 46 47 45 43 44 47 49 48 44 40 41 41 43 46 46 46 40 36 32 33 30 31 35 32 31 29 35 34 33
48 48 49 49 49 48 52 50 51 55 47 45 50 44 46 43 43 42 41 46 48 48 48 43 36 34 40 37 39 46 44 44 35 36 29 26 32 36 38 40 29 36 37 36
48 48 49 49 49 49 54 49 49 54 42 46 50 45 43 47 46 43 43 43 43 46 43 38 37 37 43 36 35 35 39 39 34 35 32 31 36 37 40 28 27 37 38 38
48 48 49 49 49 49 53 48 51 55 45 44 48 48 45 44 47 41 42 41 41 41 39 40 40 39 40 38 39 37 36 34 34 34 30 27 36 36 33 34 39 40 39 39
48 48 49 49 49 49 51 49 53 56 50 45 49 48 49 51 50 46 43 43 42 46 43 44 44 38 39 40 30 42 34 39 38 32 30 35 37 36 42 43 39 39 39 39
48 48 49 49 48 48 51 49 53 55 47 48 49 45 50 54 52 53 45 44 45 44 48 45 44 37 46 36 39 37 38 42 37 34 31 34 36 39 41 41 39 41 40 39
48 48 48 48 48 48 50 49 49 53 50 39 41 52 47 51 54 52 53 48 48 48 51 47 45 42 45 41 42 43 43 42 34 30 33 36 37 39 38 38 39 38 39 38
48 48 48 48 48 48 51 48 50 51 51 39 41 49 49 52 53 51 52 50 49 49 46 44 42 47 45 45 44 41 45 39 36 34 36 38 36 39 39 37 36 36 35 35
48 48 48 47 47 47 54 38 51 51 53 45 37 46 47 49 51 49 48 49 48 50 49 46 48 45 46 39 39 40 43 43 43 38 42 39 39 40 41 37 37 37 36 36
47 47 48 47 47 49 45 42 46 47 52 44 37 39 46 50 49 48 48 48 48 49 48 47 48 46 47 40 37 39 42 43 43 43 40 34 37 35 39 38 37 36 36 36
47 47 47 47 48 48 45 48 47 50 48 49 37 35 41 48 44 41 47 46 48 46 46 46 46 45 45 37 41 43 43 42 41 42 43 42 41 39 38 37 36 34 33 32
47 47 47 48 45 43 44 46 48 51 48 39 37 34 31 46 42 44 44 47 38 46 42 44 44 42 35 42 42 42 42 41 41 42 42 40 38 37 35 36 35 33 31 32
46 48 42 34 41 46 47 47 43 43 42 43 37 42 34 43 42 39 39 42 39 35 41 45 39 39 42 43 48 47 45 45 43 38 36 38 37 36 36 36 36 35 33 32
44 37 34 40 45 46 41 33 35 36 34 41 40 42 36 44 37 36 41 37 39 32 37 36 36 37 41 43 45 47 47 46 45 46 44 43 41 38 36 35 34 34 32 30
44 41 42 44 41 36 32 32 34 35 33 37 37 39 42 39 44 40 39 34 36 28 41 32 31 40 41 43 43 44 45 45 44 45 42 41 40 39 38 36 34 32 31 26
44 41 34 35 33 27 27 24 29 30 33 35 37 34 39 40 43 36 37 30 30 39 31 32 38 40 40 42 44 44 44 43 43 42 41 40 39 39 36 32 31 27 25 22
37 33 26 29 26 31 32 34 34 34 36 36 38 34 39 38 34 33 30 31 34 27 26 30 41 36 37 40 42 41 37 36 37 36 35 33 31 28 28 26 24 21 18 17
32 33 25 28 32 33 33 34 34 35 39 38 36 37 41 33 30 33 31 27 27 31 32 38 40 33 34 34 35 33 32 31 31 30 28 26 23 23 22 21 22 21 17 15
34 32 29 31 32 31 32 33 32 37 39 40 42 34 32 30 33 30 28 29 29 34 38 40 38 32 32 32 32 32 31 31 30 29 27 24 22 22 23 21 20 18 18 16
31 29 32 31 32 32 33 33 34 39 38 33 37 30 28 35 31 29 35 32 37 39 39 38 32 30 31 31 30 27 27 28 28 27 26 25 24 21 20 19 19 20 19 18

GFSNW_sfc_temp_129.txt.gz
Temp
53 54 53 52 51 52 51 43 31 44 48 34 36 35 49 53 52 52 48 52 49 44 44 42 45 46 48 58 57 47 50 40 36 46 56 57 52 47 45 38 38 42 37 29
51 51 51 51 52 53 43 35 35 44 45 33 34 47 47 53 50 49 48 43 43 47 37 33 36 48 54 55 53 49 50 39 38 41 47 54 47 48 47 43 39 35 31 29
50 51 51 51 50 51 45 37 30 35 36 39 43 44 45 46 54 52 53 49 43 40 35 38 34 44 49 53 53 47 48 46 40 37 35 42 37 41 44 44 34 33 30 27
48 48 48 48 48 48 45 40 39 44 32 36 44 47 46 44 45 51 52 43 45 41 33 39 36 47 47 50 48 50 47 37 37 42 42 40 33 34 35 35 35 32 29 28
48 48 48 48 48 47 43 34 41 47 44 44 42 42 41 42 45 46 44 45 49 49 42 43 38 42 47 46 51 45 48 34 35 32 39 39 30 33 33 36 35 33 33 28
48 48 47 48 47 47 42 45 52 47 38 39 37 36 41 43 46 48 50 50 48 47 49 54 55 56 54 53 49 47 43 41 38 33 36 38 32 29 32 36 40 39 34 33
48 48 48 47 48 49 53 52 49 43 34 37 39 44 47 47 47 46 53 53 49 51 56 55 53 52 52 51 51 53 47 44 43 35 37 26 30 41 41 36 36 39 35 34
47 47 47 48 49 49 53 53 51 48 37 43 45 47 49 51 51 50 50 52 54 56 53 48 43 42 43 46 51 49 52 47 39 35 35 31 32 37 37 36 32 39 37 36
47 47 47 49 49 50 53 53 53 55 46 43 51 49 50 45 46 45 44 51 54 53 51 46 39 36 43 40 41 51 50 49 41 40 33 28 38 45 47 45 31 43 41 37
48 48 49 49 50 50 53 58 56 58 51 57 56 50 48 54 49 45 46 47 48 52 46 40 41 40 49 39 39 38 40 43 36 38 36 35 44 44 45 29 30 42 44 42
48 49 49 49 49 50 54 55 58 60 50 52 55 55 50 52 53 45 48 45 46 45 42 43 44 42 44 42 46 43 42 39 35 38 35 29 44 41 34 38 43 44 43 42
48 49 49 49 49 50 51 55 62 65 56 49 54 54 56 56 56 54 50 49 49 51 47 48 49 42 44 45 34 47 38 45 40 37 32 36 41 41 46 47 44 44 43 43
48 49 49 49 49 51 56 59 61 60 51 52 53 48 54 58 57 58 49 52 51 50 53 50 49 42 50 40 44 43 44 47 41 36 34 36 39 43 45 46 44 45 45 43
48 48 49 48 49 51 55 56 60 60 55 42 44 58 51 58 59 58 58 53 54 54 55 50 48 45 50 48 47 47 48 47 38 33 36 39 41 40 41 42 44 43 43 43
48 48 48 49 50 52 56 58 58 60 56 42 44 52 55 58 57 56 56 55 53 52 49 47 47 52 50 51 50 46 50 43 37 37 40 42 41 43 44 41 40 42 40 40
48 48 48 48 48 50 60 40 57 60 63 49 38 51 50 55 55 54 53 54 54 56 53 50 52 51 49 43 42 47 50 50 49 42 46 46 44 44 45 42 42 42 41 41
47 47 48 48 50 55 51 46 52 50 60 47 40 41 49 54 54 53 53 54 54 54 51 51 51 49 49 44 41 46 48 48 48 49 46 41 43 41 44 44 43 41 41 41
47 48 48 49 49 50 50 52 51 52 57 55 39 37 43 52 48 45 54 50 53 50 50 50 49 49 49 41 47 49 49 48 46 46 49 46 47 46 44 43 42 39 38 38
47 47 48 54 52 50 51 47 49 58 55 44 42 36 32 51 47 49 49 52 41 50 45 48 49 46 38 45 48 48 48 46 45 47 49 47 43 43 41 40 39 38 36 36
47 52 45 35 45 45 49 54 49 49 50 51 42 47 36 47 45 44 42 45 42 37 44 49 42 44 48 49 52 53 50 50 49 43 41 42 40 40 40 39 40 40 38 37
51 40 36 45 47 53 46 35 40 43 39 47 45 44 38 49 40 39 46 41 42 35 39 39 40 41 44 49 51 53 52 51 50 50 48 47 45 42 41 40 40 40 38 35
47 45 48 50 46 41 35 35 39 41 38 43 41 42 45 43 49 43 43 37 38 32 44 36 34 42 47 49 49 50 51 50 49 50 48 47 45 44 43 41 39 38 37 33
48 44 36 38 36 30 30 26 34 34 38 40 41 37 43 44 47 39 40 31 32 43 33 34 41 44 47 48 49 48 49 48 47 47 47 46 44 44 42 39 38 34 31 28
41 36 28 31 28 34 37 39 38 37 40 41 42 40 41 42 36 35 31 34 38 30 29 33 43 41 43 47 48 47 44 42 43 42 42 38 37 34 33 33 30 29 24 24
36 37 28 31 35 35 35 37 37 40 44 42 41 42 43 36 31 36 34 29 29 34 35 40 42 37 40 41 42 37 34 33 33 33 32 31 29 28 28 27 28 26 23 21
38 35 31 35 33 31 33 35 33 41 43 46 47 39 34 33 36 32 31 33 32 36 41 43 44 35 36 36 36 35 34 34 33 32 31 29 27 27 28 27 26 23 22 20
34 31 34 34 35 32 33 35 37 43 42 35 41 32 31 39 35 33 40 34 38 42 42 42 34 32 33 33 33 32 32 32 32 31 31 29 29 28 26 24 23 24 24 23